<?xml version="1.0" encoding="UTF-8" standalone="no" ?>
<gpx xmlns="http://www.topografix.com/GPX/1/1" xmlns:xsi="http://www.w3.org/2001/XMLSchema-instance" xsi:schemaLocation="http://www.topografix.com/GPX/1/1 http://www.topografix.com/GPX/1/1/gpx.xsd" version="1.1" creator="VisuGPX - https://www.visugpx.com">
  <metadata>
    <name>Tour du Mont Puget</name>
    <desc><![CDATA[Très joli tour, vues sur la baie de Marseille, sur les calanques et sur la Grande Candelle. Quelques passages difficiles. Un peu long sur la fin en fond de vallée, après une descente dans des cailloux.
]]></desc>
  </metadata>
  <trk>
    <name><![CDATA[2020-03-15 17:05:37]]></name>
    <trkseg>
      <trkpt lat="43.24003" lon="5.45724">
        <ele>329.87</ele>
        <time>2020-03-15T10:02:13Z</time>
      </trkpt>
      <trkpt lat="43.24002" lon="5.45724">
        <ele>329.87</ele>
        <time>2020-03-15T10:02:44Z</time>
      </trkpt>
      <trkpt lat="43.24002" lon="5.45724">
        <ele>329.39</ele>
        <time>2020-03-15T10:03:04Z</time>
      </trkpt>
      <trkpt lat="43.24006" lon="5.45724">
        <ele>324.1</ele>
        <time>2020-03-15T10:03:34Z</time>
      </trkpt>
      <trkpt lat="43.24006" lon="5.45725">
        <ele>327.95</ele>
        <time>2020-03-15T10:04:06Z</time>
      </trkpt>
      <trkpt lat="43.24006" lon="5.45725">
        <ele>326.99</ele>
        <time>2020-03-15T10:04:31Z</time>
      </trkpt>
      <trkpt lat="43.24" lon="5.45719">
        <ele>326.99</ele>
        <time>2020-03-15T10:04:41Z</time>
      </trkpt>
      <trkpt lat="43.23993" lon="5.45713">
        <ele>327.47</ele>
        <time>2020-03-15T10:04:48Z</time>
      </trkpt>
      <trkpt lat="43.23989" lon="5.45711">
        <ele>327.47</ele>
        <time>2020-03-15T10:04:52Z</time>
      </trkpt>
      <trkpt lat="43.23986" lon="5.45708">
        <ele>326.99</ele>
        <time>2020-03-15T10:04:55Z</time>
      </trkpt>
      <trkpt lat="43.23973" lon="5.45703">
        <ele>326.5</ele>
        <time>2020-03-15T10:05:06Z</time>
      </trkpt>
      <trkpt lat="43.23971" lon="5.45702">
        <ele>326.5</ele>
        <time>2020-03-15T10:05:08Z</time>
      </trkpt>
      <trkpt lat="43.2396" lon="5.45697">
        <ele>326.5</ele>
        <time>2020-03-15T10:05:18Z</time>
      </trkpt>
      <trkpt lat="43.23955" lon="5.45695">
        <ele>326.99</ele>
        <time>2020-03-15T10:05:23Z</time>
      </trkpt>
      <trkpt lat="43.23953" lon="5.45693">
        <ele>327.47</ele>
        <time>2020-03-15T10:05:25Z</time>
      </trkpt>
      <trkpt lat="43.23946" lon="5.45688">
        <ele>328.43</ele>
        <time>2020-03-15T10:05:31Z</time>
      </trkpt>
      <trkpt lat="43.23931" lon="5.45689">
        <ele>328.43</ele>
        <time>2020-03-15T10:05:46Z</time>
      </trkpt>
      <trkpt lat="43.23927" lon="5.45689">
        <ele>328.43</ele>
        <time>2020-03-15T10:05:50Z</time>
      </trkpt>
      <trkpt lat="43.23924" lon="5.45686">
        <ele>328.91</ele>
        <time>2020-03-15T10:05:54Z</time>
      </trkpt>
      <trkpt lat="43.23913" lon="5.45687">
        <ele>330.35</ele>
        <time>2020-03-15T10:06:09Z</time>
      </trkpt>
      <trkpt lat="43.23905" lon="5.45695">
        <ele>331.31</ele>
        <time>2020-03-15T10:06:22Z</time>
      </trkpt>
      <trkpt lat="43.23905" lon="5.45695">
        <ele>332.75</ele>
        <time>2020-03-15T10:06:40Z</time>
      </trkpt>
      <trkpt lat="43.23905" lon="5.45695">
        <ele>332.75</ele>
        <time>2020-03-15T10:06:41Z</time>
      </trkpt>
      <trkpt lat="43.23902" lon="5.45704">
        <ele>333.71</ele>
        <time>2020-03-15T10:06:53Z</time>
      </trkpt>
      <trkpt lat="43.239" lon="5.45708">
        <ele>333.23</ele>
        <time>2020-03-15T10:06:57Z</time>
      </trkpt>
      <trkpt lat="43.23891" lon="5.45719">
        <ele>332.75</ele>
        <time>2020-03-15T10:07:10Z</time>
      </trkpt>
      <trkpt lat="43.23881" lon="5.45733">
        <ele>334.2</ele>
        <time>2020-03-15T10:07:26Z</time>
      </trkpt>
      <trkpt lat="43.23879" lon="5.45736">
        <ele>334.68</ele>
        <time>2020-03-15T10:07:31Z</time>
      </trkpt>
      <trkpt lat="43.23875" lon="5.45738">
        <ele>335.16</ele>
        <time>2020-03-15T10:07:36Z</time>
      </trkpt>
      <trkpt lat="43.23873" lon="5.4575">
        <ele>335.64</ele>
        <time>2020-03-15T10:07:47Z</time>
      </trkpt>
      <trkpt lat="43.23864" lon="5.45756">
        <ele>335.16</ele>
        <time>2020-03-15T10:08:00Z</time>
      </trkpt>
      <trkpt lat="43.23853" lon="5.45764">
        <ele>334.68</ele>
        <time>2020-03-15T10:08:13Z</time>
      </trkpt>
      <trkpt lat="43.23843" lon="5.4577">
        <ele>333.71</ele>
        <time>2020-03-15T10:08:24Z</time>
      </trkpt>
      <trkpt lat="43.23833" lon="5.45774">
        <ele>333.71</ele>
        <time>2020-03-15T10:08:34Z</time>
      </trkpt>
      <trkpt lat="43.23818" lon="5.45782">
        <ele>333.71</ele>
        <time>2020-03-15T10:08:49Z</time>
      </trkpt>
      <trkpt lat="43.23806" lon="5.45788">
        <ele>333.71</ele>
        <time>2020-03-15T10:09:02Z</time>
      </trkpt>
      <trkpt lat="43.23795" lon="5.45796">
        <ele>333.23</ele>
        <time>2020-03-15T10:09:14Z</time>
      </trkpt>
      <trkpt lat="43.23786" lon="5.45801">
        <ele>332.27</ele>
        <time>2020-03-15T10:09:25Z</time>
      </trkpt>
      <trkpt lat="43.23777" lon="5.45802">
        <ele>331.79</ele>
        <time>2020-03-15T10:09:36Z</time>
      </trkpt>
      <trkpt lat="43.23769" lon="5.45798">
        <ele>332.27</ele>
        <time>2020-03-15T10:09:47Z</time>
      </trkpt>
      <trkpt lat="43.23759" lon="5.45796">
        <ele>332.27</ele>
        <time>2020-03-15T10:09:58Z</time>
      </trkpt>
      <trkpt lat="43.23749" lon="5.45793">
        <ele>332.27</ele>
        <time>2020-03-15T10:10:14Z</time>
      </trkpt>
      <trkpt lat="43.23748" lon="5.45793">
        <ele>332.27</ele>
        <time>2020-03-15T10:10:16Z</time>
      </trkpt>
      <trkpt lat="43.23738" lon="5.45792">
        <ele>332.27</ele>
        <time>2020-03-15T10:10:28Z</time>
      </trkpt>
      <trkpt lat="43.23736" lon="5.45792">
        <ele>332.27</ele>
        <time>2020-03-15T10:10:31Z</time>
      </trkpt>
      <trkpt lat="43.23723" lon="5.45791">
        <ele>332.75</ele>
        <time>2020-03-15T10:10:45Z</time>
      </trkpt>
      <trkpt lat="43.23712" lon="5.45792">
        <ele>333.71</ele>
        <time>2020-03-15T10:10:57Z</time>
      </trkpt>
      <trkpt lat="43.237" lon="5.45793">
        <ele>334.68</ele>
        <time>2020-03-15T10:11:09Z</time>
      </trkpt>
      <trkpt lat="43.23688" lon="5.45796">
        <ele>334.68</ele>
        <time>2020-03-15T10:11:23Z</time>
      </trkpt>
      <trkpt lat="43.23675" lon="5.45799">
        <ele>335.16</ele>
        <time>2020-03-15T10:11:38Z</time>
      </trkpt>
      <trkpt lat="43.23666" lon="5.45802">
        <ele>337.08</ele>
        <time>2020-03-15T10:11:51Z</time>
      </trkpt>
      <trkpt lat="43.23654" lon="5.45805">
        <ele>340.92</ele>
        <time>2020-03-15T10:12:09Z</time>
      </trkpt>
      <trkpt lat="43.23643" lon="5.45805">
        <ele>343.33</ele>
        <time>2020-03-15T10:12:23Z</time>
      </trkpt>
      <trkpt lat="43.23632" lon="5.45815">
        <ele>344.29</ele>
        <time>2020-03-15T10:12:39Z</time>
      </trkpt>
      <trkpt lat="43.23624" lon="5.45822">
        <ele>346.21</ele>
        <time>2020-03-15T10:12:53Z</time>
      </trkpt>
      <trkpt lat="43.23621" lon="5.45827">
        <ele>346.69</ele>
        <time>2020-03-15T10:12:58Z</time>
      </trkpt>
      <trkpt lat="43.23616" lon="5.45837">
        <ele>348.13</ele>
        <time>2020-03-15T10:13:11Z</time>
      </trkpt>
      <trkpt lat="43.23612" lon="5.4584">
        <ele>348.13</ele>
        <time>2020-03-15T10:13:16Z</time>
      </trkpt>
      <trkpt lat="43.23604" lon="5.45848">
        <ele>349.1</ele>
        <time>2020-03-15T10:13:29Z</time>
      </trkpt>
      <trkpt lat="43.23597" lon="5.45857">
        <ele>350.06</ele>
        <time>2020-03-15T10:13:42Z</time>
      </trkpt>
      <trkpt lat="43.23596" lon="5.45862">
        <ele>350.54</ele>
        <time>2020-03-15T10:13:56Z</time>
      </trkpt>
      <trkpt lat="43.23593" lon="5.45865">
        <ele>350.06</ele>
        <time>2020-03-15T10:14:00Z</time>
      </trkpt>
      <trkpt lat="43.23591" lon="5.45871">
        <ele>351.02</ele>
        <time>2020-03-15T10:14:08Z</time>
      </trkpt>
      <trkpt lat="43.23588" lon="5.45884">
        <ele>351.5</ele>
        <time>2020-03-15T10:14:22Z</time>
      </trkpt>
      <trkpt lat="43.23587" lon="5.45888">
        <ele>352.94</ele>
        <time>2020-03-15T10:14:38Z</time>
      </trkpt>
      <trkpt lat="43.23586" lon="5.45891">
        <ele>352.94</ele>
        <time>2020-03-15T10:14:58Z</time>
      </trkpt>
      <trkpt lat="43.2358" lon="5.45899">
        <ele>355.34</ele>
        <time>2020-03-15T10:15:12Z</time>
      </trkpt>
      <trkpt lat="43.23575" lon="5.4591">
        <ele>357.27</ele>
        <time>2020-03-15T10:15:26Z</time>
      </trkpt>
      <trkpt lat="43.23572" lon="5.45919">
        <ele>359.19</ele>
        <time>2020-03-15T10:15:39Z</time>
      </trkpt>
      <trkpt lat="43.23572" lon="5.45933">
        <ele>361.59</ele>
        <time>2020-03-15T10:15:57Z</time>
      </trkpt>
      <trkpt lat="43.23572" lon="5.45941">
        <ele>363.04</ele>
        <time>2020-03-15T10:16:10Z</time>
      </trkpt>
      <trkpt lat="43.2357" lon="5.45952">
        <ele>364.96</ele>
        <time>2020-03-15T10:16:25Z</time>
      </trkpt>
      <trkpt lat="43.2357" lon="5.45961">
        <ele>366.88</ele>
        <time>2020-03-15T10:16:37Z</time>
      </trkpt>
      <trkpt lat="43.23568" lon="5.45965">
        <ele>367.36</ele>
        <time>2020-03-15T10:16:46Z</time>
      </trkpt>
      <trkpt lat="43.23569" lon="5.45976">
        <ele>367.84</ele>
        <time>2020-03-15T10:16:59Z</time>
      </trkpt>
      <trkpt lat="43.23567" lon="5.45985">
        <ele>369.28</ele>
        <time>2020-03-15T10:17:13Z</time>
      </trkpt>
      <trkpt lat="43.23563" lon="5.45991">
        <ele>369.76</ele>
        <time>2020-03-15T10:17:25Z</time>
      </trkpt>
      <trkpt lat="43.23562" lon="5.45991">
        <ele>370.24</ele>
        <time>2020-03-15T10:17:27Z</time>
      </trkpt>
      <trkpt lat="43.2356" lon="5.45999">
        <ele>373.13</ele>
        <time>2020-03-15T10:17:39Z</time>
      </trkpt>
      <trkpt lat="43.23564" lon="5.46007">
        <ele>375.05</ele>
        <time>2020-03-15T10:17:52Z</time>
      </trkpt>
      <trkpt lat="43.23569" lon="5.46015">
        <ele>375.53</ele>
        <time>2020-03-15T10:18:03Z</time>
      </trkpt>
      <trkpt lat="43.23573" lon="5.46023">
        <ele>375.53</ele>
        <time>2020-03-15T10:18:20Z</time>
      </trkpt>
      <trkpt lat="43.23572" lon="5.46028">
        <ele>374.57</ele>
        <time>2020-03-15T10:18:39Z</time>
      </trkpt>
      <trkpt lat="43.23572" lon="5.46032">
        <ele>375.53</ele>
        <time>2020-03-15T10:18:45Z</time>
      </trkpt>
      <trkpt lat="43.23574" lon="5.46042">
        <ele>378.42</ele>
        <time>2020-03-15T10:18:57Z</time>
      </trkpt>
      <trkpt lat="43.23576" lon="5.46052">
        <ele>379.38</ele>
        <time>2020-03-15T10:19:10Z</time>
      </trkpt>
      <trkpt lat="43.23577" lon="5.46067">
        <ele>383.22</ele>
        <time>2020-03-15T10:19:25Z</time>
      </trkpt>
      <trkpt lat="43.23579" lon="5.46078">
        <ele>387.07</ele>
        <time>2020-03-15T10:19:39Z</time>
      </trkpt>
      <trkpt lat="43.23579" lon="5.46092">
        <ele>389.95</ele>
        <time>2020-03-15T10:19:54Z</time>
      </trkpt>
      <trkpt lat="43.23579" lon="5.46101">
        <ele>392.36</ele>
        <time>2020-03-15T10:20:07Z</time>
      </trkpt>
      <trkpt lat="43.23578" lon="5.46108">
        <ele>395.72</ele>
        <time>2020-03-15T10:20:19Z</time>
      </trkpt>
      <trkpt lat="43.23578" lon="5.46117">
        <ele>398.6</ele>
        <time>2020-03-15T10:20:33Z</time>
      </trkpt>
      <trkpt lat="43.23578" lon="5.46124">
        <ele>399.08</ele>
        <time>2020-03-15T10:20:48Z</time>
      </trkpt>
      <trkpt lat="43.23579" lon="5.46127">
        <ele>400.53</ele>
        <time>2020-03-15T10:21:05Z</time>
      </trkpt>
      <trkpt lat="43.23582" lon="5.46125">
        <ele>401.49</ele>
        <time>2020-03-15T10:21:22Z</time>
      </trkpt>
      <trkpt lat="43.23579" lon="5.46133">
        <ele>400.53</ele>
        <time>2020-03-15T10:21:39Z</time>
      </trkpt>
      <trkpt lat="43.23577" lon="5.46137">
        <ele>400.53</ele>
        <time>2020-03-15T10:21:43Z</time>
      </trkpt>
      <trkpt lat="43.23576" lon="5.46149">
        <ele>400.53</ele>
        <time>2020-03-15T10:21:57Z</time>
      </trkpt>
      <trkpt lat="43.23577" lon="5.46154">
        <ele>401.01</ele>
        <time>2020-03-15T10:22:16Z</time>
      </trkpt>
      <trkpt lat="43.23572" lon="5.46166">
        <ele>400.53</ele>
        <time>2020-03-15T10:22:28Z</time>
      </trkpt>
      <trkpt lat="43.23566" lon="5.46174">
        <ele>401.01</ele>
        <time>2020-03-15T10:22:41Z</time>
      </trkpt>
      <trkpt lat="43.23561" lon="5.46173">
        <ele>401.49</ele>
        <time>2020-03-15T10:22:48Z</time>
      </trkpt>
      <trkpt lat="43.23552" lon="5.46173">
        <ele>401.49</ele>
        <time>2020-03-15T10:23:00Z</time>
      </trkpt>
      <trkpt lat="43.23545" lon="5.46176">
        <ele>400.05</ele>
        <time>2020-03-15T10:23:11Z</time>
      </trkpt>
      <trkpt lat="43.23535" lon="5.46179">
        <ele>396.68</ele>
        <time>2020-03-15T10:23:24Z</time>
      </trkpt>
      <trkpt lat="43.23525" lon="5.46182">
        <ele>394.76</ele>
        <time>2020-03-15T10:23:36Z</time>
      </trkpt>
      <trkpt lat="43.23516" lon="5.46189">
        <ele>393.8</ele>
        <time>2020-03-15T10:23:51Z</time>
      </trkpt>
      <trkpt lat="43.23512" lon="5.46192">
        <ele>392.84</ele>
        <time>2020-03-15T10:24:04Z</time>
      </trkpt>
      <trkpt lat="43.23502" lon="5.46196">
        <ele>392.36</ele>
        <time>2020-03-15T10:24:17Z</time>
      </trkpt>
      <trkpt lat="43.23497" lon="5.462">
        <ele>392.84</ele>
        <time>2020-03-15T10:24:26Z</time>
      </trkpt>
      <trkpt lat="43.23489" lon="5.46203">
        <ele>395.24</ele>
        <time>2020-03-15T10:24:40Z</time>
      </trkpt>
      <trkpt lat="43.23489" lon="5.46208">
        <ele>396.68</ele>
        <time>2020-03-15T10:24:56Z</time>
      </trkpt>
      <trkpt lat="43.23489" lon="5.46209">
        <ele>397.16</ele>
        <time>2020-03-15T10:24:58Z</time>
      </trkpt>
      <trkpt lat="43.23488" lon="5.46213">
        <ele>396.2</ele>
        <time>2020-03-15T10:25:14Z</time>
      </trkpt>
      <trkpt lat="43.23483" lon="5.46218">
        <ele>396.2</ele>
        <time>2020-03-15T10:25:28Z</time>
      </trkpt>
      <trkpt lat="43.23477" lon="5.46228">
        <ele>396.2</ele>
        <time>2020-03-15T10:25:41Z</time>
      </trkpt>
      <trkpt lat="43.23469" lon="5.46237">
        <ele>394.76</ele>
        <time>2020-03-15T10:25:55Z</time>
      </trkpt>
      <trkpt lat="43.23465" lon="5.46244">
        <ele>393.32</ele>
        <time>2020-03-15T10:26:04Z</time>
      </trkpt>
      <trkpt lat="43.23459" lon="5.46255">
        <ele>391.39</ele>
        <time>2020-03-15T10:26:16Z</time>
      </trkpt>
      <trkpt lat="43.23453" lon="5.46268">
        <ele>388.51</ele>
        <time>2020-03-15T10:26:27Z</time>
      </trkpt>
      <trkpt lat="43.23446" lon="5.46283">
        <ele>387.07</ele>
        <time>2020-03-15T10:26:40Z</time>
      </trkpt>
      <trkpt lat="43.23444" lon="5.46286">
        <ele>386.59</ele>
        <time>2020-03-15T10:26:44Z</time>
      </trkpt>
      <trkpt lat="43.23437" lon="5.46294">
        <ele>385.63</ele>
        <time>2020-03-15T10:26:53Z</time>
      </trkpt>
      <trkpt lat="43.2343" lon="5.46307">
        <ele>385.15</ele>
        <time>2020-03-15T10:27:05Z</time>
      </trkpt>
      <trkpt lat="43.23425" lon="5.46313">
        <ele>384.66</ele>
        <time>2020-03-15T10:27:12Z</time>
      </trkpt>
      <trkpt lat="43.23414" lon="5.46327">
        <ele>384.18</ele>
        <time>2020-03-15T10:27:27Z</time>
      </trkpt>
      <trkpt lat="43.23405" lon="5.46341">
        <ele>384.18</ele>
        <time>2020-03-15T10:27:42Z</time>
      </trkpt>
      <trkpt lat="43.23397" lon="5.46349">
        <ele>385.15</ele>
        <time>2020-03-15T10:27:53Z</time>
      </trkpt>
      <trkpt lat="43.23385" lon="5.46362">
        <ele>385.63</ele>
        <time>2020-03-15T10:28:09Z</time>
      </trkpt>
      <trkpt lat="43.2338" lon="5.46373">
        <ele>385.63</ele>
        <time>2020-03-15T10:28:22Z</time>
      </trkpt>
      <trkpt lat="43.23372" lon="5.46377">
        <ele>388.03</ele>
        <time>2020-03-15T10:28:34Z</time>
      </trkpt>
      <trkpt lat="43.23364" lon="5.46384">
        <ele>388.99</ele>
        <time>2020-03-15T10:28:46Z</time>
      </trkpt>
      <trkpt lat="43.23361" lon="5.46386">
        <ele>389.47</ele>
        <time>2020-03-15T10:28:51Z</time>
      </trkpt>
      <trkpt lat="43.23358" lon="5.46395">
        <ele>389.95</ele>
        <time>2020-03-15T10:29:01Z</time>
      </trkpt>
      <trkpt lat="43.23348" lon="5.46402">
        <ele>390.43</ele>
        <time>2020-03-15T10:29:14Z</time>
      </trkpt>
      <trkpt lat="43.23338" lon="5.4641">
        <ele>389.47</ele>
        <time>2020-03-15T10:29:29Z</time>
      </trkpt>
      <trkpt lat="43.23328" lon="5.4642">
        <ele>389.95</ele>
        <time>2020-03-15T10:29:43Z</time>
      </trkpt>
      <trkpt lat="43.23319" lon="5.46422">
        <ele>388.51</ele>
        <time>2020-03-15T10:29:55Z</time>
      </trkpt>
      <trkpt lat="43.23313" lon="5.46425">
        <ele>389.47</ele>
        <time>2020-03-15T10:30:09Z</time>
      </trkpt>
      <trkpt lat="43.23305" lon="5.46427">
        <ele>388.51</ele>
        <time>2020-03-15T10:30:22Z</time>
      </trkpt>
      <trkpt lat="43.23294" lon="5.46423">
        <ele>388.51</ele>
        <time>2020-03-15T10:30:35Z</time>
      </trkpt>
      <trkpt lat="43.23283" lon="5.46426">
        <ele>386.59</ele>
        <time>2020-03-15T10:30:49Z</time>
      </trkpt>
      <trkpt lat="43.23273" lon="5.46425">
        <ele>387.07</ele>
        <time>2020-03-15T10:31:01Z</time>
      </trkpt>
      <trkpt lat="43.23263" lon="5.46416">
        <ele>385.63</ele>
        <time>2020-03-15T10:31:15Z</time>
      </trkpt>
      <trkpt lat="43.23251" lon="5.4641">
        <ele>385.15</ele>
        <time>2020-03-15T10:31:28Z</time>
      </trkpt>
      <trkpt lat="43.23241" lon="5.46407">
        <ele>383.7</ele>
        <time>2020-03-15T10:31:41Z</time>
      </trkpt>
      <trkpt lat="43.23231" lon="5.46403">
        <ele>384.66</ele>
        <time>2020-03-15T10:31:55Z</time>
      </trkpt>
      <trkpt lat="43.23226" lon="5.464">
        <ele>386.11</ele>
        <time>2020-03-15T10:32:02Z</time>
      </trkpt>
      <trkpt lat="43.23219" lon="5.46402">
        <ele>386.59</ele>
        <time>2020-03-15T10:32:11Z</time>
      </trkpt>
      <trkpt lat="43.23209" lon="5.46407">
        <ele>386.59</ele>
        <time>2020-03-15T10:32:23Z</time>
      </trkpt>
      <trkpt lat="43.23201" lon="5.46412">
        <ele>387.07</ele>
        <time>2020-03-15T10:32:35Z</time>
      </trkpt>
      <trkpt lat="43.23192" lon="5.4642">
        <ele>386.11</ele>
        <time>2020-03-15T10:32:49Z</time>
      </trkpt>
      <trkpt lat="43.23183" lon="5.46428">
        <ele>384.18</ele>
        <time>2020-03-15T10:33:03Z</time>
      </trkpt>
      <trkpt lat="43.23177" lon="5.46435">
        <ele>384.18</ele>
        <time>2020-03-15T10:33:11Z</time>
      </trkpt>
      <trkpt lat="43.23169" lon="5.46445">
        <ele>383.22</ele>
        <time>2020-03-15T10:33:25Z</time>
      </trkpt>
      <trkpt lat="43.23163" lon="5.46447">
        <ele>380.82</ele>
        <time>2020-03-15T10:33:40Z</time>
      </trkpt>
      <trkpt lat="43.23157" lon="5.46445">
        <ele>378.42</ele>
        <time>2020-03-15T10:33:54Z</time>
      </trkpt>
      <trkpt lat="43.23153" lon="5.4644">
        <ele>378.9</ele>
        <time>2020-03-15T10:34:07Z</time>
      </trkpt>
      <trkpt lat="43.23153" lon="5.46433">
        <ele>376.49</ele>
        <time>2020-03-15T10:34:19Z</time>
      </trkpt>
      <trkpt lat="43.23148" lon="5.46423">
        <ele>374.57</ele>
        <time>2020-03-15T10:34:34Z</time>
      </trkpt>
      <trkpt lat="43.23143" lon="5.4642">
        <ele>375.05</ele>
        <time>2020-03-15T10:34:47Z</time>
      </trkpt>
      <trkpt lat="43.23145" lon="5.46413">
        <ele>373.13</ele>
        <time>2020-03-15T10:34:57Z</time>
      </trkpt>
      <trkpt lat="43.23144" lon="5.46402">
        <ele>371.21</ele>
        <time>2020-03-15T10:35:08Z</time>
      </trkpt>
      <trkpt lat="43.23143" lon="5.46397">
        <ele>370.73</ele>
        <time>2020-03-15T10:35:13Z</time>
      </trkpt>
      <trkpt lat="43.23142" lon="5.46384">
        <ele>367.84</ele>
        <time>2020-03-15T10:35:25Z</time>
      </trkpt>
      <trkpt lat="43.23142" lon="5.46378">
        <ele>367.84</ele>
        <time>2020-03-15T10:35:31Z</time>
      </trkpt>
      <trkpt lat="43.2314" lon="5.46365">
        <ele>366.4</ele>
        <time>2020-03-15T10:35:43Z</time>
      </trkpt>
      <trkpt lat="43.23139" lon="5.46353">
        <ele>364</ele>
        <time>2020-03-15T10:35:56Z</time>
      </trkpt>
      <trkpt lat="43.23137" lon="5.46342">
        <ele>361.59</ele>
        <time>2020-03-15T10:36:08Z</time>
      </trkpt>
      <trkpt lat="43.23138" lon="5.46329">
        <ele>360.63</ele>
        <time>2020-03-15T10:36:21Z</time>
      </trkpt>
      <trkpt lat="43.23138" lon="5.46321">
        <ele>360.15</ele>
        <time>2020-03-15T10:36:36Z</time>
      </trkpt>
      <trkpt lat="43.23135" lon="5.46317">
        <ele>359.19</ele>
        <time>2020-03-15T10:36:53Z</time>
      </trkpt>
      <trkpt lat="43.23129" lon="5.46316">
        <ele>356.31</ele>
        <time>2020-03-15T10:37:01Z</time>
      </trkpt>
      <trkpt lat="43.2312" lon="5.46309">
        <ele>352.94</ele>
        <time>2020-03-15T10:37:14Z</time>
      </trkpt>
      <trkpt lat="43.23115" lon="5.46298">
        <ele>351.5</ele>
        <time>2020-03-15T10:37:26Z</time>
      </trkpt>
      <trkpt lat="43.23107" lon="5.46287">
        <ele>350.06</ele>
        <time>2020-03-15T10:37:40Z</time>
      </trkpt>
      <trkpt lat="43.23101" lon="5.46277">
        <ele>349.58</ele>
        <time>2020-03-15T10:37:52Z</time>
      </trkpt>
      <trkpt lat="43.23098" lon="5.4627">
        <ele>349.58</ele>
        <time>2020-03-15T10:37:59Z</time>
      </trkpt>
      <trkpt lat="43.23097" lon="5.46264">
        <ele>350.06</ele>
        <time>2020-03-15T10:38:06Z</time>
      </trkpt>
      <trkpt lat="43.23088" lon="5.46256">
        <ele>350.54</ele>
        <time>2020-03-15T10:38:20Z</time>
      </trkpt>
      <trkpt lat="43.23081" lon="5.46248">
        <ele>352.46</ele>
        <time>2020-03-15T10:38:31Z</time>
      </trkpt>
      <trkpt lat="43.2307" lon="5.4624">
        <ele>353.42</ele>
        <time>2020-03-15T10:38:47Z</time>
      </trkpt>
      <trkpt lat="43.23064" lon="5.46231">
        <ele>355.34</ele>
        <time>2020-03-15T10:39:01Z</time>
      </trkpt>
      <trkpt lat="43.23057" lon="5.46225">
        <ele>357.75</ele>
        <time>2020-03-15T10:39:13Z</time>
      </trkpt>
      <trkpt lat="43.23052" lon="5.46219">
        <ele>361.11</ele>
        <time>2020-03-15T10:39:24Z</time>
      </trkpt>
      <trkpt lat="43.2305" lon="5.46217">
        <ele>362.07</ele>
        <time>2020-03-15T10:39:28Z</time>
      </trkpt>
      <trkpt lat="43.23044" lon="5.4621">
        <ele>364.48</ele>
        <time>2020-03-15T10:39:40Z</time>
      </trkpt>
      <trkpt lat="43.23043" lon="5.46196">
        <ele>366.88</ele>
        <time>2020-03-15T10:39:54Z</time>
      </trkpt>
      <trkpt lat="43.23037" lon="5.46187">
        <ele>367.36</ele>
        <time>2020-03-15T10:40:08Z</time>
      </trkpt>
      <trkpt lat="43.23028" lon="5.46177">
        <ele>368.8</ele>
        <time>2020-03-15T10:40:23Z</time>
      </trkpt>
      <trkpt lat="43.23024" lon="5.46169">
        <ele>370.73</ele>
        <time>2020-03-15T10:40:35Z</time>
      </trkpt>
      <trkpt lat="43.23021" lon="5.46152">
        <ele>371.69</ele>
        <time>2020-03-15T10:40:52Z</time>
      </trkpt>
      <trkpt lat="43.23019" lon="5.4615">
        <ele>371.21</ele>
        <time>2020-03-15T10:41:12Z</time>
      </trkpt>
      <trkpt lat="43.2302" lon="5.4615">
        <ele>366.88</ele>
        <time>2020-03-15T10:41:33Z</time>
      </trkpt>
      <trkpt lat="43.23018" lon="5.46147">
        <ele>367.36</ele>
        <time>2020-03-15T10:41:50Z</time>
      </trkpt>
      <trkpt lat="43.23014" lon="5.46145">
        <ele>367.84</ele>
        <time>2020-03-15T10:41:56Z</time>
      </trkpt>
      <trkpt lat="43.23009" lon="5.46136">
        <ele>367.36</ele>
        <time>2020-03-15T10:42:05Z</time>
      </trkpt>
      <trkpt lat="43.23003" lon="5.46119">
        <ele>368.32</ele>
        <time>2020-03-15T10:42:19Z</time>
      </trkpt>
      <trkpt lat="43.22998" lon="5.46108">
        <ele>369.76</ele>
        <time>2020-03-15T10:42:29Z</time>
      </trkpt>
      <trkpt lat="43.22993" lon="5.46095">
        <ele>370.24</ele>
        <time>2020-03-15T10:42:42Z</time>
      </trkpt>
      <trkpt lat="43.22988" lon="5.4608">
        <ele>372.65</ele>
        <time>2020-03-15T10:42:55Z</time>
      </trkpt>
      <trkpt lat="43.22985" lon="5.46065">
        <ele>372.65</ele>
        <time>2020-03-15T10:43:07Z</time>
      </trkpt>
      <trkpt lat="43.22982" lon="5.46056">
        <ele>373.61</ele>
        <time>2020-03-15T10:43:16Z</time>
      </trkpt>
      <trkpt lat="43.22978" lon="5.46037">
        <ele>374.09</ele>
        <time>2020-03-15T10:43:32Z</time>
      </trkpt>
      <trkpt lat="43.22974" lon="5.46024">
        <ele>374.57</ele>
        <time>2020-03-15T10:43:43Z</time>
      </trkpt>
      <trkpt lat="43.22965" lon="5.4601">
        <ele>375.53</ele>
        <time>2020-03-15T10:43:58Z</time>
      </trkpt>
      <trkpt lat="43.22955" lon="5.45997">
        <ele>375.05</ele>
        <time>2020-03-15T10:44:12Z</time>
      </trkpt>
      <trkpt lat="43.22955" lon="5.45996">
        <ele>374.57</ele>
        <time>2020-03-15T10:44:13Z</time>
      </trkpt>
      <trkpt lat="43.22953" lon="5.45995">
        <ele>375.05</ele>
        <time>2020-03-15T10:44:15Z</time>
      </trkpt>
      <trkpt lat="43.22943" lon="5.45985">
        <ele>375.05</ele>
        <time>2020-03-15T10:44:29Z</time>
      </trkpt>
      <trkpt lat="43.22942" lon="5.45983">
        <ele>376.49</ele>
        <time>2020-03-15T10:44:46Z</time>
      </trkpt>
      <trkpt lat="43.22934" lon="5.45976">
        <ele>376.49</ele>
        <time>2020-03-15T10:44:59Z</time>
      </trkpt>
      <trkpt lat="43.22925" lon="5.45965">
        <ele>375.53</ele>
        <time>2020-03-15T10:45:12Z</time>
      </trkpt>
      <trkpt lat="43.22918" lon="5.45959">
        <ele>374.57</ele>
        <time>2020-03-15T10:45:20Z</time>
      </trkpt>
      <trkpt lat="43.22906" lon="5.45948">
        <ele>374.57</ele>
        <time>2020-03-15T10:45:34Z</time>
      </trkpt>
      <trkpt lat="43.22905" lon="5.45947">
        <ele>374.57</ele>
        <time>2020-03-15T10:45:36Z</time>
      </trkpt>
      <trkpt lat="43.22902" lon="5.45934">
        <ele>375.53</ele>
        <time>2020-03-15T10:45:46Z</time>
      </trkpt>
      <trkpt lat="43.22908" lon="5.45903">
        <ele>376.49</ele>
        <time>2020-03-15T10:46:07Z</time>
      </trkpt>
      <trkpt lat="43.22916" lon="5.45887">
        <ele>375.05</ele>
        <time>2020-03-15T10:46:21Z</time>
      </trkpt>
      <trkpt lat="43.22925" lon="5.45872">
        <ele>373.13</ele>
        <time>2020-03-15T10:46:34Z</time>
      </trkpt>
      <trkpt lat="43.2293" lon="5.45862">
        <ele>375.53</ele>
        <time>2020-03-15T10:46:47Z</time>
      </trkpt>
      <trkpt lat="43.22934" lon="5.45853">
        <ele>376.97</ele>
        <time>2020-03-15T10:47:06Z</time>
      </trkpt>
      <trkpt lat="43.22933" lon="5.45835">
        <ele>378.42</ele>
        <time>2020-03-15T10:47:20Z</time>
      </trkpt>
      <trkpt lat="43.22929" lon="5.45824">
        <ele>377.94</ele>
        <time>2020-03-15T10:47:29Z</time>
      </trkpt>
      <trkpt lat="43.22926" lon="5.45819">
        <ele>377.94</ele>
        <time>2020-03-15T10:47:33Z</time>
      </trkpt>
      <trkpt lat="43.22919" lon="5.45814">
        <ele>378.42</ele>
        <time>2020-03-15T10:47:40Z</time>
      </trkpt>
      <trkpt lat="43.22917" lon="5.45812">
        <ele>378.42</ele>
        <time>2020-03-15T10:47:43Z</time>
      </trkpt>
      <trkpt lat="43.22916" lon="5.45809">
        <ele>378.42</ele>
        <time>2020-03-15T10:47:45Z</time>
      </trkpt>
      <trkpt lat="43.22914" lon="5.45808">
        <ele>378.42</ele>
        <time>2020-03-15T10:47:47Z</time>
      </trkpt>
      <trkpt lat="43.22906" lon="5.45797">
        <ele>377.94</ele>
        <time>2020-03-15T10:48:00Z</time>
      </trkpt>
      <trkpt lat="43.22904" lon="5.45789">
        <ele>377.94</ele>
        <time>2020-03-15T10:48:07Z</time>
      </trkpt>
      <trkpt lat="43.22903" lon="5.4577">
        <ele>379.86</ele>
        <time>2020-03-15T10:48:21Z</time>
      </trkpt>
      <trkpt lat="43.22897" lon="5.45751">
        <ele>380.82</ele>
        <time>2020-03-15T10:48:36Z</time>
      </trkpt>
      <trkpt lat="43.2289" lon="5.45737">
        <ele>381.3</ele>
        <time>2020-03-15T10:48:48Z</time>
      </trkpt>
      <trkpt lat="43.22887" lon="5.45731">
        <ele>380.82</ele>
        <time>2020-03-15T10:48:54Z</time>
      </trkpt>
      <trkpt lat="43.22885" lon="5.45709">
        <ele>381.78</ele>
        <time>2020-03-15T10:49:11Z</time>
      </trkpt>
      <trkpt lat="43.22881" lon="5.45692">
        <ele>384.18</ele>
        <time>2020-03-15T10:49:25Z</time>
      </trkpt>
      <trkpt lat="43.2288" lon="5.45686">
        <ele>384.18</ele>
        <time>2020-03-15T10:49:30Z</time>
      </trkpt>
      <trkpt lat="43.2288" lon="5.45671">
        <ele>385.15</ele>
        <time>2020-03-15T10:49:42Z</time>
      </trkpt>
      <trkpt lat="43.22883" lon="5.45653">
        <ele>387.55</ele>
        <time>2020-03-15T10:49:57Z</time>
      </trkpt>
      <trkpt lat="43.22883" lon="5.45638">
        <ele>388.51</ele>
        <time>2020-03-15T10:50:10Z</time>
      </trkpt>
      <trkpt lat="43.22884" lon="5.45633">
        <ele>387.55</ele>
        <time>2020-03-15T10:50:24Z</time>
      </trkpt>
      <trkpt lat="43.22881" lon="5.4563">
        <ele>388.51</ele>
        <time>2020-03-15T10:50:37Z</time>
      </trkpt>
      <trkpt lat="43.22874" lon="5.45615">
        <ele>388.51</ele>
        <time>2020-03-15T10:50:51Z</time>
      </trkpt>
      <trkpt lat="43.22867" lon="5.45603">
        <ele>388.51</ele>
        <time>2020-03-15T10:51:02Z</time>
      </trkpt>
      <trkpt lat="43.22861" lon="5.45588">
        <ele>388.03</ele>
        <time>2020-03-15T10:51:14Z</time>
      </trkpt>
      <trkpt lat="43.22856" lon="5.4557">
        <ele>387.55</ele>
        <time>2020-03-15T10:51:29Z</time>
      </trkpt>
      <trkpt lat="43.2285" lon="5.4555">
        <ele>388.99</ele>
        <time>2020-03-15T10:51:46Z</time>
      </trkpt>
      <trkpt lat="43.22844" lon="5.45542">
        <ele>389.47</ele>
        <time>2020-03-15T10:51:55Z</time>
      </trkpt>
      <trkpt lat="43.2284" lon="5.45538">
        <ele>390.43</ele>
        <time>2020-03-15T10:52:01Z</time>
      </trkpt>
      <trkpt lat="43.22839" lon="5.45536">
        <ele>390.43</ele>
        <time>2020-03-15T10:52:03Z</time>
      </trkpt>
      <trkpt lat="43.22829" lon="5.45522">
        <ele>389.95</ele>
        <time>2020-03-15T10:52:18Z</time>
      </trkpt>
      <trkpt lat="43.22819" lon="5.45512">
        <ele>388.99</ele>
        <time>2020-03-15T10:52:33Z</time>
      </trkpt>
      <trkpt lat="43.22817" lon="5.4551">
        <ele>388.51</ele>
        <time>2020-03-15T10:52:36Z</time>
      </trkpt>
      <trkpt lat="43.22816" lon="5.45509">
        <ele>388.03</ele>
        <time>2020-03-15T10:52:38Z</time>
      </trkpt>
      <trkpt lat="43.22806" lon="5.45502">
        <ele>386.59</ele>
        <time>2020-03-15T10:52:49Z</time>
      </trkpt>
      <trkpt lat="43.22795" lon="5.45496">
        <ele>386.11</ele>
        <time>2020-03-15T10:53:03Z</time>
      </trkpt>
      <trkpt lat="43.22787" lon="5.45494">
        <ele>386.59</ele>
        <time>2020-03-15T10:53:16Z</time>
      </trkpt>
      <trkpt lat="43.22788" lon="5.4549">
        <ele>387.07</ele>
        <time>2020-03-15T10:53:31Z</time>
      </trkpt>
      <trkpt lat="43.22788" lon="5.4549">
        <ele>388.51</ele>
        <time>2020-03-15T10:53:57Z</time>
      </trkpt>
      <trkpt lat="43.22788" lon="5.4549">
        <ele>390.43</ele>
        <time>2020-03-15T10:54:25Z</time>
      </trkpt>
      <trkpt lat="43.22789" lon="5.45487">
        <ele>388.99</ele>
        <time>2020-03-15T10:54:31Z</time>
      </trkpt>
      <trkpt lat="43.22791" lon="5.45484">
        <ele>385.63</ele>
        <time>2020-03-15T10:54:46Z</time>
      </trkpt>
      <trkpt lat="43.22795" lon="5.45476">
        <ele>385.15</ele>
        <time>2020-03-15T10:55:02Z</time>
      </trkpt>
      <trkpt lat="43.22791" lon="5.45481">
        <ele>386.59</ele>
        <time>2020-03-15T10:55:12Z</time>
      </trkpt>
      <trkpt lat="43.22787" lon="5.45485">
        <ele>388.03</ele>
        <time>2020-03-15T10:55:27Z</time>
      </trkpt>
      <trkpt lat="43.22788" lon="5.45484">
        <ele>388.51</ele>
        <time>2020-03-15T10:55:51Z</time>
      </trkpt>
      <trkpt lat="43.22788" lon="5.45487">
        <ele>388.51</ele>
        <time>2020-03-15T10:56:06Z</time>
      </trkpt>
      <trkpt lat="43.22787" lon="5.45485">
        <ele>388.99</ele>
        <time>2020-03-15T10:56:33Z</time>
      </trkpt>
      <trkpt lat="43.22784" lon="5.45491">
        <ele>385.63</ele>
        <time>2020-03-15T10:56:47Z</time>
      </trkpt>
      <trkpt lat="43.22783" lon="5.45492">
        <ele>385.15</ele>
        <time>2020-03-15T10:56:49Z</time>
      </trkpt>
      <trkpt lat="43.2278" lon="5.45493">
        <ele>385.15</ele>
        <time>2020-03-15T10:56:53Z</time>
      </trkpt>
      <trkpt lat="43.22765" lon="5.45499">
        <ele>383.22</ele>
        <time>2020-03-15T10:57:09Z</time>
      </trkpt>
      <trkpt lat="43.22757" lon="5.45507">
        <ele>379.86</ele>
        <time>2020-03-15T10:57:21Z</time>
      </trkpt>
      <trkpt lat="43.22746" lon="5.45515">
        <ele>377.94</ele>
        <time>2020-03-15T10:57:34Z</time>
      </trkpt>
      <trkpt lat="43.22743" lon="5.45518">
        <ele>377.45</ele>
        <time>2020-03-15T10:57:39Z</time>
      </trkpt>
      <trkpt lat="43.2273" lon="5.45521">
        <ele>376.49</ele>
        <time>2020-03-15T10:57:54Z</time>
      </trkpt>
      <trkpt lat="43.22721" lon="5.4551">
        <ele>377.94</ele>
        <time>2020-03-15T10:58:06Z</time>
      </trkpt>
      <trkpt lat="43.22719" lon="5.45498">
        <ele>378.42</ele>
        <time>2020-03-15T10:58:16Z</time>
      </trkpt>
      <trkpt lat="43.2272" lon="5.45493">
        <ele>377.45</ele>
        <time>2020-03-15T10:58:21Z</time>
      </trkpt>
      <trkpt lat="43.22716" lon="5.45477">
        <ele>377.94</ele>
        <time>2020-03-15T10:58:33Z</time>
      </trkpt>
      <trkpt lat="43.22716" lon="5.45476">
        <ele>377.94</ele>
        <time>2020-03-15T10:58:34Z</time>
      </trkpt>
      <trkpt lat="43.22715" lon="5.4547">
        <ele>377.94</ele>
        <time>2020-03-15T10:58:39Z</time>
      </trkpt>
      <trkpt lat="43.22708" lon="5.45453">
        <ele>379.38</ele>
        <time>2020-03-15T10:58:53Z</time>
      </trkpt>
      <trkpt lat="43.22693" lon="5.45445">
        <ele>377.94</ele>
        <time>2020-03-15T10:59:07Z</time>
      </trkpt>
      <trkpt lat="43.22691" lon="5.45444">
        <ele>377.45</ele>
        <time>2020-03-15T10:59:09Z</time>
      </trkpt>
      <trkpt lat="43.22679" lon="5.45445">
        <ele>374.57</ele>
        <time>2020-03-15T10:59:21Z</time>
      </trkpt>
      <trkpt lat="43.22665" lon="5.45447">
        <ele>372.65</ele>
        <time>2020-03-15T10:59:35Z</time>
      </trkpt>
      <trkpt lat="43.22655" lon="5.45448">
        <ele>372.65</ele>
        <time>2020-03-15T10:59:49Z</time>
      </trkpt>
      <trkpt lat="43.22653" lon="5.45448">
        <ele>372.65</ele>
        <time>2020-03-15T10:59:51Z</time>
      </trkpt>
      <trkpt lat="43.22645" lon="5.45442">
        <ele>372.65</ele>
        <time>2020-03-15T11:00:01Z</time>
      </trkpt>
      <trkpt lat="43.22636" lon="5.45429">
        <ele>371.69</ele>
        <time>2020-03-15T11:00:16Z</time>
      </trkpt>
      <trkpt lat="43.22635" lon="5.45428">
        <ele>371.69</ele>
        <time>2020-03-15T11:00:17Z</time>
      </trkpt>
      <trkpt lat="43.22624" lon="5.45416">
        <ele>372.65</ele>
        <time>2020-03-15T11:00:32Z</time>
      </trkpt>
      <trkpt lat="43.2262" lon="5.45414">
        <ele>373.13</ele>
        <time>2020-03-15T11:00:36Z</time>
      </trkpt>
      <trkpt lat="43.22604" lon="5.45412">
        <ele>372.65</ele>
        <time>2020-03-15T11:00:51Z</time>
      </trkpt>
      <trkpt lat="43.22593" lon="5.45404">
        <ele>372.65</ele>
        <time>2020-03-15T11:01:04Z</time>
      </trkpt>
      <trkpt lat="43.22584" lon="5.45397">
        <ele>373.13</ele>
        <time>2020-03-15T11:01:15Z</time>
      </trkpt>
      <trkpt lat="43.22581" lon="5.45392">
        <ele>373.13</ele>
        <time>2020-03-15T11:01:19Z</time>
      </trkpt>
      <trkpt lat="43.22578" lon="5.45373">
        <ele>371.69</ele>
        <time>2020-03-15T11:01:34Z</time>
      </trkpt>
      <trkpt lat="43.22575" lon="5.45359">
        <ele>373.13</ele>
        <time>2020-03-15T11:01:45Z</time>
      </trkpt>
      <trkpt lat="43.22574" lon="5.45355">
        <ele>373.13</ele>
        <time>2020-03-15T11:01:48Z</time>
      </trkpt>
      <trkpt lat="43.2257" lon="5.45346">
        <ele>373.13</ele>
        <time>2020-03-15T11:01:56Z</time>
      </trkpt>
      <trkpt lat="43.22569" lon="5.45343">
        <ele>373.13</ele>
        <time>2020-03-15T11:01:58Z</time>
      </trkpt>
      <trkpt lat="43.22562" lon="5.45329">
        <ele>374.09</ele>
        <time>2020-03-15T11:02:13Z</time>
      </trkpt>
      <trkpt lat="43.2256" lon="5.45316">
        <ele>374.57</ele>
        <time>2020-03-15T11:02:23Z</time>
      </trkpt>
      <trkpt lat="43.22559" lon="5.45292">
        <ele>375.05</ele>
        <time>2020-03-15T11:02:40Z</time>
      </trkpt>
      <trkpt lat="43.22563" lon="5.4527">
        <ele>375.53</ele>
        <time>2020-03-15T11:02:56Z</time>
      </trkpt>
      <trkpt lat="43.22568" lon="5.45253">
        <ele>375.05</ele>
        <time>2020-03-15T11:03:10Z</time>
      </trkpt>
      <trkpt lat="43.22569" lon="5.4524">
        <ele>374.57</ele>
        <time>2020-03-15T11:03:22Z</time>
      </trkpt>
      <trkpt lat="43.22566" lon="5.45219">
        <ele>373.13</ele>
        <time>2020-03-15T11:03:38Z</time>
      </trkpt>
      <trkpt lat="43.22561" lon="5.45206">
        <ele>374.57</ele>
        <time>2020-03-15T11:03:50Z</time>
      </trkpt>
      <trkpt lat="43.22551" lon="5.45193">
        <ele>376.01</ele>
        <time>2020-03-15T11:04:05Z</time>
      </trkpt>
      <trkpt lat="43.22542" lon="5.45181">
        <ele>376.01</ele>
        <time>2020-03-15T11:04:18Z</time>
      </trkpt>
      <trkpt lat="43.22533" lon="5.45171">
        <ele>375.53</ele>
        <time>2020-03-15T11:04:31Z</time>
      </trkpt>
      <trkpt lat="43.22524" lon="5.45165">
        <ele>373.13</ele>
        <time>2020-03-15T11:04:46Z</time>
      </trkpt>
      <trkpt lat="43.22521" lon="5.45164">
        <ele>372.17</ele>
        <time>2020-03-15T11:05:01Z</time>
      </trkpt>
      <trkpt lat="43.22512" lon="5.45162">
        <ele>371.69</ele>
        <time>2020-03-15T11:05:11Z</time>
      </trkpt>
      <trkpt lat="43.2251" lon="5.45162">
        <ele>371.69</ele>
        <time>2020-03-15T11:05:13Z</time>
      </trkpt>
      <trkpt lat="43.22502" lon="5.45161">
        <ele>371.21</ele>
        <time>2020-03-15T11:05:21Z</time>
      </trkpt>
      <trkpt lat="43.22488" lon="5.45155">
        <ele>370.24</ele>
        <time>2020-03-15T11:05:36Z</time>
      </trkpt>
      <trkpt lat="43.22474" lon="5.45154">
        <ele>368.32</ele>
        <time>2020-03-15T11:05:51Z</time>
      </trkpt>
      <trkpt lat="43.22463" lon="5.45157">
        <ele>367.84</ele>
        <time>2020-03-15T11:06:05Z</time>
      </trkpt>
      <trkpt lat="43.22453" lon="5.45159">
        <ele>367.36</ele>
        <time>2020-03-15T11:06:19Z</time>
      </trkpt>
      <trkpt lat="43.22443" lon="5.45154">
        <ele>366.4</ele>
        <time>2020-03-15T11:06:32Z</time>
      </trkpt>
      <trkpt lat="43.22441" lon="5.45152">
        <ele>366.88</ele>
        <time>2020-03-15T11:06:35Z</time>
      </trkpt>
      <trkpt lat="43.22433" lon="5.45139">
        <ele>366.4</ele>
        <time>2020-03-15T11:06:49Z</time>
      </trkpt>
      <trkpt lat="43.22424" lon="5.45128">
        <ele>364.96</ele>
        <time>2020-03-15T11:07:04Z</time>
      </trkpt>
      <trkpt lat="43.22415" lon="5.45118">
        <ele>363.52</ele>
        <time>2020-03-15T11:07:17Z</time>
      </trkpt>
      <trkpt lat="43.22406" lon="5.45104">
        <ele>363.04</ele>
        <time>2020-03-15T11:07:30Z</time>
      </trkpt>
      <trkpt lat="43.22395" lon="5.45089">
        <ele>360.63</ele>
        <time>2020-03-15T11:07:47Z</time>
      </trkpt>
      <trkpt lat="43.22384" lon="5.4508">
        <ele>358.71</ele>
        <time>2020-03-15T11:08:01Z</time>
      </trkpt>
      <trkpt lat="43.22372" lon="5.45078">
        <ele>356.79</ele>
        <time>2020-03-15T11:08:14Z</time>
      </trkpt>
      <trkpt lat="43.22359" lon="5.45078">
        <ele>354.86</ele>
        <time>2020-03-15T11:08:28Z</time>
      </trkpt>
      <trkpt lat="43.2235" lon="5.45079">
        <ele>354.86</ele>
        <time>2020-03-15T11:08:38Z</time>
      </trkpt>
      <trkpt lat="43.22348" lon="5.4508">
        <ele>354.86</ele>
        <time>2020-03-15T11:08:40Z</time>
      </trkpt>
      <trkpt lat="43.22341" lon="5.45082">
        <ele>355.34</ele>
        <time>2020-03-15T11:08:51Z</time>
      </trkpt>
      <trkpt lat="43.2233" lon="5.45085">
        <ele>352.94</ele>
        <time>2020-03-15T11:09:03Z</time>
      </trkpt>
      <trkpt lat="43.22318" lon="5.45088">
        <ele>350.54</ele>
        <time>2020-03-15T11:09:16Z</time>
      </trkpt>
      <trkpt lat="43.22307" lon="5.45087">
        <ele>350.06</ele>
        <time>2020-03-15T11:09:28Z</time>
      </trkpt>
      <trkpt lat="43.22296" lon="5.45087">
        <ele>348.62</ele>
        <time>2020-03-15T11:09:38Z</time>
      </trkpt>
      <trkpt lat="43.22289" lon="5.45089">
        <ele>348.13</ele>
        <time>2020-03-15T11:09:45Z</time>
      </trkpt>
      <trkpt lat="43.22276" lon="5.45089">
        <ele>346.69</ele>
        <time>2020-03-15T11:09:58Z</time>
      </trkpt>
      <trkpt lat="43.22264" lon="5.45093">
        <ele>345.73</ele>
        <time>2020-03-15T11:10:11Z</time>
      </trkpt>
      <trkpt lat="43.22251" lon="5.45099">
        <ele>344.29</ele>
        <time>2020-03-15T11:10:25Z</time>
      </trkpt>
      <trkpt lat="43.22245" lon="5.45101">
        <ele>343.33</ele>
        <time>2020-03-15T11:10:31Z</time>
      </trkpt>
      <trkpt lat="43.22232" lon="5.45102">
        <ele>341.41</ele>
        <time>2020-03-15T11:10:44Z</time>
      </trkpt>
      <trkpt lat="43.22219" lon="5.45099">
        <ele>339.96</ele>
        <time>2020-03-15T11:10:58Z</time>
      </trkpt>
      <trkpt lat="43.22206" lon="5.45096">
        <ele>339</ele>
        <time>2020-03-15T11:11:12Z</time>
      </trkpt>
      <trkpt lat="43.22197" lon="5.45094">
        <ele>339</ele>
        <time>2020-03-15T11:11:23Z</time>
      </trkpt>
      <trkpt lat="43.22186" lon="5.45095">
        <ele>339</ele>
        <time>2020-03-15T11:11:36Z</time>
      </trkpt>
      <trkpt lat="43.22184" lon="5.45095">
        <ele>339</ele>
        <time>2020-03-15T11:11:42Z</time>
      </trkpt>
      <trkpt lat="43.2218" lon="5.45094">
        <ele>338.52</ele>
        <time>2020-03-15T11:11:46Z</time>
      </trkpt>
      <trkpt lat="43.22175" lon="5.45094">
        <ele>337.56</ele>
        <time>2020-03-15T11:11:51Z</time>
      </trkpt>
      <trkpt lat="43.22173" lon="5.45094">
        <ele>337.56</ele>
        <time>2020-03-15T11:11:53Z</time>
      </trkpt>
      <trkpt lat="43.22157" lon="5.45093">
        <ele>336.12</ele>
        <time>2020-03-15T11:12:09Z</time>
      </trkpt>
      <trkpt lat="43.2215" lon="5.45089">
        <ele>334.68</ele>
        <time>2020-03-15T11:12:18Z</time>
      </trkpt>
      <trkpt lat="43.22136" lon="5.4509">
        <ele>333.23</ele>
        <time>2020-03-15T11:12:31Z</time>
      </trkpt>
      <trkpt lat="43.22124" lon="5.45095">
        <ele>332.27</ele>
        <time>2020-03-15T11:12:43Z</time>
      </trkpt>
      <trkpt lat="43.22111" lon="5.45099">
        <ele>330.35</ele>
        <time>2020-03-15T11:12:56Z</time>
      </trkpt>
      <trkpt lat="43.22106" lon="5.451">
        <ele>329.39</ele>
        <time>2020-03-15T11:13:02Z</time>
      </trkpt>
      <trkpt lat="43.22096" lon="5.45107">
        <ele>327.95</ele>
        <time>2020-03-15T11:13:12Z</time>
      </trkpt>
      <trkpt lat="43.22088" lon="5.45114">
        <ele>327.95</ele>
        <time>2020-03-15T11:13:27Z</time>
      </trkpt>
      <trkpt lat="43.22087" lon="5.45115">
        <ele>327.95</ele>
        <time>2020-03-15T11:13:28Z</time>
      </trkpt>
      <trkpt lat="43.22078" lon="5.45121">
        <ele>326.99</ele>
        <time>2020-03-15T11:13:38Z</time>
      </trkpt>
      <trkpt lat="43.22066" lon="5.45126">
        <ele>327.47</ele>
        <time>2020-03-15T11:13:51Z</time>
      </trkpt>
      <trkpt lat="43.22063" lon="5.45128">
        <ele>326.99</ele>
        <time>2020-03-15T11:14:06Z</time>
      </trkpt>
      <trkpt lat="43.22058" lon="5.45129">
        <ele>326.5</ele>
        <time>2020-03-15T11:14:20Z</time>
      </trkpt>
      <trkpt lat="43.22058" lon="5.45128">
        <ele>326.02</ele>
        <time>2020-03-15T11:14:23Z</time>
      </trkpt>
      <trkpt lat="43.22048" lon="5.45132">
        <ele>323.62</ele>
        <time>2020-03-15T11:14:39Z</time>
      </trkpt>
      <trkpt lat="43.22042" lon="5.45131">
        <ele>323.62</ele>
        <time>2020-03-15T11:14:55Z</time>
      </trkpt>
      <trkpt lat="43.22039" lon="5.45132">
        <ele>323.62</ele>
        <time>2020-03-15T11:15:20Z</time>
      </trkpt>
      <trkpt lat="43.22031" lon="5.45133">
        <ele>321.7</ele>
        <time>2020-03-15T11:15:32Z</time>
      </trkpt>
      <trkpt lat="43.22025" lon="5.45138">
        <ele>321.7</ele>
        <time>2020-03-15T11:15:43Z</time>
      </trkpt>
      <trkpt lat="43.22021" lon="5.4514">
        <ele>320.74</ele>
        <time>2020-03-15T11:16:00Z</time>
      </trkpt>
      <trkpt lat="43.22007" lon="5.45146">
        <ele>318.33</ele>
        <time>2020-03-15T11:16:16Z</time>
      </trkpt>
      <trkpt lat="43.22006" lon="5.45146">
        <ele>317.37</ele>
        <time>2020-03-15T11:16:30Z</time>
      </trkpt>
      <trkpt lat="43.22005" lon="5.45145">
        <ele>319.3</ele>
        <time>2020-03-15T11:16:50Z</time>
      </trkpt>
      <trkpt lat="43.22002" lon="5.45149">
        <ele>317.85</ele>
        <time>2020-03-15T11:17:08Z</time>
      </trkpt>
      <trkpt lat="43.22001" lon="5.45148">
        <ele>317.37</ele>
        <time>2020-03-15T11:17:25Z</time>
      </trkpt>
      <trkpt lat="43.21998" lon="5.45149">
        <ele>316.89</ele>
        <time>2020-03-15T11:17:39Z</time>
      </trkpt>
      <trkpt lat="43.21996" lon="5.45151">
        <ele>316.89</ele>
        <time>2020-03-15T11:17:41Z</time>
      </trkpt>
      <trkpt lat="43.21992" lon="5.45152">
        <ele>316.41</ele>
        <time>2020-03-15T11:17:46Z</time>
      </trkpt>
      <trkpt lat="43.21991" lon="5.45154">
        <ele>315.93</ele>
        <time>2020-03-15T11:17:48Z</time>
      </trkpt>
      <trkpt lat="43.21989" lon="5.45154">
        <ele>315.93</ele>
        <time>2020-03-15T11:17:50Z</time>
      </trkpt>
      <trkpt lat="43.21976" lon="5.4516">
        <ele>313.53</ele>
        <time>2020-03-15T11:18:05Z</time>
      </trkpt>
      <trkpt lat="43.21975" lon="5.4516">
        <ele>313.05</ele>
        <time>2020-03-15T11:18:06Z</time>
      </trkpt>
      <trkpt lat="43.21969" lon="5.45163">
        <ele>312.09</ele>
        <time>2020-03-15T11:18:13Z</time>
      </trkpt>
      <trkpt lat="43.21963" lon="5.45167">
        <ele>310.64</ele>
        <time>2020-03-15T11:18:20Z</time>
      </trkpt>
      <trkpt lat="43.21961" lon="5.45168">
        <ele>310.16</ele>
        <time>2020-03-15T11:18:22Z</time>
      </trkpt>
      <trkpt lat="43.21956" lon="5.45174">
        <ele>310.64</ele>
        <time>2020-03-15T11:18:37Z</time>
      </trkpt>
      <trkpt lat="43.21953" lon="5.45178">
        <ele>310.16</ele>
        <time>2020-03-15T11:18:43Z</time>
      </trkpt>
      <trkpt lat="43.21943" lon="5.45185">
        <ele>308.24</ele>
        <time>2020-03-15T11:18:53Z</time>
      </trkpt>
      <trkpt lat="43.21933" lon="5.45188">
        <ele>307.28</ele>
        <time>2020-03-15T11:19:08Z</time>
      </trkpt>
      <trkpt lat="43.21918" lon="5.45192">
        <ele>305.84</ele>
        <time>2020-03-15T11:19:23Z</time>
      </trkpt>
      <trkpt lat="43.21915" lon="5.45194">
        <ele>305.84</ele>
        <time>2020-03-15T11:19:26Z</time>
      </trkpt>
      <trkpt lat="43.21913" lon="5.45194">
        <ele>305.36</ele>
        <time>2020-03-15T11:19:28Z</time>
      </trkpt>
      <trkpt lat="43.21903" lon="5.45201">
        <ele>304.88</ele>
        <time>2020-03-15T11:19:38Z</time>
      </trkpt>
      <trkpt lat="43.2189" lon="5.4521">
        <ele>304.39</ele>
        <time>2020-03-15T11:19:52Z</time>
      </trkpt>
      <trkpt lat="43.21889" lon="5.45211">
        <ele>304.39</ele>
        <time>2020-03-15T11:19:54Z</time>
      </trkpt>
      <trkpt lat="43.21879" lon="5.45224">
        <ele>302.95</ele>
        <time>2020-03-15T11:20:08Z</time>
      </trkpt>
      <trkpt lat="43.21877" lon="5.45241">
        <ele>302.95</ele>
        <time>2020-03-15T11:20:21Z</time>
      </trkpt>
      <trkpt lat="43.21879" lon="5.45248">
        <ele>303.91</ele>
        <time>2020-03-15T11:20:27Z</time>
      </trkpt>
      <trkpt lat="43.21885" lon="5.45263">
        <ele>304.39</ele>
        <time>2020-03-15T11:20:41Z</time>
      </trkpt>
      <trkpt lat="43.21887" lon="5.45268">
        <ele>304.88</ele>
        <time>2020-03-15T11:20:55Z</time>
      </trkpt>
      <trkpt lat="43.21887" lon="5.45273">
        <ele>307.28</ele>
        <time>2020-03-15T11:21:16Z</time>
      </trkpt>
      <trkpt lat="43.21888" lon="5.45276">
        <ele>307.28</ele>
        <time>2020-03-15T11:21:19Z</time>
      </trkpt>
      <trkpt lat="43.21889" lon="5.45279">
        <ele>307.28</ele>
        <time>2020-03-15T11:21:22Z</time>
      </trkpt>
      <trkpt lat="43.21891" lon="5.45282">
        <ele>307.28</ele>
        <time>2020-03-15T11:21:25Z</time>
      </trkpt>
      <trkpt lat="43.21891" lon="5.45285">
        <ele>307.28</ele>
        <time>2020-03-15T11:21:27Z</time>
      </trkpt>
      <trkpt lat="43.21898" lon="5.45299">
        <ele>306.32</ele>
        <time>2020-03-15T11:21:40Z</time>
      </trkpt>
      <trkpt lat="43.219" lon="5.45303">
        <ele>306.32</ele>
        <time>2020-03-15T11:21:45Z</time>
      </trkpt>
      <trkpt lat="43.21903" lon="5.4531">
        <ele>305.36</ele>
        <time>2020-03-15T11:22:03Z</time>
      </trkpt>
      <trkpt lat="43.21906" lon="5.45311">
        <ele>304.88</ele>
        <time>2020-03-15T11:22:22Z</time>
      </trkpt>
      <trkpt lat="43.21913" lon="5.45325">
        <ele>305.84</ele>
        <time>2020-03-15T11:22:37Z</time>
      </trkpt>
      <trkpt lat="43.21916" lon="5.45331">
        <ele>306.32</ele>
        <time>2020-03-15T11:22:43Z</time>
      </trkpt>
      <trkpt lat="43.21925" lon="5.45343">
        <ele>306.32</ele>
        <time>2020-03-15T11:22:59Z</time>
      </trkpt>
      <trkpt lat="43.21933" lon="5.45355">
        <ele>308.72</ele>
        <time>2020-03-15T11:23:12Z</time>
      </trkpt>
      <trkpt lat="43.21942" lon="5.45365">
        <ele>309.2</ele>
        <time>2020-03-15T11:23:25Z</time>
      </trkpt>
      <trkpt lat="43.2195" lon="5.45379">
        <ele>309.68</ele>
        <time>2020-03-15T11:23:40Z</time>
      </trkpt>
      <trkpt lat="43.21951" lon="5.45386">
        <ele>309.68</ele>
        <time>2020-03-15T11:23:46Z</time>
      </trkpt>
      <trkpt lat="43.21946" lon="5.45395">
        <ele>310.64</ele>
        <time>2020-03-15T11:23:56Z</time>
      </trkpt>
      <trkpt lat="43.21937" lon="5.454">
        <ele>310.16</ele>
        <time>2020-03-15T11:24:09Z</time>
      </trkpt>
      <trkpt lat="43.21926" lon="5.45402">
        <ele>310.16</ele>
        <time>2020-03-15T11:24:21Z</time>
      </trkpt>
      <trkpt lat="43.21921" lon="5.45404">
        <ele>309.2</ele>
        <time>2020-03-15T11:24:27Z</time>
      </trkpt>
      <trkpt lat="43.21921" lon="5.4541">
        <ele>307.76</ele>
        <time>2020-03-15T11:24:41Z</time>
      </trkpt>
      <trkpt lat="43.2192" lon="5.45411">
        <ele>308.24</ele>
        <time>2020-03-15T11:25:11Z</time>
      </trkpt>
      <trkpt lat="43.21917" lon="5.45411">
        <ele>307.28</ele>
        <time>2020-03-15T11:25:28Z</time>
      </trkpt>
      <trkpt lat="43.21912" lon="5.45412">
        <ele>308.24</ele>
        <time>2020-03-15T11:25:33Z</time>
      </trkpt>
      <trkpt lat="43.2191" lon="5.45412">
        <ele>308.24</ele>
        <time>2020-03-15T11:25:35Z</time>
      </trkpt>
      <trkpt lat="43.21904" lon="5.45415">
        <ele>308.72</ele>
        <time>2020-03-15T11:25:50Z</time>
      </trkpt>
      <trkpt lat="43.21903" lon="5.45416">
        <ele>308.72</ele>
        <time>2020-03-15T11:25:55Z</time>
      </trkpt>
      <trkpt lat="43.21895" lon="5.45419">
        <ele>306.32</ele>
        <time>2020-03-15T11:26:10Z</time>
      </trkpt>
      <trkpt lat="43.21894" lon="5.45418">
        <ele>306.32</ele>
        <time>2020-03-15T11:26:13Z</time>
      </trkpt>
      <trkpt lat="43.21884" lon="5.45416">
        <ele>305.36</ele>
        <time>2020-03-15T11:26:26Z</time>
      </trkpt>
      <trkpt lat="43.21879" lon="5.45417">
        <ele>304.88</ele>
        <time>2020-03-15T11:26:38Z</time>
      </trkpt>
      <trkpt lat="43.21868" lon="5.4542">
        <ele>303.91</ele>
        <time>2020-03-15T11:26:51Z</time>
      </trkpt>
      <trkpt lat="43.21852" lon="5.45427">
        <ele>301.51</ele>
        <time>2020-03-15T11:27:09Z</time>
      </trkpt>
      <trkpt lat="43.21843" lon="5.45429">
        <ele>300.55</ele>
        <time>2020-03-15T11:27:18Z</time>
      </trkpt>
      <trkpt lat="43.2183" lon="5.45425">
        <ele>300.07</ele>
        <time>2020-03-15T11:27:32Z</time>
      </trkpt>
      <trkpt lat="43.21819" lon="5.45418">
        <ele>301.03</ele>
        <time>2020-03-15T11:27:46Z</time>
      </trkpt>
      <trkpt lat="43.21805" lon="5.45413">
        <ele>301.99</ele>
        <time>2020-03-15T11:28:02Z</time>
      </trkpt>
      <trkpt lat="43.21792" lon="5.4541">
        <ele>302.47</ele>
        <time>2020-03-15T11:28:16Z</time>
      </trkpt>
      <trkpt lat="43.21781" lon="5.45408">
        <ele>301.51</ele>
        <time>2020-03-15T11:28:30Z</time>
      </trkpt>
      <trkpt lat="43.21774" lon="5.45407">
        <ele>302.47</ele>
        <time>2020-03-15T11:28:45Z</time>
      </trkpt>
      <trkpt lat="43.21762" lon="5.45406">
        <ele>300.07</ele>
        <time>2020-03-15T11:28:59Z</time>
      </trkpt>
      <trkpt lat="43.21759" lon="5.45408">
        <ele>299.11</ele>
        <time>2020-03-15T11:29:02Z</time>
      </trkpt>
      <trkpt lat="43.21755" lon="5.45421">
        <ele>302.95</ele>
        <time>2020-03-15T11:29:14Z</time>
      </trkpt>
      <trkpt lat="43.21756" lon="5.45424">
        <ele>305.84</ele>
        <time>2020-03-15T11:29:27Z</time>
      </trkpt>
      <trkpt lat="43.21756" lon="5.45423">
        <ele>304.39</ele>
        <time>2020-03-15T11:30:01Z</time>
      </trkpt>
      <trkpt lat="43.21755" lon="5.45423">
        <ele>304.39</ele>
        <time>2020-03-15T11:30:27Z</time>
      </trkpt>
      <trkpt lat="43.21754" lon="5.45423">
        <ele>303.91</ele>
        <time>2020-03-15T11:30:50Z</time>
      </trkpt>
      <trkpt lat="43.21755" lon="5.45423">
        <ele>305.36</ele>
        <time>2020-03-15T11:31:09Z</time>
      </trkpt>
      <trkpt lat="43.21754" lon="5.45423">
        <ele>306.8</ele>
        <time>2020-03-15T11:31:26Z</time>
      </trkpt>
      <trkpt lat="43.21756" lon="5.45418">
        <ele>304.39</ele>
        <time>2020-03-15T11:31:40Z</time>
      </trkpt>
      <trkpt lat="43.21756" lon="5.45409">
        <ele>299.59</ele>
        <time>2020-03-15T11:31:53Z</time>
      </trkpt>
      <trkpt lat="43.21757" lon="5.45407">
        <ele>299.11</ele>
        <time>2020-03-15T11:31:54Z</time>
      </trkpt>
      <trkpt lat="43.21755" lon="5.45404">
        <ele>299.11</ele>
        <time>2020-03-15T11:31:57Z</time>
      </trkpt>
      <trkpt lat="43.21743" lon="5.454">
        <ele>297.18</ele>
        <time>2020-03-15T11:32:08Z</time>
      </trkpt>
      <trkpt lat="43.21738" lon="5.45398">
        <ele>297.18</ele>
        <time>2020-03-15T11:32:12Z</time>
      </trkpt>
      <trkpt lat="43.2173" lon="5.45396">
        <ele>296.22</ele>
        <time>2020-03-15T11:32:20Z</time>
      </trkpt>
      <trkpt lat="43.21724" lon="5.45393">
        <ele>295.26</ele>
        <time>2020-03-15T11:32:25Z</time>
      </trkpt>
      <trkpt lat="43.21716" lon="5.4539">
        <ele>294.78</ele>
        <time>2020-03-15T11:32:32Z</time>
      </trkpt>
      <trkpt lat="43.21712" lon="5.4539">
        <ele>293.82</ele>
        <time>2020-03-15T11:32:35Z</time>
      </trkpt>
      <trkpt lat="43.21698" lon="5.45395">
        <ele>292.38</ele>
        <time>2020-03-15T11:32:47Z</time>
      </trkpt>
      <trkpt lat="43.21692" lon="5.45398">
        <ele>290.46</ele>
        <time>2020-03-15T11:32:53Z</time>
      </trkpt>
      <trkpt lat="43.2169" lon="5.45398">
        <ele>289.97</ele>
        <time>2020-03-15T11:32:55Z</time>
      </trkpt>
      <trkpt lat="43.21676" lon="5.45397">
        <ele>286.61</ele>
        <time>2020-03-15T11:33:08Z</time>
      </trkpt>
      <trkpt lat="43.21672" lon="5.45398">
        <ele>286.61</ele>
        <time>2020-03-15T11:33:12Z</time>
      </trkpt>
      <trkpt lat="43.21669" lon="5.454">
        <ele>286.13</ele>
        <time>2020-03-15T11:33:15Z</time>
      </trkpt>
      <trkpt lat="43.21668" lon="5.45405">
        <ele>286.13</ele>
        <time>2020-03-15T11:33:18Z</time>
      </trkpt>
      <trkpt lat="43.21663" lon="5.45409">
        <ele>286.61</ele>
        <time>2020-03-15T11:33:24Z</time>
      </trkpt>
      <trkpt lat="43.2166" lon="5.45409">
        <ele>286.13</ele>
        <time>2020-03-15T11:33:26Z</time>
      </trkpt>
      <trkpt lat="43.21655" lon="5.45411">
        <ele>285.65</ele>
        <time>2020-03-15T11:33:31Z</time>
      </trkpt>
      <trkpt lat="43.21645" lon="5.45417">
        <ele>284.21</ele>
        <time>2020-03-15T11:33:42Z</time>
      </trkpt>
      <trkpt lat="43.21634" lon="5.45428">
        <ele>281.32</ele>
        <time>2020-03-15T11:33:55Z</time>
      </trkpt>
      <trkpt lat="43.21624" lon="5.45439">
        <ele>280.36</ele>
        <time>2020-03-15T11:34:06Z</time>
      </trkpt>
      <trkpt lat="43.21623" lon="5.45442">
        <ele>279.88</ele>
        <time>2020-03-15T11:34:08Z</time>
      </trkpt>
      <trkpt lat="43.2162" lon="5.45447">
        <ele>278.92</ele>
        <time>2020-03-15T11:34:12Z</time>
      </trkpt>
      <trkpt lat="43.21609" lon="5.4546">
        <ele>276.04</ele>
        <time>2020-03-15T11:34:25Z</time>
      </trkpt>
      <trkpt lat="43.21606" lon="5.45462">
        <ele>275.07</ele>
        <time>2020-03-15T11:34:36Z</time>
      </trkpt>
      <trkpt lat="43.21605" lon="5.45464">
        <ele>275.56</ele>
        <time>2020-03-15T11:34:49Z</time>
      </trkpt>
      <trkpt lat="43.21603" lon="5.45466">
        <ele>275.07</ele>
        <time>2020-03-15T11:34:51Z</time>
      </trkpt>
      <trkpt lat="43.21602" lon="5.45467">
        <ele>274.59</ele>
        <time>2020-03-15T11:34:53Z</time>
      </trkpt>
      <trkpt lat="43.21597" lon="5.45471">
        <ele>272.67</ele>
        <time>2020-03-15T11:35:06Z</time>
      </trkpt>
      <trkpt lat="43.21601" lon="5.45476">
        <ele>273.63</ele>
        <time>2020-03-15T11:35:21Z</time>
      </trkpt>
      <trkpt lat="43.21608" lon="5.45483">
        <ele>273.63</ele>
        <time>2020-03-15T11:35:33Z</time>
      </trkpt>
      <trkpt lat="43.21611" lon="5.45486">
        <ele>276.04</ele>
        <time>2020-03-15T11:35:40Z</time>
      </trkpt>
      <trkpt lat="43.21612" lon="5.45489">
        <ele>276.52</ele>
        <time>2020-03-15T11:35:43Z</time>
      </trkpt>
      <trkpt lat="43.21617" lon="5.45497">
        <ele>277.48</ele>
        <time>2020-03-15T11:35:56Z</time>
      </trkpt>
      <trkpt lat="43.21619" lon="5.45509">
        <ele>279.88</ele>
        <time>2020-03-15T11:36:10Z</time>
      </trkpt>
      <trkpt lat="43.21619" lon="5.45518">
        <ele>280.36</ele>
        <time>2020-03-15T11:36:23Z</time>
      </trkpt>
      <trkpt lat="43.2162" lon="5.45528">
        <ele>279.88</ele>
        <time>2020-03-15T11:36:41Z</time>
      </trkpt>
      <trkpt lat="43.21621" lon="5.4553">
        <ele>280.84</ele>
        <time>2020-03-15T11:36:44Z</time>
      </trkpt>
      <trkpt lat="43.21623" lon="5.45537">
        <ele>281.8</ele>
        <time>2020-03-15T11:36:50Z</time>
      </trkpt>
      <trkpt lat="43.21624" lon="5.45542">
        <ele>282.77</ele>
        <time>2020-03-15T11:36:55Z</time>
      </trkpt>
      <trkpt lat="43.21627" lon="5.45552">
        <ele>282.28</ele>
        <time>2020-03-15T11:37:08Z</time>
      </trkpt>
      <trkpt lat="43.21629" lon="5.45557">
        <ele>283.73</ele>
        <time>2020-03-15T11:37:19Z</time>
      </trkpt>
      <trkpt lat="43.2163" lon="5.45564">
        <ele>287.09</ele>
        <time>2020-03-15T11:37:34Z</time>
      </trkpt>
      <trkpt lat="43.21631" lon="5.45564">
        <ele>288.53</ele>
        <time>2020-03-15T11:37:57Z</time>
      </trkpt>
      <trkpt lat="43.21633" lon="5.45572">
        <ele>289.97</ele>
        <time>2020-03-15T11:38:10Z</time>
      </trkpt>
      <trkpt lat="43.21634" lon="5.45577">
        <ele>289.97</ele>
        <time>2020-03-15T11:38:16Z</time>
      </trkpt>
      <trkpt lat="43.21637" lon="5.45594">
        <ele>291.42</ele>
        <time>2020-03-15T11:38:32Z</time>
      </trkpt>
      <trkpt lat="43.21639" lon="5.45609">
        <ele>292.86</ele>
        <time>2020-03-15T11:38:47Z</time>
      </trkpt>
      <trkpt lat="43.21643" lon="5.45621">
        <ele>293.34</ele>
        <time>2020-03-15T11:39:00Z</time>
      </trkpt>
      <trkpt lat="43.21643" lon="5.45627">
        <ele>294.3</ele>
        <time>2020-03-15T11:39:05Z</time>
      </trkpt>
      <trkpt lat="43.21643" lon="5.45633">
        <ele>294.3</ele>
        <time>2020-03-15T11:39:10Z</time>
      </trkpt>
      <trkpt lat="43.21646" lon="5.45647">
        <ele>295.26</ele>
        <time>2020-03-15T11:39:26Z</time>
      </trkpt>
      <trkpt lat="43.21646" lon="5.45652">
        <ele>295.74</ele>
        <time>2020-03-15T11:39:31Z</time>
      </trkpt>
      <trkpt lat="43.21652" lon="5.45666">
        <ele>298.15</ele>
        <time>2020-03-15T11:39:46Z</time>
      </trkpt>
      <trkpt lat="43.2166" lon="5.4568">
        <ele>299.59</ele>
        <time>2020-03-15T11:40:03Z</time>
      </trkpt>
      <trkpt lat="43.21665" lon="5.45691">
        <ele>300.55</ele>
        <time>2020-03-15T11:40:15Z</time>
      </trkpt>
      <trkpt lat="43.21668" lon="5.45697">
        <ele>303.43</ele>
        <time>2020-03-15T11:40:28Z</time>
      </trkpt>
      <trkpt lat="43.2167" lon="5.457">
        <ele>303.91</ele>
        <time>2020-03-15T11:40:35Z</time>
      </trkpt>
      <trkpt lat="43.21678" lon="5.45709">
        <ele>305.36</ele>
        <time>2020-03-15T11:40:48Z</time>
      </trkpt>
      <trkpt lat="43.21682" lon="5.45712">
        <ele>305.84</ele>
        <time>2020-03-15T11:40:53Z</time>
      </trkpt>
      <trkpt lat="43.21687" lon="5.4572">
        <ele>305.36</ele>
        <time>2020-03-15T11:41:07Z</time>
      </trkpt>
      <trkpt lat="43.21694" lon="5.45729">
        <ele>304.39</ele>
        <time>2020-03-15T11:41:19Z</time>
      </trkpt>
      <trkpt lat="43.21698" lon="5.45732">
        <ele>305.36</ele>
        <time>2020-03-15T11:41:33Z</time>
      </trkpt>
      <trkpt lat="43.21697" lon="5.45731">
        <ele>307.76</ele>
        <time>2020-03-15T11:42:02Z</time>
      </trkpt>
      <trkpt lat="43.21696" lon="5.45729">
        <ele>310.64</ele>
        <time>2020-03-15T11:42:32Z</time>
      </trkpt>
      <trkpt lat="43.217" lon="5.45726">
        <ele>311.12</ele>
        <time>2020-03-15T11:43:03Z</time>
      </trkpt>
      <trkpt lat="43.21698" lon="5.45733">
        <ele>309.68</ele>
        <time>2020-03-15T11:43:26Z</time>
      </trkpt>
      <trkpt lat="43.217" lon="5.45736">
        <ele>309.68</ele>
        <time>2020-03-15T11:43:42Z</time>
      </trkpt>
      <trkpt lat="43.21704" lon="5.45739">
        <ele>309.68</ele>
        <time>2020-03-15T11:43:56Z</time>
      </trkpt>
      <trkpt lat="43.21705" lon="5.45739">
        <ele>307.76</ele>
        <time>2020-03-15T11:44:20Z</time>
      </trkpt>
      <trkpt lat="43.21708" lon="5.45743">
        <ele>309.2</ele>
        <time>2020-03-15T11:44:34Z</time>
      </trkpt>
      <trkpt lat="43.21708" lon="5.45754">
        <ele>311.12</ele>
        <time>2020-03-15T11:44:47Z</time>
      </trkpt>
      <trkpt lat="43.21713" lon="5.45763">
        <ele>311.6</ele>
        <time>2020-03-15T11:45:01Z</time>
      </trkpt>
      <trkpt lat="43.21714" lon="5.45768">
        <ele>313.05</ele>
        <time>2020-03-15T11:45:11Z</time>
      </trkpt>
      <trkpt lat="43.21715" lon="5.4577">
        <ele>315.45</ele>
        <time>2020-03-15T11:45:24Z</time>
      </trkpt>
      <trkpt lat="43.21717" lon="5.45775">
        <ele>316.89</ele>
        <time>2020-03-15T11:45:35Z</time>
      </trkpt>
      <trkpt lat="43.21717" lon="5.45776">
        <ele>317.37</ele>
        <time>2020-03-15T11:45:37Z</time>
      </trkpt>
      <trkpt lat="43.21721" lon="5.45782">
        <ele>319.78</ele>
        <time>2020-03-15T11:45:48Z</time>
      </trkpt>
      <trkpt lat="43.21723" lon="5.45782">
        <ele>322.18</ele>
        <time>2020-03-15T11:45:58Z</time>
      </trkpt>
      <trkpt lat="43.21723" lon="5.45783">
        <ele>325.54</ele>
        <time>2020-03-15T11:46:10Z</time>
      </trkpt>
      <trkpt lat="43.21728" lon="5.45784">
        <ele>326.5</ele>
        <time>2020-03-15T11:46:23Z</time>
      </trkpt>
      <trkpt lat="43.21731" lon="5.45781">
        <ele>329.39</ele>
        <time>2020-03-15T11:46:35Z</time>
      </trkpt>
      <trkpt lat="43.21731" lon="5.45779">
        <ele>331.79</ele>
        <time>2020-03-15T11:46:50Z</time>
      </trkpt>
      <trkpt lat="43.21735" lon="5.45776">
        <ele>331.31</ele>
        <time>2020-03-15T11:47:07Z</time>
      </trkpt>
      <trkpt lat="43.21736" lon="5.45777">
        <ele>331.79</ele>
        <time>2020-03-15T11:47:29Z</time>
      </trkpt>
      <trkpt lat="43.21737" lon="5.45775">
        <ele>333.23</ele>
        <time>2020-03-15T11:47:46Z</time>
      </trkpt>
      <trkpt lat="43.21739" lon="5.45772">
        <ele>329.87</ele>
        <time>2020-03-15T11:48:05Z</time>
      </trkpt>
      <trkpt lat="43.21738" lon="5.45776">
        <ele>331.79</ele>
        <time>2020-03-15T11:48:22Z</time>
      </trkpt>
      <trkpt lat="43.21739" lon="5.45775">
        <ele>335.16</ele>
        <time>2020-03-15T11:48:50Z</time>
      </trkpt>
      <trkpt lat="43.21742" lon="5.45778">
        <ele>339</ele>
        <time>2020-03-15T11:49:01Z</time>
      </trkpt>
      <trkpt lat="43.21743" lon="5.45779">
        <ele>339.96</ele>
        <time>2020-03-15T11:49:06Z</time>
      </trkpt>
      <trkpt lat="43.21745" lon="5.45782">
        <ele>340.92</ele>
        <time>2020-03-15T11:49:15Z</time>
      </trkpt>
      <trkpt lat="43.2175" lon="5.45786">
        <ele>342.37</ele>
        <time>2020-03-15T11:49:22Z</time>
      </trkpt>
      <trkpt lat="43.21753" lon="5.45782">
        <ele>343.81</ele>
        <time>2020-03-15T11:49:34Z</time>
      </trkpt>
      <trkpt lat="43.21757" lon="5.45782">
        <ele>348.62</ele>
        <time>2020-03-15T11:49:45Z</time>
      </trkpt>
      <trkpt lat="43.2176" lon="5.45779">
        <ele>348.62</ele>
        <time>2020-03-15T11:49:58Z</time>
      </trkpt>
      <trkpt lat="43.21763" lon="5.45778">
        <ele>349.58</ele>
        <time>2020-03-15T11:50:16Z</time>
      </trkpt>
      <trkpt lat="43.21765" lon="5.45776">
        <ele>349.1</ele>
        <time>2020-03-15T11:50:30Z</time>
      </trkpt>
      <trkpt lat="43.21766" lon="5.4577">
        <ele>345.25</ele>
        <time>2020-03-15T11:50:46Z</time>
      </trkpt>
      <trkpt lat="43.21767" lon="5.45772">
        <ele>350.06</ele>
        <time>2020-03-15T11:51:06Z</time>
      </trkpt>
      <trkpt lat="43.21765" lon="5.4577">
        <ele>355.34</ele>
        <time>2020-03-15T11:51:34Z</time>
      </trkpt>
      <trkpt lat="43.21761" lon="5.45772">
        <ele>359.19</ele>
        <time>2020-03-15T11:51:57Z</time>
      </trkpt>
      <trkpt lat="43.21763" lon="5.45773">
        <ele>361.11</ele>
        <time>2020-03-15T11:52:25Z</time>
      </trkpt>
      <trkpt lat="43.21768" lon="5.4578">
        <ele>355.83</ele>
        <time>2020-03-15T11:52:39Z</time>
      </trkpt>
      <trkpt lat="43.21771" lon="5.45782">
        <ele>354.38</ele>
        <time>2020-03-15T11:52:51Z</time>
      </trkpt>
      <trkpt lat="43.21773" lon="5.45781">
        <ele>353.42</ele>
        <time>2020-03-15T11:53:03Z</time>
      </trkpt>
      <trkpt lat="43.21776" lon="5.45781">
        <ele>354.38</ele>
        <time>2020-03-15T11:53:14Z</time>
      </trkpt>
      <trkpt lat="43.21775" lon="5.45781">
        <ele>355.34</ele>
        <time>2020-03-15T11:53:27Z</time>
      </trkpt>
      <trkpt lat="43.21777" lon="5.45782">
        <ele>355.83</ele>
        <time>2020-03-15T11:53:39Z</time>
      </trkpt>
      <trkpt lat="43.21779" lon="5.45785">
        <ele>355.34</ele>
        <time>2020-03-15T11:53:48Z</time>
      </trkpt>
      <trkpt lat="43.21781" lon="5.45778">
        <ele>357.75</ele>
        <time>2020-03-15T11:54:01Z</time>
      </trkpt>
      <trkpt lat="43.21776" lon="5.45775">
        <ele>361.11</ele>
        <time>2020-03-15T11:54:16Z</time>
      </trkpt>
      <trkpt lat="43.21778" lon="5.45774">
        <ele>355.83</ele>
        <time>2020-03-15T11:54:41Z</time>
      </trkpt>
      <trkpt lat="43.21778" lon="5.45772">
        <ele>354.86</ele>
        <time>2020-03-15T11:55:00Z</time>
      </trkpt>
      <trkpt lat="43.21777" lon="5.45775">
        <ele>353.42</ele>
        <time>2020-03-15T11:55:34Z</time>
      </trkpt>
      <trkpt lat="43.21779" lon="5.45777">
        <ele>353.9</ele>
        <time>2020-03-15T11:55:50Z</time>
      </trkpt>
      <trkpt lat="43.2178" lon="5.45781">
        <ele>356.79</ele>
        <time>2020-03-15T11:56:13Z</time>
      </trkpt>
      <trkpt lat="43.21777" lon="5.45777">
        <ele>360.15</ele>
        <time>2020-03-15T11:56:26Z</time>
      </trkpt>
      <trkpt lat="43.21769" lon="5.45769">
        <ele>370.73</ele>
        <time>2020-03-15T11:56:48Z</time>
      </trkpt>
      <trkpt lat="43.21772" lon="5.45766">
        <ele>377.45</ele>
        <time>2020-03-15T11:57:14Z</time>
      </trkpt>
      <trkpt lat="43.21772" lon="5.45772">
        <ele>378.42</ele>
        <time>2020-03-15T11:57:35Z</time>
      </trkpt>
      <trkpt lat="43.21776" lon="5.45777">
        <ele>377.45</ele>
        <time>2020-03-15T11:57:46Z</time>
      </trkpt>
      <trkpt lat="43.21779" lon="5.4578">
        <ele>377.94</ele>
        <time>2020-03-15T11:57:55Z</time>
      </trkpt>
      <trkpt lat="43.21788" lon="5.45781">
        <ele>375.05</ele>
        <time>2020-03-15T11:58:08Z</time>
      </trkpt>
      <trkpt lat="43.21787" lon="5.4578">
        <ele>375.53</ele>
        <time>2020-03-15T11:58:21Z</time>
      </trkpt>
      <trkpt lat="43.21783" lon="5.45777">
        <ele>387.07</ele>
        <time>2020-03-15T11:58:36Z</time>
      </trkpt>
      <trkpt lat="43.2179" lon="5.45778">
        <ele>390.43</ele>
        <time>2020-03-15T11:58:47Z</time>
      </trkpt>
      <trkpt lat="43.21792" lon="5.4578">
        <ele>393.8</ele>
        <time>2020-03-15T11:58:59Z</time>
      </trkpt>
      <trkpt lat="43.218" lon="5.45783">
        <ele>389.47</ele>
        <time>2020-03-15T11:59:11Z</time>
      </trkpt>
      <trkpt lat="43.21804" lon="5.45788">
        <ele>387.07</ele>
        <time>2020-03-15T11:59:26Z</time>
      </trkpt>
      <trkpt lat="43.21806" lon="5.45791">
        <ele>382.26</ele>
        <time>2020-03-15T11:59:48Z</time>
      </trkpt>
      <trkpt lat="43.21807" lon="5.45785">
        <ele>375.05</ele>
        <time>2020-03-15T12:00:05Z</time>
      </trkpt>
      <trkpt lat="43.21808" lon="5.45788">
        <ele>374.57</ele>
        <time>2020-03-15T12:00:26Z</time>
      </trkpt>
      <trkpt lat="43.2181" lon="5.45791">
        <ele>376.01</ele>
        <time>2020-03-15T12:00:38Z</time>
      </trkpt>
      <trkpt lat="43.21807" lon="5.45795">
        <ele>379.38</ele>
        <time>2020-03-15T12:00:51Z</time>
      </trkpt>
      <trkpt lat="43.21807" lon="5.45797">
        <ele>382.26</ele>
        <time>2020-03-15T12:01:12Z</time>
      </trkpt>
      <trkpt lat="43.21811" lon="5.45798">
        <ele>380.82</ele>
        <time>2020-03-15T12:01:27Z</time>
      </trkpt>
      <trkpt lat="43.21812" lon="5.45799">
        <ele>381.3</ele>
        <time>2020-03-15T12:01:51Z</time>
      </trkpt>
      <trkpt lat="43.21813" lon="5.458">
        <ele>383.7</ele>
        <time>2020-03-15T12:02:01Z</time>
      </trkpt>
      <trkpt lat="43.2181" lon="5.45798">
        <ele>387.07</ele>
        <time>2020-03-15T12:02:17Z</time>
      </trkpt>
      <trkpt lat="43.2181" lon="5.45797">
        <ele>388.03</ele>
        <time>2020-03-15T12:02:30Z</time>
      </trkpt>
      <trkpt lat="43.21808" lon="5.45794">
        <ele>384.66</ele>
        <time>2020-03-15T12:02:51Z</time>
      </trkpt>
      <trkpt lat="43.21808" lon="5.45794">
        <ele>384.18</ele>
        <time>2020-03-15T12:02:56Z</time>
      </trkpt>
      <trkpt lat="43.21809" lon="5.45799">
        <ele>385.15</ele>
        <time>2020-03-15T12:03:09Z</time>
      </trkpt>
      <trkpt lat="43.21811" lon="5.45801">
        <ele>386.11</ele>
        <time>2020-03-15T12:03:24Z</time>
      </trkpt>
      <trkpt lat="43.21813" lon="5.45797">
        <ele>388.99</ele>
        <time>2020-03-15T12:03:51Z</time>
      </trkpt>
      <trkpt lat="43.21814" lon="5.45796">
        <ele>388.99</ele>
        <time>2020-03-15T12:04:06Z</time>
      </trkpt>
      <trkpt lat="43.21813" lon="5.45799">
        <ele>389.95</ele>
        <time>2020-03-15T12:04:28Z</time>
      </trkpt>
      <trkpt lat="43.21811" lon="5.45798">
        <ele>392.36</ele>
        <time>2020-03-15T12:04:46Z</time>
      </trkpt>
      <trkpt lat="43.21805" lon="5.45798">
        <ele>396.68</ele>
        <time>2020-03-15T12:05:02Z</time>
      </trkpt>
      <trkpt lat="43.21811" lon="5.45805">
        <ele>389.47</ele>
        <time>2020-03-15T12:05:17Z</time>
      </trkpt>
      <trkpt lat="43.21811" lon="5.45806">
        <ele>388.03</ele>
        <time>2020-03-15T12:05:27Z</time>
      </trkpt>
      <trkpt lat="43.21803" lon="5.45805">
        <ele>386.11</ele>
        <time>2020-03-15T12:05:39Z</time>
      </trkpt>
      <trkpt lat="43.218" lon="5.45806">
        <ele>383.7</ele>
        <time>2020-03-15T12:05:44Z</time>
      </trkpt>
      <trkpt lat="43.21795" lon="5.45806">
        <ele>381.78</ele>
        <time>2020-03-15T12:05:49Z</time>
      </trkpt>
      <trkpt lat="43.21791" lon="5.45813">
        <ele>381.78</ele>
        <time>2020-03-15T12:06:00Z</time>
      </trkpt>
      <trkpt lat="43.21793" lon="5.45809">
        <ele>381.78</ele>
        <time>2020-03-15T12:06:04Z</time>
      </trkpt>
      <trkpt lat="43.21796" lon="5.45809">
        <ele>382.26</ele>
        <time>2020-03-15T12:06:06Z</time>
      </trkpt>
      <trkpt lat="43.21807" lon="5.45809">
        <ele>382.74</ele>
        <time>2020-03-15T12:06:19Z</time>
      </trkpt>
      <trkpt lat="43.21808" lon="5.4581">
        <ele>383.7</ele>
        <time>2020-03-15T12:06:35Z</time>
      </trkpt>
      <trkpt lat="43.21808" lon="5.45809">
        <ele>381.3</ele>
        <time>2020-03-15T12:06:50Z</time>
      </trkpt>
      <trkpt lat="43.21808" lon="5.45812">
        <ele>386.11</ele>
        <time>2020-03-15T12:07:35Z</time>
      </trkpt>
      <trkpt lat="43.21835" lon="5.45784">
        <ele>452.92</ele>
        <time>2020-03-15T12:43:45Z</time>
      </trkpt>
      <trkpt lat="43.21814" lon="5.45802">
        <ele>406.29</ele>
        <time>2020-03-15T12:44:11Z</time>
      </trkpt>
      <trkpt lat="43.2181" lon="5.45799">
        <ele>404.85</ele>
        <time>2020-03-15T12:44:20Z</time>
      </trkpt>
      <trkpt lat="43.2181" lon="5.458">
        <ele>404.37</ele>
        <time>2020-03-15T12:44:27Z</time>
      </trkpt>
      <trkpt lat="43.21803" lon="5.45799">
        <ele>394.28</ele>
        <time>2020-03-15T12:44:41Z</time>
      </trkpt>
      <trkpt lat="43.21799" lon="5.45802">
        <ele>391.87</ele>
        <time>2020-03-15T12:44:54Z</time>
      </trkpt>
      <trkpt lat="43.21797" lon="5.45805">
        <ele>393.8</ele>
        <time>2020-03-15T12:45:11Z</time>
      </trkpt>
      <trkpt lat="43.21794" lon="5.45803">
        <ele>390.43</ele>
        <time>2020-03-15T12:45:24Z</time>
      </trkpt>
      <trkpt lat="43.21789" lon="5.45806">
        <ele>388.99</ele>
        <time>2020-03-15T12:45:38Z</time>
      </trkpt>
      <trkpt lat="43.21789" lon="5.45808">
        <ele>392.84</ele>
        <time>2020-03-15T12:46:05Z</time>
      </trkpt>
      <trkpt lat="43.21789" lon="5.4581">
        <ele>394.28</ele>
        <time>2020-03-15T12:46:27Z</time>
      </trkpt>
      <trkpt lat="43.21789" lon="5.45815">
        <ele>392.84</ele>
        <time>2020-03-15T12:46:37Z</time>
      </trkpt>
      <trkpt lat="43.21786" lon="5.45821">
        <ele>390.91</ele>
        <time>2020-03-15T12:46:48Z</time>
      </trkpt>
      <trkpt lat="43.21788" lon="5.45833">
        <ele>384.66</ele>
        <time>2020-03-15T12:47:01Z</time>
      </trkpt>
      <trkpt lat="43.2179" lon="5.45841">
        <ele>383.22</ele>
        <time>2020-03-15T12:47:12Z</time>
      </trkpt>
      <trkpt lat="43.21788" lon="5.45846">
        <ele>382.74</ele>
        <time>2020-03-15T12:47:24Z</time>
      </trkpt>
      <trkpt lat="43.2179" lon="5.45848">
        <ele>381.78</ele>
        <time>2020-03-15T12:47:37Z</time>
      </trkpt>
      <trkpt lat="43.21792" lon="5.45854">
        <ele>381.3</ele>
        <time>2020-03-15T12:47:54Z</time>
      </trkpt>
      <trkpt lat="43.21793" lon="5.45853">
        <ele>381.78</ele>
        <time>2020-03-15T12:48:03Z</time>
      </trkpt>
      <trkpt lat="43.21792" lon="5.45856">
        <ele>382.26</ele>
        <time>2020-03-15T12:48:07Z</time>
      </trkpt>
      <trkpt lat="43.21791" lon="5.45859">
        <ele>383.22</ele>
        <time>2020-03-15T12:48:19Z</time>
      </trkpt>
      <trkpt lat="43.21789" lon="5.45859">
        <ele>388.51</ele>
        <time>2020-03-15T12:48:44Z</time>
      </trkpt>
      <trkpt lat="43.21788" lon="5.45859">
        <ele>391.87</ele>
        <time>2020-03-15T12:49:07Z</time>
      </trkpt>
      <trkpt lat="43.21785" lon="5.45859">
        <ele>390.91</ele>
        <time>2020-03-15T12:49:13Z</time>
      </trkpt>
      <trkpt lat="43.21783" lon="5.45859">
        <ele>386.59</ele>
        <time>2020-03-15T12:49:19Z</time>
      </trkpt>
      <trkpt lat="43.21778" lon="5.45857">
        <ele>384.18</ele>
        <time>2020-03-15T12:49:32Z</time>
      </trkpt>
      <trkpt lat="43.21771" lon="5.45856">
        <ele>383.7</ele>
        <time>2020-03-15T12:49:46Z</time>
      </trkpt>
      <trkpt lat="43.21763" lon="5.45855">
        <ele>384.66</ele>
        <time>2020-03-15T12:49:58Z</time>
      </trkpt>
      <trkpt lat="43.21752" lon="5.45855">
        <ele>386.59</ele>
        <time>2020-03-15T12:50:12Z</time>
      </trkpt>
      <trkpt lat="43.21747" lon="5.45858">
        <ele>386.59</ele>
        <time>2020-03-15T12:50:24Z</time>
      </trkpt>
      <trkpt lat="43.21741" lon="5.4587">
        <ele>384.66</ele>
        <time>2020-03-15T12:50:37Z</time>
      </trkpt>
      <trkpt lat="43.21735" lon="5.45877">
        <ele>382.74</ele>
        <time>2020-03-15T12:50:49Z</time>
      </trkpt>
      <trkpt lat="43.21727" lon="5.45877">
        <ele>381.3</ele>
        <time>2020-03-15T12:51:01Z</time>
      </trkpt>
      <trkpt lat="43.21725" lon="5.45877">
        <ele>381.78</ele>
        <time>2020-03-15T12:51:08Z</time>
      </trkpt>
      <trkpt lat="43.21716" lon="5.4588">
        <ele>381.3</ele>
        <time>2020-03-15T12:51:19Z</time>
      </trkpt>
      <trkpt lat="43.21714" lon="5.45879">
        <ele>380.34</ele>
        <time>2020-03-15T12:51:25Z</time>
      </trkpt>
      <trkpt lat="43.21711" lon="5.45881">
        <ele>380.34</ele>
        <time>2020-03-15T12:51:29Z</time>
      </trkpt>
      <trkpt lat="43.21705" lon="5.45882">
        <ele>379.86</ele>
        <time>2020-03-15T12:51:34Z</time>
      </trkpt>
      <trkpt lat="43.21698" lon="5.4588">
        <ele>379.86</ele>
        <time>2020-03-15T12:51:40Z</time>
      </trkpt>
      <trkpt lat="43.21688" lon="5.45887">
        <ele>378.42</ele>
        <time>2020-03-15T12:51:48Z</time>
      </trkpt>
      <trkpt lat="43.21687" lon="5.4589">
        <ele>378.42</ele>
        <time>2020-03-15T12:51:50Z</time>
      </trkpt>
      <trkpt lat="43.21686" lon="5.45893">
        <ele>378.42</ele>
        <time>2020-03-15T12:51:52Z</time>
      </trkpt>
      <trkpt lat="43.21688" lon="5.45902">
        <ele>378.42</ele>
        <time>2020-03-15T12:52:06Z</time>
      </trkpt>
      <trkpt lat="43.21689" lon="5.45907">
        <ele>376.97</ele>
        <time>2020-03-15T12:52:21Z</time>
      </trkpt>
      <trkpt lat="43.2169" lon="5.45909">
        <ele>371.21</ele>
        <time>2020-03-15T12:52:41Z</time>
      </trkpt>
      <trkpt lat="43.2169" lon="5.45912">
        <ele>370.24</ele>
        <time>2020-03-15T12:52:56Z</time>
      </trkpt>
      <trkpt lat="43.21691" lon="5.45913">
        <ele>367.84</ele>
        <time>2020-03-15T12:53:17Z</time>
      </trkpt>
      <trkpt lat="43.21688" lon="5.45918">
        <ele>367.84</ele>
        <time>2020-03-15T12:53:32Z</time>
      </trkpt>
      <trkpt lat="43.21684" lon="5.45927">
        <ele>367.84</ele>
        <time>2020-03-15T12:53:45Z</time>
      </trkpt>
      <trkpt lat="43.21683" lon="5.45929">
        <ele>367.36</ele>
        <time>2020-03-15T12:53:56Z</time>
      </trkpt>
      <trkpt lat="43.21683" lon="5.45929">
        <ele>367.36</ele>
        <time>2020-03-15T12:53:58Z</time>
      </trkpt>
      <trkpt lat="43.21682" lon="5.45935">
        <ele>368.8</ele>
        <time>2020-03-15T12:54:11Z</time>
      </trkpt>
      <trkpt lat="43.21681" lon="5.45937">
        <ele>369.28</ele>
        <time>2020-03-15T12:54:23Z</time>
      </trkpt>
      <trkpt lat="43.21681" lon="5.45944">
        <ele>368.8</ele>
        <time>2020-03-15T12:54:42Z</time>
      </trkpt>
      <trkpt lat="43.21681" lon="5.45948">
        <ele>368.8</ele>
        <time>2020-03-15T12:54:56Z</time>
      </trkpt>
      <trkpt lat="43.21681" lon="5.45959">
        <ele>367.84</ele>
        <time>2020-03-15T12:55:06Z</time>
      </trkpt>
      <trkpt lat="43.2168" lon="5.4597">
        <ele>365.92</ele>
        <time>2020-03-15T12:55:18Z</time>
      </trkpt>
      <trkpt lat="43.2168" lon="5.4598">
        <ele>365.92</ele>
        <time>2020-03-15T12:55:31Z</time>
      </trkpt>
      <trkpt lat="43.21683" lon="5.45991">
        <ele>365.92</ele>
        <time>2020-03-15T12:55:44Z</time>
      </trkpt>
      <trkpt lat="43.21686" lon="5.46002">
        <ele>365.44</ele>
        <time>2020-03-15T12:55:59Z</time>
      </trkpt>
      <trkpt lat="43.21687" lon="5.46006">
        <ele>366.4</ele>
        <time>2020-03-15T12:56:04Z</time>
      </trkpt>
      <trkpt lat="43.21691" lon="5.46014">
        <ele>368.32</ele>
        <time>2020-03-15T12:56:18Z</time>
      </trkpt>
      <trkpt lat="43.21691" lon="5.46025">
        <ele>370.24</ele>
        <time>2020-03-15T12:56:32Z</time>
      </trkpt>
      <trkpt lat="43.21695" lon="5.46032">
        <ele>370.73</ele>
        <time>2020-03-15T12:56:46Z</time>
      </trkpt>
      <trkpt lat="43.21695" lon="5.46033">
        <ele>371.21</ele>
        <time>2020-03-15T12:56:48Z</time>
      </trkpt>
      <trkpt lat="43.21696" lon="5.46036">
        <ele>371.69</ele>
        <time>2020-03-15T12:56:52Z</time>
      </trkpt>
      <trkpt lat="43.21694" lon="5.46039">
        <ele>370.24</ele>
        <time>2020-03-15T12:57:04Z</time>
      </trkpt>
      <trkpt lat="43.21691" lon="5.46038">
        <ele>368.8</ele>
        <time>2020-03-15T12:57:10Z</time>
      </trkpt>
      <trkpt lat="43.21681" lon="5.46037">
        <ele>366.88</ele>
        <time>2020-03-15T12:57:24Z</time>
      </trkpt>
      <trkpt lat="43.21677" lon="5.46036">
        <ele>366.88</ele>
        <time>2020-03-15T12:57:35Z</time>
      </trkpt>
      <trkpt lat="43.21668" lon="5.4604">
        <ele>366.88</ele>
        <time>2020-03-15T12:57:44Z</time>
      </trkpt>
      <trkpt lat="43.2166" lon="5.46053">
        <ele>368.8</ele>
        <time>2020-03-15T12:57:56Z</time>
      </trkpt>
      <trkpt lat="43.21666" lon="5.46056">
        <ele>362.07</ele>
        <time>2020-03-15T12:58:09Z</time>
      </trkpt>
      <trkpt lat="43.21663" lon="5.46055">
        <ele>362.07</ele>
        <time>2020-03-15T12:58:14Z</time>
      </trkpt>
      <trkpt lat="43.21657" lon="5.4605">
        <ele>364.48</ele>
        <time>2020-03-15T12:58:26Z</time>
      </trkpt>
      <trkpt lat="43.21646" lon="5.46044">
        <ele>366.88</ele>
        <time>2020-03-15T12:58:39Z</time>
      </trkpt>
      <trkpt lat="43.21638" lon="5.4604">
        <ele>367.36</ele>
        <time>2020-03-15T12:58:48Z</time>
      </trkpt>
      <trkpt lat="43.21627" lon="5.46039">
        <ele>365.92</ele>
        <time>2020-03-15T12:58:59Z</time>
      </trkpt>
      <trkpt lat="43.21615" lon="5.46045">
        <ele>364</ele>
        <time>2020-03-15T12:59:12Z</time>
      </trkpt>
      <trkpt lat="43.21611" lon="5.46048">
        <ele>362.55</ele>
        <time>2020-03-15T12:59:20Z</time>
      </trkpt>
      <trkpt lat="43.21609" lon="5.46051">
        <ele>362.07</ele>
        <time>2020-03-15T12:59:23Z</time>
      </trkpt>
      <trkpt lat="43.216" lon="5.46059">
        <ele>360.63</ele>
        <time>2020-03-15T12:59:34Z</time>
      </trkpt>
      <trkpt lat="43.21595" lon="5.46061">
        <ele>362.55</ele>
        <time>2020-03-15T12:59:46Z</time>
      </trkpt>
      <trkpt lat="43.21591" lon="5.4606">
        <ele>364</ele>
        <time>2020-03-15T12:59:53Z</time>
      </trkpt>
      <trkpt lat="43.21582" lon="5.46057">
        <ele>365.92</ele>
        <time>2020-03-15T13:00:05Z</time>
      </trkpt>
      <trkpt lat="43.21576" lon="5.46057">
        <ele>365.92</ele>
        <time>2020-03-15T13:00:17Z</time>
      </trkpt>
      <trkpt lat="43.21571" lon="5.46057">
        <ele>363.04</ele>
        <time>2020-03-15T13:00:33Z</time>
      </trkpt>
      <trkpt lat="43.21566" lon="5.46053">
        <ele>362.55</ele>
        <time>2020-03-15T13:00:48Z</time>
      </trkpt>
      <trkpt lat="43.21562" lon="5.46051">
        <ele>362.55</ele>
        <time>2020-03-15T13:00:58Z</time>
      </trkpt>
      <trkpt lat="43.21549" lon="5.46046">
        <ele>362.07</ele>
        <time>2020-03-15T13:01:13Z</time>
      </trkpt>
      <trkpt lat="43.21541" lon="5.46042">
        <ele>362.55</ele>
        <time>2020-03-15T13:01:23Z</time>
      </trkpt>
      <trkpt lat="43.21534" lon="5.46045">
        <ele>360.15</ele>
        <time>2020-03-15T13:01:36Z</time>
      </trkpt>
      <trkpt lat="43.21532" lon="5.46054">
        <ele>358.71</ele>
        <time>2020-03-15T13:01:45Z</time>
      </trkpt>
      <trkpt lat="43.21531" lon="5.46057">
        <ele>357.75</ele>
        <time>2020-03-15T13:01:49Z</time>
      </trkpt>
      <trkpt lat="43.21531" lon="5.46069">
        <ele>356.79</ele>
        <time>2020-03-15T13:02:04Z</time>
      </trkpt>
      <trkpt lat="43.21531" lon="5.46071">
        <ele>356.79</ele>
        <time>2020-03-15T13:02:06Z</time>
      </trkpt>
      <trkpt lat="43.21527" lon="5.46081">
        <ele>356.31</ele>
        <time>2020-03-15T13:02:17Z</time>
      </trkpt>
      <trkpt lat="43.21525" lon="5.46087">
        <ele>356.79</ele>
        <time>2020-03-15T13:02:24Z</time>
      </trkpt>
      <trkpt lat="43.21525" lon="5.461">
        <ele>356.79</ele>
        <time>2020-03-15T13:02:34Z</time>
      </trkpt>
      <trkpt lat="43.21528" lon="5.46112">
        <ele>355.83</ele>
        <time>2020-03-15T13:02:47Z</time>
      </trkpt>
      <trkpt lat="43.21526" lon="5.46121">
        <ele>356.31</ele>
        <time>2020-03-15T13:02:59Z</time>
      </trkpt>
      <trkpt lat="43.21524" lon="5.46127">
        <ele>356.31</ele>
        <time>2020-03-15T13:03:10Z</time>
      </trkpt>
      <trkpt lat="43.21518" lon="5.46139">
        <ele>356.79</ele>
        <time>2020-03-15T13:03:22Z</time>
      </trkpt>
      <trkpt lat="43.21516" lon="5.46152">
        <ele>355.34</ele>
        <time>2020-03-15T13:03:35Z</time>
      </trkpt>
      <trkpt lat="43.2151" lon="5.46158">
        <ele>355.34</ele>
        <time>2020-03-15T13:03:47Z</time>
      </trkpt>
      <trkpt lat="43.21507" lon="5.46159">
        <ele>353.9</ele>
        <time>2020-03-15T13:03:58Z</time>
      </trkpt>
      <trkpt lat="43.21503" lon="5.46162">
        <ele>354.86</ele>
        <time>2020-03-15T13:04:11Z</time>
      </trkpt>
      <trkpt lat="43.21502" lon="5.46166">
        <ele>356.31</ele>
        <time>2020-03-15T13:04:24Z</time>
      </trkpt>
      <trkpt lat="43.21496" lon="5.4617">
        <ele>356.31</ele>
        <time>2020-03-15T13:04:34Z</time>
      </trkpt>
      <trkpt lat="43.21489" lon="5.46171">
        <ele>355.34</ele>
        <time>2020-03-15T13:04:46Z</time>
      </trkpt>
      <trkpt lat="43.21487" lon="5.46172">
        <ele>356.31</ele>
        <time>2020-03-15T13:05:03Z</time>
      </trkpt>
      <trkpt lat="43.21483" lon="5.4618">
        <ele>354.86</ele>
        <time>2020-03-15T13:05:13Z</time>
      </trkpt>
      <trkpt lat="43.2148" lon="5.46182">
        <ele>353.9</ele>
        <time>2020-03-15T13:05:28Z</time>
      </trkpt>
      <trkpt lat="43.2147" lon="5.46183">
        <ele>352.94</ele>
        <time>2020-03-15T13:05:40Z</time>
      </trkpt>
      <trkpt lat="43.21469" lon="5.46184">
        <ele>352.94</ele>
        <time>2020-03-15T13:05:41Z</time>
      </trkpt>
      <trkpt lat="43.21455" lon="5.46188">
        <ele>351.5</ele>
        <time>2020-03-15T13:05:54Z</time>
      </trkpt>
      <trkpt lat="43.21455" lon="5.46189">
        <ele>351.5</ele>
        <time>2020-03-15T13:05:56Z</time>
      </trkpt>
      <trkpt lat="43.2145" lon="5.46192">
        <ele>351.5</ele>
        <time>2020-03-15T13:06:02Z</time>
      </trkpt>
      <trkpt lat="43.21448" lon="5.46195">
        <ele>351.5</ele>
        <time>2020-03-15T13:06:17Z</time>
      </trkpt>
      <trkpt lat="43.21445" lon="5.46201">
        <ele>351.02</ele>
        <time>2020-03-15T13:06:22Z</time>
      </trkpt>
      <trkpt lat="43.21441" lon="5.46214">
        <ele>351.5</ele>
        <time>2020-03-15T13:06:34Z</time>
      </trkpt>
      <trkpt lat="43.21439" lon="5.46227">
        <ele>350.54</ele>
        <time>2020-03-15T13:06:47Z</time>
      </trkpt>
      <trkpt lat="43.21439" lon="5.46229">
        <ele>350.54</ele>
        <time>2020-03-15T13:06:48Z</time>
      </trkpt>
      <trkpt lat="43.21439" lon="5.46233">
        <ele>351.02</ele>
        <time>2020-03-15T13:06:51Z</time>
      </trkpt>
      <trkpt lat="43.21438" lon="5.46248">
        <ele>354.38</ele>
        <time>2020-03-15T13:07:05Z</time>
      </trkpt>
      <trkpt lat="43.21438" lon="5.46258">
        <ele>356.31</ele>
        <time>2020-03-15T13:07:20Z</time>
      </trkpt>
      <trkpt lat="43.21438" lon="5.46255">
        <ele>355.34</ele>
        <time>2020-03-15T13:07:42Z</time>
      </trkpt>
      <trkpt lat="43.2144" lon="5.46255">
        <ele>356.31</ele>
        <time>2020-03-15T13:08:02Z</time>
      </trkpt>
      <trkpt lat="43.21439" lon="5.46255">
        <ele>355.34</ele>
        <time>2020-03-15T13:08:31Z</time>
      </trkpt>
      <trkpt lat="43.21437" lon="5.46255">
        <ele>354.86</ele>
        <time>2020-03-15T13:08:55Z</time>
      </trkpt>
      <trkpt lat="43.21439" lon="5.46265">
        <ele>352.94</ele>
        <time>2020-03-15T13:09:17Z</time>
      </trkpt>
      <trkpt lat="43.21439" lon="5.46277">
        <ele>353.9</ele>
        <time>2020-03-15T13:09:29Z</time>
      </trkpt>
      <trkpt lat="43.21439" lon="5.46285">
        <ele>354.86</ele>
        <time>2020-03-15T13:09:43Z</time>
      </trkpt>
      <trkpt lat="43.21441" lon="5.46294">
        <ele>356.79</ele>
        <time>2020-03-15T13:09:53Z</time>
      </trkpt>
      <trkpt lat="43.21443" lon="5.46303">
        <ele>359.67</ele>
        <time>2020-03-15T13:10:03Z</time>
      </trkpt>
      <trkpt lat="43.21448" lon="5.46313">
        <ele>357.75</ele>
        <time>2020-03-15T13:10:17Z</time>
      </trkpt>
      <trkpt lat="43.21454" lon="5.46322">
        <ele>357.75</ele>
        <time>2020-03-15T13:10:28Z</time>
      </trkpt>
      <trkpt lat="43.21458" lon="5.46326">
        <ele>358.71</ele>
        <time>2020-03-15T13:10:39Z</time>
      </trkpt>
      <trkpt lat="43.21465" lon="5.46334">
        <ele>359.67</ele>
        <time>2020-03-15T13:10:52Z</time>
      </trkpt>
      <trkpt lat="43.21468" lon="5.46336">
        <ele>360.15</ele>
        <time>2020-03-15T13:11:02Z</time>
      </trkpt>
      <trkpt lat="43.21461" lon="5.46343">
        <ele>363.52</ele>
        <time>2020-03-15T13:11:14Z</time>
      </trkpt>
      <trkpt lat="43.21455" lon="5.4635">
        <ele>366.88</ele>
        <time>2020-03-15T13:11:26Z</time>
      </trkpt>
      <trkpt lat="43.21454" lon="5.46356">
        <ele>366.88</ele>
        <time>2020-03-15T13:11:30Z</time>
      </trkpt>
      <trkpt lat="43.21451" lon="5.46374">
        <ele>367.84</ele>
        <time>2020-03-15T13:11:44Z</time>
      </trkpt>
      <trkpt lat="43.21449" lon="5.4638">
        <ele>368.32</ele>
        <time>2020-03-15T13:11:53Z</time>
      </trkpt>
      <trkpt lat="43.21445" lon="5.46388">
        <ele>368.8</ele>
        <time>2020-03-15T13:12:02Z</time>
      </trkpt>
      <trkpt lat="43.21443" lon="5.46397">
        <ele>368.8</ele>
        <time>2020-03-15T13:12:16Z</time>
      </trkpt>
      <trkpt lat="43.21444" lon="5.46411">
        <ele>365.92</ele>
        <time>2020-03-15T13:12:42Z</time>
      </trkpt>
      <trkpt lat="43.21446" lon="5.46421">
        <ele>364</ele>
        <time>2020-03-15T13:12:51Z</time>
      </trkpt>
      <trkpt lat="43.21453" lon="5.4643">
        <ele>363.52</ele>
        <time>2020-03-15T13:13:03Z</time>
      </trkpt>
      <trkpt lat="43.2146" lon="5.46437">
        <ele>364</ele>
        <time>2020-03-15T13:13:17Z</time>
      </trkpt>
      <trkpt lat="43.21467" lon="5.46445">
        <ele>366.4</ele>
        <time>2020-03-15T13:13:30Z</time>
      </trkpt>
      <trkpt lat="43.21467" lon="5.46447">
        <ele>366.88</ele>
        <time>2020-03-15T13:13:32Z</time>
      </trkpt>
      <trkpt lat="43.21467" lon="5.46459">
        <ele>366.88</ele>
        <time>2020-03-15T13:13:46Z</time>
      </trkpt>
      <trkpt lat="43.21462" lon="5.46463">
        <ele>368.8</ele>
        <time>2020-03-15T13:13:59Z</time>
      </trkpt>
      <trkpt lat="43.21457" lon="5.46467">
        <ele>370.73</ele>
        <time>2020-03-15T13:14:11Z</time>
      </trkpt>
      <trkpt lat="43.21454" lon="5.46471">
        <ele>371.69</ele>
        <time>2020-03-15T13:14:20Z</time>
      </trkpt>
      <trkpt lat="43.21444" lon="5.46474">
        <ele>371.21</ele>
        <time>2020-03-15T13:14:33Z</time>
      </trkpt>
      <trkpt lat="43.21443" lon="5.46474">
        <ele>371.21</ele>
        <time>2020-03-15T13:14:34Z</time>
      </trkpt>
      <trkpt lat="43.21434" lon="5.46479">
        <ele>372.17</ele>
        <time>2020-03-15T13:14:47Z</time>
      </trkpt>
      <trkpt lat="43.2143" lon="5.4649">
        <ele>373.61</ele>
        <time>2020-03-15T13:15:01Z</time>
      </trkpt>
      <trkpt lat="43.21428" lon="5.46493">
        <ele>376.49</ele>
        <time>2020-03-15T13:15:13Z</time>
      </trkpt>
      <trkpt lat="43.21428" lon="5.46501">
        <ele>379.38</ele>
        <time>2020-03-15T13:15:26Z</time>
      </trkpt>
      <trkpt lat="43.21429" lon="5.46502">
        <ele>382.26</ele>
        <time>2020-03-15T13:15:37Z</time>
      </trkpt>
      <trkpt lat="43.21425" lon="5.46502">
        <ele>385.15</ele>
        <time>2020-03-15T13:15:52Z</time>
      </trkpt>
      <trkpt lat="43.21422" lon="5.46507">
        <ele>386.11</ele>
        <time>2020-03-15T13:16:06Z</time>
      </trkpt>
      <trkpt lat="43.21421" lon="5.4651">
        <ele>388.51</ele>
        <time>2020-03-15T13:16:17Z</time>
      </trkpt>
      <trkpt lat="43.2142" lon="5.46513">
        <ele>391.39</ele>
        <time>2020-03-15T13:16:32Z</time>
      </trkpt>
      <trkpt lat="43.21421" lon="5.46516">
        <ele>388.03</ele>
        <time>2020-03-15T13:17:08Z</time>
      </trkpt>
      <trkpt lat="43.21417" lon="5.46511">
        <ele>391.39</ele>
        <time>2020-03-15T13:17:26Z</time>
      </trkpt>
      <trkpt lat="43.21414" lon="5.46514">
        <ele>391.39</ele>
        <time>2020-03-15T13:18:04Z</time>
      </trkpt>
      <trkpt lat="43.21418" lon="5.46516">
        <ele>387.55</ele>
        <time>2020-03-15T13:18:25Z</time>
      </trkpt>
      <trkpt lat="43.21415" lon="5.46514">
        <ele>388.99</ele>
        <time>2020-03-15T13:18:46Z</time>
      </trkpt>
      <trkpt lat="43.21411" lon="5.46515">
        <ele>388.99</ele>
        <time>2020-03-15T13:19:05Z</time>
      </trkpt>
      <trkpt lat="43.21403" lon="5.46512">
        <ele>390.43</ele>
        <time>2020-03-15T13:19:17Z</time>
      </trkpt>
      <trkpt lat="43.21394" lon="5.46514">
        <ele>392.84</ele>
        <time>2020-03-15T13:19:31Z</time>
      </trkpt>
      <trkpt lat="43.21384" lon="5.46514">
        <ele>394.28</ele>
        <time>2020-03-15T13:19:46Z</time>
      </trkpt>
      <trkpt lat="43.21377" lon="5.46516">
        <ele>399.08</ele>
        <time>2020-03-15T13:19:59Z</time>
      </trkpt>
      <trkpt lat="43.21374" lon="5.46517">
        <ele>400.05</ele>
        <time>2020-03-15T13:20:11Z</time>
      </trkpt>
      <trkpt lat="43.21372" lon="5.46523">
        <ele>401.49</ele>
        <time>2020-03-15T13:20:32Z</time>
      </trkpt>
      <trkpt lat="43.21373" lon="5.46528">
        <ele>403.41</ele>
        <time>2020-03-15T13:20:43Z</time>
      </trkpt>
      <trkpt lat="43.21372" lon="5.46525">
        <ele>404.37</ele>
        <time>2020-03-15T13:20:56Z</time>
      </trkpt>
      <trkpt lat="43.21371" lon="5.46527">
        <ele>406.29</ele>
        <time>2020-03-15T13:21:06Z</time>
      </trkpt>
      <trkpt lat="43.21368" lon="5.46527">
        <ele>408.7</ele>
        <time>2020-03-15T13:21:14Z</time>
      </trkpt>
      <trkpt lat="43.21363" lon="5.46523">
        <ele>410.62</ele>
        <time>2020-03-15T13:21:26Z</time>
      </trkpt>
      <trkpt lat="43.21362" lon="5.46523">
        <ele>412.06</ele>
        <time>2020-03-15T13:21:47Z</time>
      </trkpt>
      <trkpt lat="43.21359" lon="5.46522">
        <ele>411.58</ele>
        <time>2020-03-15T13:22:00Z</time>
      </trkpt>
      <trkpt lat="43.21353" lon="5.4652">
        <ele>411.1</ele>
        <time>2020-03-15T13:22:13Z</time>
      </trkpt>
      <trkpt lat="43.21353" lon="5.46521">
        <ele>408.7</ele>
        <time>2020-03-15T13:22:37Z</time>
      </trkpt>
      <trkpt lat="43.21354" lon="5.46519">
        <ele>409.66</ele>
        <time>2020-03-15T13:22:57Z</time>
      </trkpt>
      <trkpt lat="43.21353" lon="5.46519">
        <ele>410.62</ele>
        <time>2020-03-15T13:23:13Z</time>
      </trkpt>
      <trkpt lat="43.21353" lon="5.46519">
        <ele>412.54</ele>
        <time>2020-03-15T13:23:29Z</time>
      </trkpt>
      <trkpt lat="43.21352" lon="5.46518">
        <ele>412.06</ele>
        <time>2020-03-15T13:23:45Z</time>
      </trkpt>
      <trkpt lat="43.21353" lon="5.4652">
        <ele>410.62</ele>
        <time>2020-03-15T13:24:05Z</time>
      </trkpt>
      <trkpt lat="43.21352" lon="5.46524">
        <ele>408.22</ele>
        <time>2020-03-15T13:24:31Z</time>
      </trkpt>
      <trkpt lat="43.21353" lon="5.46522">
        <ele>410.14</ele>
        <time>2020-03-15T13:24:50Z</time>
      </trkpt>
      <trkpt lat="43.21355" lon="5.46522">
        <ele>410.14</ele>
        <time>2020-03-15T13:25:11Z</time>
      </trkpt>
      <trkpt lat="43.21353" lon="5.46519">
        <ele>409.18</ele>
        <time>2020-03-15T13:25:43Z</time>
      </trkpt>
      <trkpt lat="43.21352" lon="5.46519">
        <ele>407.74</ele>
        <time>2020-03-15T13:26:04Z</time>
      </trkpt>
      <trkpt lat="43.21351" lon="5.46518">
        <ele>405.81</ele>
        <time>2020-03-15T13:26:28Z</time>
      </trkpt>
      <trkpt lat="43.21351" lon="5.46526">
        <ele>404.37</ele>
        <time>2020-03-15T13:26:42Z</time>
      </trkpt>
      <trkpt lat="43.21346" lon="5.46538">
        <ele>404.37</ele>
        <time>2020-03-15T13:26:58Z</time>
      </trkpt>
      <trkpt lat="43.21344" lon="5.46545">
        <ele>406.77</ele>
        <time>2020-03-15T13:27:11Z</time>
      </trkpt>
      <trkpt lat="43.2134" lon="5.46554">
        <ele>408.7</ele>
        <time>2020-03-15T13:27:23Z</time>
      </trkpt>
      <trkpt lat="43.21336" lon="5.4656">
        <ele>410.62</ele>
        <time>2020-03-15T13:27:33Z</time>
      </trkpt>
      <trkpt lat="43.21335" lon="5.46562">
        <ele>411.58</ele>
        <time>2020-03-15T13:27:36Z</time>
      </trkpt>
      <trkpt lat="43.21328" lon="5.46575">
        <ele>414.47</ele>
        <time>2020-03-15T13:27:51Z</time>
      </trkpt>
      <trkpt lat="43.21325" lon="5.46577">
        <ele>414.95</ele>
        <time>2020-03-15T13:27:56Z</time>
      </trkpt>
      <trkpt lat="43.21316" lon="5.46579">
        <ele>413.5</ele>
        <time>2020-03-15T13:28:09Z</time>
      </trkpt>
      <trkpt lat="43.21316" lon="5.4658">
        <ele>413.5</ele>
        <time>2020-03-15T13:28:10Z</time>
      </trkpt>
      <trkpt lat="43.21308" lon="5.46581">
        <ele>416.87</ele>
        <time>2020-03-15T13:28:25Z</time>
      </trkpt>
      <trkpt lat="43.21308" lon="5.46582">
        <ele>417.35</ele>
        <time>2020-03-15T13:28:27Z</time>
      </trkpt>
      <trkpt lat="43.21305" lon="5.46583">
        <ele>416.87</ele>
        <time>2020-03-15T13:28:40Z</time>
      </trkpt>
      <trkpt lat="43.21307" lon="5.46583">
        <ele>416.87</ele>
        <time>2020-03-15T13:29:01Z</time>
      </trkpt>
      <trkpt lat="43.21306" lon="5.46583">
        <ele>418.31</ele>
        <time>2020-03-15T13:29:34Z</time>
      </trkpt>
      <trkpt lat="43.21305" lon="5.46583">
        <ele>419.75</ele>
        <time>2020-03-15T13:30:01Z</time>
      </trkpt>
      <trkpt lat="43.21308" lon="5.46583">
        <ele>426.48</ele>
        <time>2020-03-15T13:30:38Z</time>
      </trkpt>
      <trkpt lat="43.21309" lon="5.46585">
        <ele>426</ele>
        <time>2020-03-15T13:31:01Z</time>
      </trkpt>
      <trkpt lat="43.21303" lon="5.46591">
        <ele>424.08</ele>
        <time>2020-03-15T13:31:24Z</time>
      </trkpt>
      <trkpt lat="43.21301" lon="5.46598">
        <ele>424.56</ele>
        <time>2020-03-15T13:31:37Z</time>
      </trkpt>
      <trkpt lat="43.21298" lon="5.46597">
        <ele>425.04</ele>
        <time>2020-03-15T13:31:51Z</time>
      </trkpt>
      <trkpt lat="43.21296" lon="5.46597">
        <ele>426.48</ele>
        <time>2020-03-15T13:32:11Z</time>
      </trkpt>
      <trkpt lat="43.213" lon="5.46601">
        <ele>426</ele>
        <time>2020-03-15T13:32:36Z</time>
      </trkpt>
      <trkpt lat="43.213" lon="5.46603">
        <ele>422.64</ele>
        <time>2020-03-15T13:32:53Z</time>
      </trkpt>
      <trkpt lat="43.213" lon="5.46603">
        <ele>422.64</ele>
        <time>2020-03-15T13:33:12Z</time>
      </trkpt>
      <trkpt lat="43.21299" lon="5.46602">
        <ele>423.12</ele>
        <time>2020-03-15T13:33:29Z</time>
      </trkpt>
      <trkpt lat="43.213" lon="5.46601">
        <ele>423.6</ele>
        <time>2020-03-15T13:33:46Z</time>
      </trkpt>
      <trkpt lat="43.21297" lon="5.46601">
        <ele>424.56</ele>
        <time>2020-03-15T13:33:59Z</time>
      </trkpt>
      <trkpt lat="43.21296" lon="5.46602">
        <ele>424.56</ele>
        <time>2020-03-15T13:34:14Z</time>
      </trkpt>
      <trkpt lat="43.21302" lon="5.46601">
        <ele>421.68</ele>
        <time>2020-03-15T13:34:27Z</time>
      </trkpt>
      <trkpt lat="43.21301" lon="5.466">
        <ele>419.27</ele>
        <time>2020-03-15T13:34:44Z</time>
      </trkpt>
      <trkpt lat="43.21305" lon="5.46605">
        <ele>420.71</ele>
        <time>2020-03-15T13:35:06Z</time>
      </trkpt>
      <trkpt lat="43.21307" lon="5.46608">
        <ele>421.68</ele>
        <time>2020-03-15T13:35:11Z</time>
      </trkpt>
      <trkpt lat="43.21318" lon="5.46613">
        <ele>422.64</ele>
        <time>2020-03-15T13:35:24Z</time>
      </trkpt>
      <trkpt lat="43.21327" lon="5.46606">
        <ele>423.12</ele>
        <time>2020-03-15T13:35:34Z</time>
      </trkpt>
      <trkpt lat="43.21334" lon="5.46604">
        <ele>424.56</ele>
        <time>2020-03-15T13:35:46Z</time>
      </trkpt>
      <trkpt lat="43.21343" lon="5.46606">
        <ele>426</ele>
        <time>2020-03-15T13:36:00Z</time>
      </trkpt>
      <trkpt lat="43.21346" lon="5.46609">
        <ele>428.89</ele>
        <time>2020-03-15T13:36:12Z</time>
      </trkpt>
      <trkpt lat="43.21351" lon="5.46611">
        <ele>430.33</ele>
        <time>2020-03-15T13:36:19Z</time>
      </trkpt>
      <trkpt lat="43.21353" lon="5.46616">
        <ele>429.85</ele>
        <time>2020-03-15T13:36:25Z</time>
      </trkpt>
      <trkpt lat="43.21365" lon="5.4662">
        <ele>429.85</ele>
        <time>2020-03-15T13:36:39Z</time>
      </trkpt>
      <trkpt lat="43.21366" lon="5.4662">
        <ele>429.85</ele>
        <time>2020-03-15T13:36:40Z</time>
      </trkpt>
      <trkpt lat="43.2137" lon="5.46621">
        <ele>429.85</ele>
        <time>2020-03-15T13:36:44Z</time>
      </trkpt>
      <trkpt lat="43.21378" lon="5.46619">
        <ele>431.29</ele>
        <time>2020-03-15T13:36:54Z</time>
      </trkpt>
      <trkpt lat="43.2139" lon="5.46616">
        <ele>432.73</ele>
        <time>2020-03-15T13:37:08Z</time>
      </trkpt>
      <trkpt lat="43.21395" lon="5.46615">
        <ele>431.77</ele>
        <time>2020-03-15T13:37:13Z</time>
      </trkpt>
      <trkpt lat="43.21404" lon="5.4661">
        <ele>431.29</ele>
        <time>2020-03-15T13:37:27Z</time>
      </trkpt>
      <trkpt lat="43.21413" lon="5.46609">
        <ele>429.37</ele>
        <time>2020-03-15T13:37:39Z</time>
      </trkpt>
      <trkpt lat="43.21417" lon="5.46609">
        <ele>426.48</ele>
        <time>2020-03-15T13:37:50Z</time>
      </trkpt>
      <trkpt lat="43.21422" lon="5.46609">
        <ele>425.52</ele>
        <time>2020-03-15T13:38:01Z</time>
      </trkpt>
      <trkpt lat="43.21423" lon="5.46609">
        <ele>425.52</ele>
        <time>2020-03-15T13:38:02Z</time>
      </trkpt>
      <trkpt lat="43.2143" lon="5.46609">
        <ele>425.04</ele>
        <time>2020-03-15T13:38:10Z</time>
      </trkpt>
      <trkpt lat="43.2144" lon="5.46608">
        <ele>427.44</ele>
        <time>2020-03-15T13:38:22Z</time>
      </trkpt>
      <trkpt lat="43.21444" lon="5.46605">
        <ele>430.33</ele>
        <time>2020-03-15T13:38:34Z</time>
      </trkpt>
      <trkpt lat="43.21455" lon="5.46604">
        <ele>431.77</ele>
        <time>2020-03-15T13:38:49Z</time>
      </trkpt>
      <trkpt lat="43.21461" lon="5.46598">
        <ele>432.25</ele>
        <time>2020-03-15T13:39:02Z</time>
      </trkpt>
      <trkpt lat="43.21464" lon="5.46592">
        <ele>434.65</ele>
        <time>2020-03-15T13:39:15Z</time>
      </trkpt>
      <trkpt lat="43.21466" lon="5.46594">
        <ele>436.58</ele>
        <time>2020-03-15T13:39:36Z</time>
      </trkpt>
      <trkpt lat="43.21466" lon="5.46594">
        <ele>436.58</ele>
        <time>2020-03-15T13:39:54Z</time>
      </trkpt>
      <trkpt lat="43.21466" lon="5.46593">
        <ele>436.58</ele>
        <time>2020-03-15T13:40:12Z</time>
      </trkpt>
      <trkpt lat="43.21468" lon="5.46593">
        <ele>437.06</ele>
        <time>2020-03-15T13:40:27Z</time>
      </trkpt>
      <trkpt lat="43.21468" lon="5.46593">
        <ele>437.54</ele>
        <time>2020-03-15T13:40:43Z</time>
      </trkpt>
      <trkpt lat="43.21468" lon="5.46593">
        <ele>438.5</ele>
        <time>2020-03-15T13:41:00Z</time>
      </trkpt>
      <trkpt lat="43.21472" lon="5.466">
        <ele>437.06</ele>
        <time>2020-03-15T13:41:10Z</time>
      </trkpt>
      <trkpt lat="43.21477" lon="5.46603">
        <ele>435.61</ele>
        <time>2020-03-15T13:41:24Z</time>
      </trkpt>
      <trkpt lat="43.21481" lon="5.466">
        <ele>434.65</ele>
        <time>2020-03-15T13:41:43Z</time>
      </trkpt>
      <trkpt lat="43.2148" lon="5.46601">
        <ele>435.61</ele>
        <time>2020-03-15T13:41:55Z</time>
      </trkpt>
      <trkpt lat="43.2148" lon="5.46602">
        <ele>436.58</ele>
        <time>2020-03-15T13:42:13Z</time>
      </trkpt>
      <trkpt lat="43.21481" lon="5.466">
        <ele>433.21</ele>
        <time>2020-03-15T13:42:34Z</time>
      </trkpt>
      <trkpt lat="43.2148" lon="5.46602">
        <ele>435.13</ele>
        <time>2020-03-15T13:43:00Z</time>
      </trkpt>
      <trkpt lat="43.21481" lon="5.46605">
        <ele>435.13</ele>
        <time>2020-03-15T13:43:04Z</time>
      </trkpt>
      <trkpt lat="43.21484" lon="5.46605">
        <ele>435.13</ele>
        <time>2020-03-15T13:43:12Z</time>
      </trkpt>
      <trkpt lat="43.21493" lon="5.466">
        <ele>436.58</ele>
        <time>2020-03-15T13:43:24Z</time>
      </trkpt>
      <trkpt lat="43.21499" lon="5.4659">
        <ele>434.65</ele>
        <time>2020-03-15T13:43:38Z</time>
      </trkpt>
      <trkpt lat="43.21509" lon="5.46585">
        <ele>436.58</ele>
        <time>2020-03-15T13:43:53Z</time>
      </trkpt>
      <trkpt lat="43.21514" lon="5.46584">
        <ele>437.54</ele>
        <time>2020-03-15T13:44:05Z</time>
      </trkpt>
      <trkpt lat="43.21519" lon="5.46581">
        <ele>438.02</ele>
        <time>2020-03-15T13:44:15Z</time>
      </trkpt>
      <trkpt lat="43.21523" lon="5.46583">
        <ele>441.38</ele>
        <time>2020-03-15T13:44:21Z</time>
      </trkpt>
      <trkpt lat="43.2153" lon="5.46577">
        <ele>442.34</ele>
        <time>2020-03-15T13:44:32Z</time>
      </trkpt>
      <trkpt lat="43.21533" lon="5.46578">
        <ele>444.75</ele>
        <time>2020-03-15T13:44:44Z</time>
      </trkpt>
      <trkpt lat="43.21537" lon="5.46579">
        <ele>444.75</ele>
        <time>2020-03-15T13:44:54Z</time>
      </trkpt>
      <trkpt lat="43.2154" lon="5.46575">
        <ele>445.23</ele>
        <time>2020-03-15T13:45:06Z</time>
      </trkpt>
      <trkpt lat="43.21544" lon="5.46575">
        <ele>446.67</ele>
        <time>2020-03-15T13:45:20Z</time>
      </trkpt>
      <trkpt lat="43.21546" lon="5.46575">
        <ele>447.15</ele>
        <time>2020-03-15T13:45:35Z</time>
      </trkpt>
      <trkpt lat="43.21551" lon="5.46576">
        <ele>448.59</ele>
        <time>2020-03-15T13:45:49Z</time>
      </trkpt>
      <trkpt lat="43.21557" lon="5.46579">
        <ele>452.44</ele>
        <time>2020-03-15T13:46:04Z</time>
      </trkpt>
      <trkpt lat="43.21559" lon="5.46579">
        <ele>452.92</ele>
        <time>2020-03-15T13:46:06Z</time>
      </trkpt>
      <trkpt lat="43.21567" lon="5.46584">
        <ele>455.32</ele>
        <time>2020-03-15T13:46:19Z</time>
      </trkpt>
      <trkpt lat="43.2157" lon="5.46582">
        <ele>459.17</ele>
        <time>2020-03-15T13:46:33Z</time>
      </trkpt>
      <trkpt lat="43.21572" lon="5.46585">
        <ele>462.05</ele>
        <time>2020-03-15T13:46:46Z</time>
      </trkpt>
      <trkpt lat="43.21576" lon="5.46588">
        <ele>463.01</ele>
        <time>2020-03-15T13:46:59Z</time>
      </trkpt>
      <trkpt lat="43.21574" lon="5.46588">
        <ele>460.13</ele>
        <time>2020-03-15T13:47:18Z</time>
      </trkpt>
      <trkpt lat="43.21575" lon="5.46586">
        <ele>457.72</ele>
        <time>2020-03-15T13:47:36Z</time>
      </trkpt>
      <trkpt lat="43.21578" lon="5.46588">
        <ele>459.17</ele>
        <time>2020-03-15T13:47:50Z</time>
      </trkpt>
      <trkpt lat="43.21581" lon="5.46588">
        <ele>461.09</ele>
        <time>2020-03-15T13:48:00Z</time>
      </trkpt>
      <trkpt lat="43.21582" lon="5.46588">
        <ele>463.97</ele>
        <time>2020-03-15T13:48:17Z</time>
      </trkpt>
      <trkpt lat="43.21589" lon="5.4659">
        <ele>465.9</ele>
        <time>2020-03-15T13:48:32Z</time>
      </trkpt>
      <trkpt lat="43.21593" lon="5.46592">
        <ele>468.3</ele>
        <time>2020-03-15T13:48:45Z</time>
      </trkpt>
      <trkpt lat="43.21597" lon="5.46594">
        <ele>470.7</ele>
        <time>2020-03-15T13:49:06Z</time>
      </trkpt>
      <trkpt lat="43.21604" lon="5.4659">
        <ele>472.63</ele>
        <time>2020-03-15T13:49:20Z</time>
      </trkpt>
      <trkpt lat="43.21609" lon="5.46584">
        <ele>473.59</ele>
        <time>2020-03-15T13:49:31Z</time>
      </trkpt>
      <trkpt lat="43.21617" lon="5.4658">
        <ele>475.03</ele>
        <time>2020-03-15T13:49:45Z</time>
      </trkpt>
      <trkpt lat="43.21621" lon="5.46579">
        <ele>474.55</ele>
        <time>2020-03-15T13:49:54Z</time>
      </trkpt>
      <trkpt lat="43.21631" lon="5.4658">
        <ele>477.43</ele>
        <time>2020-03-15T13:50:09Z</time>
      </trkpt>
      <trkpt lat="43.21635" lon="5.46575">
        <ele>478.39</ele>
        <time>2020-03-15T13:50:21Z</time>
      </trkpt>
      <trkpt lat="43.21639" lon="5.46573">
        <ele>478.39</ele>
        <time>2020-03-15T13:50:34Z</time>
      </trkpt>
      <trkpt lat="43.21644" lon="5.46568">
        <ele>478.39</ele>
        <time>2020-03-15T13:50:47Z</time>
      </trkpt>
      <trkpt lat="43.21649" lon="5.46565">
        <ele>477.43</ele>
        <time>2020-03-15T13:51:04Z</time>
      </trkpt>
      <trkpt lat="43.21649" lon="5.46563">
        <ele>477.43</ele>
        <time>2020-03-15T13:51:22Z</time>
      </trkpt>
      <trkpt lat="43.2165" lon="5.46564">
        <ele>475.99</ele>
        <time>2020-03-15T13:51:43Z</time>
      </trkpt>
      <trkpt lat="43.21649" lon="5.46565">
        <ele>475.99</ele>
        <time>2020-03-15T13:52:01Z</time>
      </trkpt>
      <trkpt lat="43.21649" lon="5.46565">
        <ele>477.43</ele>
        <time>2020-03-15T13:52:25Z</time>
      </trkpt>
      <trkpt lat="43.21648" lon="5.46563">
        <ele>475.99</ele>
        <time>2020-03-15T13:52:47Z</time>
      </trkpt>
      <trkpt lat="43.2165" lon="5.46564">
        <ele>475.99</ele>
        <time>2020-03-15T13:53:03Z</time>
      </trkpt>
      <trkpt lat="43.2165" lon="5.46564">
        <ele>476.95</ele>
        <time>2020-03-15T13:53:25Z</time>
      </trkpt>
      <trkpt lat="43.21652" lon="5.46565">
        <ele>477.91</ele>
        <time>2020-03-15T13:53:49Z</time>
      </trkpt>
      <trkpt lat="43.21654" lon="5.46565">
        <ele>479.35</ele>
        <time>2020-03-15T13:54:13Z</time>
      </trkpt>
      <trkpt lat="43.21654" lon="5.46566">
        <ele>477.91</ele>
        <time>2020-03-15T13:54:29Z</time>
      </trkpt>
      <trkpt lat="43.21656" lon="5.46558">
        <ele>477.91</ele>
        <time>2020-03-15T13:54:44Z</time>
      </trkpt>
      <trkpt lat="43.21663" lon="5.46552">
        <ele>478.87</ele>
        <time>2020-03-15T13:54:56Z</time>
      </trkpt>
      <trkpt lat="43.21668" lon="5.46552">
        <ele>481.28</ele>
        <time>2020-03-15T13:55:11Z</time>
      </trkpt>
      <trkpt lat="43.21672" lon="5.4655">
        <ele>483.2</ele>
        <time>2020-03-15T13:55:26Z</time>
      </trkpt>
      <trkpt lat="43.21677" lon="5.46548">
        <ele>482.24</ele>
        <time>2020-03-15T13:55:40Z</time>
      </trkpt>
      <trkpt lat="43.21681" lon="5.46541">
        <ele>483.2</ele>
        <time>2020-03-15T13:55:54Z</time>
      </trkpt>
      <trkpt lat="43.21686" lon="5.46534">
        <ele>484.16</ele>
        <time>2020-03-15T13:56:07Z</time>
      </trkpt>
      <trkpt lat="43.21687" lon="5.46534">
        <ele>485.6</ele>
        <time>2020-03-15T13:56:19Z</time>
      </trkpt>
      <trkpt lat="43.21692" lon="5.46536">
        <ele>486.56</ele>
        <time>2020-03-15T13:56:34Z</time>
      </trkpt>
      <trkpt lat="43.21695" lon="5.46536">
        <ele>486.08</ele>
        <time>2020-03-15T13:56:49Z</time>
      </trkpt>
      <trkpt lat="43.21699" lon="5.46532">
        <ele>487.53</ele>
        <time>2020-03-15T13:57:00Z</time>
      </trkpt>
      <trkpt lat="43.217" lon="5.46533">
        <ele>488.01</ele>
        <time>2020-03-15T13:57:03Z</time>
      </trkpt>
      <trkpt lat="43.21703" lon="5.4653">
        <ele>490.89</ele>
        <time>2020-03-15T13:57:14Z</time>
      </trkpt>
      <trkpt lat="43.21709" lon="5.4653">
        <ele>491.85</ele>
        <time>2020-03-15T13:57:29Z</time>
      </trkpt>
      <trkpt lat="43.21714" lon="5.46529">
        <ele>492.33</ele>
        <time>2020-03-15T13:57:41Z</time>
      </trkpt>
      <trkpt lat="43.21709" lon="5.46524">
        <ele>494.26</ele>
        <time>2020-03-15T13:57:53Z</time>
      </trkpt>
      <trkpt lat="43.21708" lon="5.46525">
        <ele>494.26</ele>
        <time>2020-03-15T13:58:25Z</time>
      </trkpt>
      <trkpt lat="43.21712" lon="5.46529">
        <ele>493.29</ele>
        <time>2020-03-15T13:58:41Z</time>
      </trkpt>
      <trkpt lat="43.21714" lon="5.46529">
        <ele>494.26</ele>
        <time>2020-03-15T13:58:51Z</time>
      </trkpt>
      <trkpt lat="43.21715" lon="5.46526">
        <ele>495.7</ele>
        <time>2020-03-15T13:59:05Z</time>
      </trkpt>
      <trkpt lat="43.21713" lon="5.46527">
        <ele>494.74</ele>
        <time>2020-03-15T13:59:26Z</time>
      </trkpt>
      <trkpt lat="43.21714" lon="5.46529">
        <ele>494.74</ele>
        <time>2020-03-15T13:59:48Z</time>
      </trkpt>
      <trkpt lat="43.21717" lon="5.46528">
        <ele>493.77</ele>
        <time>2020-03-15T14:00:01Z</time>
      </trkpt>
      <trkpt lat="43.21722" lon="5.46527">
        <ele>493.29</ele>
        <time>2020-03-15T14:00:10Z</time>
      </trkpt>
      <trkpt lat="43.21731" lon="5.46524">
        <ele>494.26</ele>
        <time>2020-03-15T14:00:21Z</time>
      </trkpt>
      <trkpt lat="43.21738" lon="5.4652">
        <ele>493.29</ele>
        <time>2020-03-15T14:00:32Z</time>
      </trkpt>
      <trkpt lat="43.21747" lon="5.46518">
        <ele>494.26</ele>
        <time>2020-03-15T14:00:44Z</time>
      </trkpt>
      <trkpt lat="43.21758" lon="5.46517">
        <ele>494.74</ele>
        <time>2020-03-15T14:00:57Z</time>
      </trkpt>
      <trkpt lat="43.21767" lon="5.46511">
        <ele>496.66</ele>
        <time>2020-03-15T14:01:10Z</time>
      </trkpt>
      <trkpt lat="43.21775" lon="5.46506">
        <ele>497.14</ele>
        <time>2020-03-15T14:01:24Z</time>
      </trkpt>
      <trkpt lat="43.2178" lon="5.46499">
        <ele>501.95</ele>
        <time>2020-03-15T14:01:37Z</time>
      </trkpt>
      <trkpt lat="43.21782" lon="5.46497">
        <ele>500.02</ele>
        <time>2020-03-15T14:01:53Z</time>
      </trkpt>
      <trkpt lat="43.21789" lon="5.46498">
        <ele>499.06</ele>
        <time>2020-03-15T14:02:04Z</time>
      </trkpt>
      <trkpt lat="43.21791" lon="5.46497">
        <ele>499.06</ele>
        <time>2020-03-15T14:02:07Z</time>
      </trkpt>
      <trkpt lat="43.21802" lon="5.46492">
        <ele>498.58</ele>
        <time>2020-03-15T14:02:19Z</time>
      </trkpt>
      <trkpt lat="43.21808" lon="5.46485">
        <ele>499.06</ele>
        <time>2020-03-15T14:02:33Z</time>
      </trkpt>
      <trkpt lat="43.21813" lon="5.4648">
        <ele>500.98</ele>
        <time>2020-03-15T14:02:45Z</time>
      </trkpt>
      <trkpt lat="43.21817" lon="5.46475">
        <ele>500.98</ele>
        <time>2020-03-15T14:03:00Z</time>
      </trkpt>
      <trkpt lat="43.21827" lon="5.46473">
        <ele>501.95</ele>
        <time>2020-03-15T14:03:14Z</time>
      </trkpt>
      <trkpt lat="43.21836" lon="5.46474">
        <ele>502.43</ele>
        <time>2020-03-15T14:03:27Z</time>
      </trkpt>
      <trkpt lat="43.21844" lon="5.46473">
        <ele>503.87</ele>
        <time>2020-03-15T14:03:40Z</time>
      </trkpt>
      <trkpt lat="43.21854" lon="5.46474">
        <ele>505.31</ele>
        <time>2020-03-15T14:03:55Z</time>
      </trkpt>
      <trkpt lat="43.21864" lon="5.46476">
        <ele>505.79</ele>
        <time>2020-03-15T14:04:11Z</time>
      </trkpt>
      <trkpt lat="43.21873" lon="5.46478">
        <ele>507.71</ele>
        <time>2020-03-15T14:04:25Z</time>
      </trkpt>
      <trkpt lat="43.21883" lon="5.46478">
        <ele>509.16</ele>
        <time>2020-03-15T14:04:38Z</time>
      </trkpt>
      <trkpt lat="43.21886" lon="5.46478">
        <ele>510.12</ele>
        <time>2020-03-15T14:04:42Z</time>
      </trkpt>
      <trkpt lat="43.21891" lon="5.46479">
        <ele>511.08</ele>
        <time>2020-03-15T14:04:53Z</time>
      </trkpt>
      <trkpt lat="43.21899" lon="5.4648">
        <ele>512.52</ele>
        <time>2020-03-15T14:05:06Z</time>
      </trkpt>
      <trkpt lat="43.21906" lon="5.46484">
        <ele>513.96</ele>
        <time>2020-03-15T14:05:20Z</time>
      </trkpt>
      <trkpt lat="43.21916" lon="5.46487">
        <ele>514.44</ele>
        <time>2020-03-15T14:05:33Z</time>
      </trkpt>
      <trkpt lat="43.21925" lon="5.46487">
        <ele>514.92</ele>
        <time>2020-03-15T14:05:45Z</time>
      </trkpt>
      <trkpt lat="43.21933" lon="5.4649">
        <ele>515.4</ele>
        <time>2020-03-15T14:05:58Z</time>
      </trkpt>
      <trkpt lat="43.2194" lon="5.46491">
        <ele>515.4</ele>
        <time>2020-03-15T14:06:12Z</time>
      </trkpt>
      <trkpt lat="43.21945" lon="5.46487">
        <ele>515.4</ele>
        <time>2020-03-15T14:06:26Z</time>
      </trkpt>
      <trkpt lat="43.2195" lon="5.46488">
        <ele>514.92</ele>
        <time>2020-03-15T14:06:41Z</time>
      </trkpt>
      <trkpt lat="43.21955" lon="5.46488">
        <ele>515.88</ele>
        <time>2020-03-15T14:06:53Z</time>
      </trkpt>
      <trkpt lat="43.21963" lon="5.46489">
        <ele>516.85</ele>
        <time>2020-03-15T14:07:04Z</time>
      </trkpt>
      <trkpt lat="43.21969" lon="5.46491">
        <ele>519.25</ele>
        <time>2020-03-15T14:07:15Z</time>
      </trkpt>
      <trkpt lat="43.21975" lon="5.4649">
        <ele>522.13</ele>
        <time>2020-03-15T14:07:32Z</time>
      </trkpt>
      <trkpt lat="43.21976" lon="5.4649">
        <ele>522.13</ele>
        <time>2020-03-15T14:07:33Z</time>
      </trkpt>
      <trkpt lat="43.21987" lon="5.46489">
        <ele>523.09</ele>
        <time>2020-03-15T14:07:48Z</time>
      </trkpt>
      <trkpt lat="43.21989" lon="5.46489">
        <ele>523.09</ele>
        <time>2020-03-15T14:07:50Z</time>
      </trkpt>
      <trkpt lat="43.21996" lon="5.46483">
        <ele>526.46</ele>
        <time>2020-03-15T14:08:03Z</time>
      </trkpt>
      <trkpt lat="43.21998" lon="5.4648">
        <ele>526.94</ele>
        <time>2020-03-15T14:08:16Z</time>
      </trkpt>
      <trkpt lat="43.21997" lon="5.46481">
        <ele>526.46</ele>
        <time>2020-03-15T14:08:42Z</time>
      </trkpt>
      <trkpt lat="43.22005" lon="5.46478">
        <ele>527.9</ele>
        <time>2020-03-15T14:08:56Z</time>
      </trkpt>
      <trkpt lat="43.2201" lon="5.46474">
        <ele>529.82</ele>
        <time>2020-03-15T14:09:03Z</time>
      </trkpt>
      <trkpt lat="43.22016" lon="5.46471">
        <ele>531.27</ele>
        <time>2020-03-15T14:09:16Z</time>
      </trkpt>
      <trkpt lat="43.22026" lon="5.46467">
        <ele>531.27</ele>
        <time>2020-03-15T14:09:29Z</time>
      </trkpt>
      <trkpt lat="43.22034" lon="5.46469">
        <ele>530.3</ele>
        <time>2020-03-15T14:09:41Z</time>
      </trkpt>
      <trkpt lat="43.22039" lon="5.46469">
        <ele>528.38</ele>
        <time>2020-03-15T14:09:53Z</time>
      </trkpt>
      <trkpt lat="43.2204" lon="5.46469">
        <ele>530.3</ele>
        <time>2020-03-15T14:10:07Z</time>
      </trkpt>
      <trkpt lat="43.22042" lon="5.46466">
        <ele>529.82</ele>
        <time>2020-03-15T14:10:14Z</time>
      </trkpt>
      <trkpt lat="43.22047" lon="5.46452">
        <ele>527.42</ele>
        <time>2020-03-15T14:10:28Z</time>
      </trkpt>
      <trkpt lat="43.22045" lon="5.46447">
        <ele>525.5</ele>
        <time>2020-03-15T14:10:41Z</time>
      </trkpt>
      <trkpt lat="43.22041" lon="5.46442">
        <ele>526.46</ele>
        <time>2020-03-15T14:10:53Z</time>
      </trkpt>
      <trkpt lat="43.2204" lon="5.4644">
        <ele>526.46</ele>
        <time>2020-03-15T14:10:55Z</time>
      </trkpt>
      <trkpt lat="43.22035" lon="5.46433">
        <ele>526.46</ele>
        <time>2020-03-15T14:11:03Z</time>
      </trkpt>
      <trkpt lat="43.22029" lon="5.4642">
        <ele>527.9</ele>
        <time>2020-03-15T14:11:16Z</time>
      </trkpt>
      <trkpt lat="43.22023" lon="5.46408">
        <ele>529.82</ele>
        <time>2020-03-15T14:11:29Z</time>
      </trkpt>
      <trkpt lat="43.22023" lon="5.46407">
        <ele>530.3</ele>
        <time>2020-03-15T14:11:31Z</time>
      </trkpt>
      <trkpt lat="43.22022" lon="5.46396">
        <ele>527.9</ele>
        <time>2020-03-15T14:11:41Z</time>
      </trkpt>
      <trkpt lat="43.2202" lon="5.46382">
        <ele>527.9</ele>
        <time>2020-03-15T14:11:54Z</time>
      </trkpt>
      <trkpt lat="43.2202" lon="5.4638">
        <ele>528.38</ele>
        <time>2020-03-15T14:11:58Z</time>
      </trkpt>
      <trkpt lat="43.22019" lon="5.46374">
        <ele>529.34</ele>
        <time>2020-03-15T14:12:10Z</time>
      </trkpt>
      <trkpt lat="43.22019" lon="5.46375">
        <ele>528.38</ele>
        <time>2020-03-15T14:12:28Z</time>
      </trkpt>
      <trkpt lat="43.22019" lon="5.46377">
        <ele>526.94</ele>
        <time>2020-03-15T14:12:44Z</time>
      </trkpt>
      <trkpt lat="43.2202" lon="5.46378">
        <ele>526.94</ele>
        <time>2020-03-15T14:12:54Z</time>
      </trkpt>
      <trkpt lat="43.22021" lon="5.46387">
        <ele>528.86</ele>
        <time>2020-03-15T14:13:09Z</time>
      </trkpt>
      <trkpt lat="43.22021" lon="5.4639">
        <ele>530.79</ele>
        <time>2020-03-15T14:13:25Z</time>
      </trkpt>
      <trkpt lat="43.22022" lon="5.46386">
        <ele>531.27</ele>
        <time>2020-03-15T14:13:38Z</time>
      </trkpt>
      <trkpt lat="43.22019" lon="5.46379">
        <ele>531.75</ele>
        <time>2020-03-15T14:13:52Z</time>
      </trkpt>
      <trkpt lat="43.22019" lon="5.46378">
        <ele>532.23</ele>
        <time>2020-03-15T14:14:05Z</time>
      </trkpt>
      <trkpt lat="43.2202" lon="5.46369">
        <ele>531.75</ele>
        <time>2020-03-15T14:14:11Z</time>
      </trkpt>
      <trkpt lat="43.22019" lon="5.46365">
        <ele>531.27</ele>
        <time>2020-03-15T14:14:15Z</time>
      </trkpt>
      <trkpt lat="43.22022" lon="5.46353">
        <ele>529.34</ele>
        <time>2020-03-15T14:14:27Z</time>
      </trkpt>
      <trkpt lat="43.22023" lon="5.46348">
        <ele>529.82</ele>
        <time>2020-03-15T14:14:40Z</time>
      </trkpt>
      <trkpt lat="43.22025" lon="5.46336">
        <ele>528.38</ele>
        <time>2020-03-15T14:14:53Z</time>
      </trkpt>
      <trkpt lat="43.22025" lon="5.46328">
        <ele>527.9</ele>
        <time>2020-03-15T14:15:03Z</time>
      </trkpt>
      <trkpt lat="43.22026" lon="5.4632">
        <ele>527.42</ele>
        <time>2020-03-15T14:15:08Z</time>
      </trkpt>
      <trkpt lat="43.22031" lon="5.46305">
        <ele>526.94</ele>
        <time>2020-03-15T14:15:21Z</time>
      </trkpt>
      <trkpt lat="43.22037" lon="5.46288">
        <ele>525.02</ele>
        <time>2020-03-15T14:15:35Z</time>
      </trkpt>
      <trkpt lat="43.22037" lon="5.46285">
        <ele>525.02</ele>
        <time>2020-03-15T14:15:37Z</time>
      </trkpt>
      <trkpt lat="43.22037" lon="5.46283">
        <ele>525.02</ele>
        <time>2020-03-15T14:15:39Z</time>
      </trkpt>
      <trkpt lat="43.22042" lon="5.46265">
        <ele>524.54</ele>
        <time>2020-03-15T14:15:53Z</time>
      </trkpt>
      <trkpt lat="43.22041" lon="5.46258">
        <ele>524.54</ele>
        <time>2020-03-15T14:15:58Z</time>
      </trkpt>
      <trkpt lat="43.2204" lon="5.46247">
        <ele>523.58</ele>
        <time>2020-03-15T14:16:06Z</time>
      </trkpt>
      <trkpt lat="43.22044" lon="5.4623">
        <ele>522.13</ele>
        <time>2020-03-15T14:16:19Z</time>
      </trkpt>
      <trkpt lat="43.22046" lon="5.46216">
        <ele>522.13</ele>
        <time>2020-03-15T14:16:31Z</time>
      </trkpt>
      <trkpt lat="43.22045" lon="5.46209">
        <ele>521.17</ele>
        <time>2020-03-15T14:16:36Z</time>
      </trkpt>
      <trkpt lat="43.22046" lon="5.46204">
        <ele>521.17</ele>
        <time>2020-03-15T14:16:40Z</time>
      </trkpt>
      <trkpt lat="43.22046" lon="5.46201">
        <ele>522.13</ele>
        <time>2020-03-15T14:16:42Z</time>
      </trkpt>
      <trkpt lat="43.22047" lon="5.46187">
        <ele>523.09</ele>
        <time>2020-03-15T14:16:54Z</time>
      </trkpt>
      <trkpt lat="43.22048" lon="5.46173">
        <ele>523.58</ele>
        <time>2020-03-15T14:17:05Z</time>
      </trkpt>
      <trkpt lat="43.22056" lon="5.46155">
        <ele>520.69</ele>
        <time>2020-03-15T14:17:20Z</time>
      </trkpt>
      <trkpt lat="43.22065" lon="5.46137">
        <ele>521.65</ele>
        <time>2020-03-15T14:17:36Z</time>
      </trkpt>
      <trkpt lat="43.2207" lon="5.46126">
        <ele>523.09</ele>
        <time>2020-03-15T14:17:47Z</time>
      </trkpt>
      <trkpt lat="43.22073" lon="5.46123">
        <ele>523.58</ele>
        <time>2020-03-15T14:17:53Z</time>
      </trkpt>
      <trkpt lat="43.22078" lon="5.46108">
        <ele>525.5</ele>
        <time>2020-03-15T14:18:08Z</time>
      </trkpt>
      <trkpt lat="43.22078" lon="5.46105">
        <ele>526.46</ele>
        <time>2020-03-15T14:18:13Z</time>
      </trkpt>
      <trkpt lat="43.22083" lon="5.46095">
        <ele>528.38</ele>
        <time>2020-03-15T14:18:26Z</time>
      </trkpt>
      <trkpt lat="43.22088" lon="5.46084">
        <ele>530.3</ele>
        <time>2020-03-15T14:18:41Z</time>
      </trkpt>
      <trkpt lat="43.22093" lon="5.46073">
        <ele>530.79</ele>
        <time>2020-03-15T14:18:55Z</time>
      </trkpt>
      <trkpt lat="43.22097" lon="5.46061">
        <ele>532.23</ele>
        <time>2020-03-15T14:19:10Z</time>
      </trkpt>
      <trkpt lat="43.221" lon="5.46051">
        <ele>534.63</ele>
        <time>2020-03-15T14:19:23Z</time>
      </trkpt>
      <trkpt lat="43.221" lon="5.46045">
        <ele>535.59</ele>
        <time>2020-03-15T14:19:31Z</time>
      </trkpt>
      <trkpt lat="43.22098" lon="5.46036">
        <ele>536.07</ele>
        <time>2020-03-15T14:19:42Z</time>
      </trkpt>
      <trkpt lat="43.22101" lon="5.46024">
        <ele>538.96</ele>
        <time>2020-03-15T14:19:57Z</time>
      </trkpt>
      <trkpt lat="43.22106" lon="5.46014">
        <ele>542.8</ele>
        <time>2020-03-15T14:20:11Z</time>
      </trkpt>
      <trkpt lat="43.22108" lon="5.46">
        <ele>544.72</ele>
        <time>2020-03-15T14:20:27Z</time>
      </trkpt>
      <trkpt lat="43.22114" lon="5.45993">
        <ele>546.17</ele>
        <time>2020-03-15T14:20:36Z</time>
      </trkpt>
      <trkpt lat="43.2212" lon="5.45979">
        <ele>547.13</ele>
        <time>2020-03-15T14:20:52Z</time>
      </trkpt>
      <trkpt lat="43.22118" lon="5.45973">
        <ele>549.53</ele>
        <time>2020-03-15T14:20:58Z</time>
      </trkpt>
      <trkpt lat="43.22117" lon="5.45969">
        <ele>550.49</ele>
        <time>2020-03-15T14:21:03Z</time>
      </trkpt>
      <trkpt lat="43.22116" lon="5.45958">
        <ele>551.93</ele>
        <time>2020-03-15T14:21:16Z</time>
      </trkpt>
      <trkpt lat="43.22117" lon="5.45954">
        <ele>550.97</ele>
        <time>2020-03-15T14:21:31Z</time>
      </trkpt>
      <trkpt lat="43.22116" lon="5.45951">
        <ele>550.97</ele>
        <time>2020-03-15T14:21:48Z</time>
      </trkpt>
      <trkpt lat="43.22117" lon="5.45952">
        <ele>551.93</ele>
        <time>2020-03-15T14:22:18Z</time>
      </trkpt>
      <trkpt lat="43.22121" lon="5.45952">
        <ele>551.45</ele>
        <time>2020-03-15T14:22:32Z</time>
      </trkpt>
      <trkpt lat="43.22122" lon="5.45952">
        <ele>550.97</ele>
        <time>2020-03-15T14:23:00Z</time>
      </trkpt>
      <trkpt lat="43.22123" lon="5.45952">
        <ele>551.45</ele>
        <time>2020-03-15T14:23:33Z</time>
      </trkpt>
      <trkpt lat="43.22123" lon="5.45951">
        <ele>553.38</ele>
        <time>2020-03-15T14:24:04Z</time>
      </trkpt>
      <trkpt lat="43.22125" lon="5.45948">
        <ele>551.93</ele>
        <time>2020-03-15T14:24:23Z</time>
      </trkpt>
      <trkpt lat="43.22135" lon="5.4594">
        <ele>551.93</ele>
        <time>2020-03-15T14:24:38Z</time>
      </trkpt>
      <trkpt lat="43.22135" lon="5.4594">
        <ele>550.97</ele>
        <time>2020-03-15T14:25:00Z</time>
      </trkpt>
      <trkpt lat="43.22134" lon="5.4594">
        <ele>550.49</ele>
        <time>2020-03-15T14:25:33Z</time>
      </trkpt>
      <trkpt lat="43.22135" lon="5.4594">
        <ele>551.45</ele>
        <time>2020-03-15T14:26:08Z</time>
      </trkpt>
      <trkpt lat="43.22134" lon="5.45941">
        <ele>550.49</ele>
        <time>2020-03-15T14:26:51Z</time>
      </trkpt>
      <trkpt lat="43.22134" lon="5.4594">
        <ele>549.53</ele>
        <time>2020-03-15T14:27:26Z</time>
      </trkpt>
      <trkpt lat="43.22135" lon="5.45939">
        <ele>549.05</ele>
        <time>2020-03-15T14:27:53Z</time>
      </trkpt>
      <trkpt lat="43.22134" lon="5.45939">
        <ele>549.05</ele>
        <time>2020-03-15T14:28:21Z</time>
      </trkpt>
      <trkpt lat="43.22135" lon="5.4594">
        <ele>548.57</ele>
        <time>2020-03-15T14:28:53Z</time>
      </trkpt>
      <trkpt lat="43.22136" lon="5.4594">
        <ele>548.57</ele>
        <time>2020-03-15T14:29:28Z</time>
      </trkpt>
      <trkpt lat="43.22136" lon="5.45941">
        <ele>549.53</ele>
        <time>2020-03-15T14:29:50Z</time>
      </trkpt>
      <trkpt lat="43.22138" lon="5.45939">
        <ele>550.01</ele>
        <time>2020-03-15T14:30:21Z</time>
      </trkpt>
      <trkpt lat="43.22138" lon="5.45941">
        <ele>550.97</ele>
        <time>2020-03-15T14:30:47Z</time>
      </trkpt>
      <trkpt lat="43.22136" lon="5.45941">
        <ele>551.93</ele>
        <time>2020-03-15T14:31:16Z</time>
      </trkpt>
      <trkpt lat="43.22135" lon="5.4594">
        <ele>551.45</ele>
        <time>2020-03-15T14:31:35Z</time>
      </trkpt>
      <trkpt lat="43.22136" lon="5.45941">
        <ele>553.86</ele>
        <time>2020-03-15T14:32:00Z</time>
      </trkpt>
      <trkpt lat="43.22136" lon="5.45941">
        <ele>554.34</ele>
        <time>2020-03-15T14:32:25Z</time>
      </trkpt>
      <trkpt lat="43.22135" lon="5.45941">
        <ele>554.34</ele>
        <time>2020-03-15T14:33:01Z</time>
      </trkpt>
      <trkpt lat="43.22133" lon="5.45943">
        <ele>555.78</ele>
        <time>2020-03-15T14:33:31Z</time>
      </trkpt>
      <trkpt lat="43.22132" lon="5.45944">
        <ele>555.3</ele>
        <time>2020-03-15T14:33:36Z</time>
      </trkpt>
      <trkpt lat="43.22129" lon="5.45946">
        <ele>554.82</ele>
        <time>2020-03-15T14:33:40Z</time>
      </trkpt>
      <trkpt lat="43.22127" lon="5.4595">
        <ele>554.34</ele>
        <time>2020-03-15T14:33:45Z</time>
      </trkpt>
      <trkpt lat="43.22123" lon="5.45963">
        <ele>554.82</ele>
        <time>2020-03-15T14:33:58Z</time>
      </trkpt>
      <trkpt lat="43.22119" lon="5.45975">
        <ele>554.34</ele>
        <time>2020-03-15T14:34:10Z</time>
      </trkpt>
      <trkpt lat="43.22118" lon="5.4598">
        <ele>553.38</ele>
        <time>2020-03-15T14:34:15Z</time>
      </trkpt>
      <trkpt lat="43.22115" lon="5.45992">
        <ele>551.45</ele>
        <time>2020-03-15T14:34:28Z</time>
      </trkpt>
      <trkpt lat="43.2211" lon="5.46">
        <ele>549.53</ele>
        <time>2020-03-15T14:34:40Z</time>
      </trkpt>
      <trkpt lat="43.22106" lon="5.4601">
        <ele>547.13</ele>
        <time>2020-03-15T14:34:52Z</time>
      </trkpt>
      <trkpt lat="43.22102" lon="5.4602">
        <ele>545.2</ele>
        <time>2020-03-15T14:35:04Z</time>
      </trkpt>
      <trkpt lat="43.221" lon="5.46025">
        <ele>543.28</ele>
        <time>2020-03-15T14:35:17Z</time>
      </trkpt>
      <trkpt lat="43.22099" lon="5.46035">
        <ele>542.8</ele>
        <time>2020-03-15T14:35:28Z</time>
      </trkpt>
      <trkpt lat="43.22097" lon="5.4604">
        <ele>542.32</ele>
        <time>2020-03-15T14:35:34Z</time>
      </trkpt>
      <trkpt lat="43.22098" lon="5.46045">
        <ele>541.84</ele>
        <time>2020-03-15T14:35:38Z</time>
      </trkpt>
      <trkpt lat="43.22099" lon="5.46053">
        <ele>540.4</ele>
        <time>2020-03-15T14:35:50Z</time>
      </trkpt>
      <trkpt lat="43.22095" lon="5.46064">
        <ele>538.48</ele>
        <time>2020-03-15T14:36:03Z</time>
      </trkpt>
      <trkpt lat="43.22093" lon="5.46073">
        <ele>536.55</ele>
        <time>2020-03-15T14:36:16Z</time>
      </trkpt>
      <trkpt lat="43.22088" lon="5.46084">
        <ele>534.63</ele>
        <time>2020-03-15T14:36:29Z</time>
      </trkpt>
      <trkpt lat="43.22083" lon="5.46095">
        <ele>533.67</ele>
        <time>2020-03-15T14:36:42Z</time>
      </trkpt>
      <trkpt lat="43.22078" lon="5.46104">
        <ele>532.71</ele>
        <time>2020-03-15T14:36:55Z</time>
      </trkpt>
      <trkpt lat="43.22073" lon="5.4612">
        <ele>531.27</ele>
        <time>2020-03-15T14:37:10Z</time>
      </trkpt>
      <trkpt lat="43.22066" lon="5.4613">
        <ele>529.82</ele>
        <time>2020-03-15T14:37:23Z</time>
      </trkpt>
      <trkpt lat="43.2206" lon="5.46144">
        <ele>527.9</ele>
        <time>2020-03-15T14:37:36Z</time>
      </trkpt>
      <trkpt lat="43.22059" lon="5.46147">
        <ele>527.42</ele>
        <time>2020-03-15T14:37:39Z</time>
      </trkpt>
      <trkpt lat="43.22055" lon="5.4616">
        <ele>525.02</ele>
        <time>2020-03-15T14:37:52Z</time>
      </trkpt>
      <trkpt lat="43.22051" lon="5.46166">
        <ele>523.58</ele>
        <time>2020-03-15T14:37:59Z</time>
      </trkpt>
      <trkpt lat="43.22047" lon="5.46174">
        <ele>524.54</ele>
        <time>2020-03-15T14:38:07Z</time>
      </trkpt>
      <trkpt lat="43.22044" lon="5.46197">
        <ele>525.02</ele>
        <time>2020-03-15T14:38:24Z</time>
      </trkpt>
      <trkpt lat="43.22043" lon="5.46211">
        <ele>524.54</ele>
        <time>2020-03-15T14:38:34Z</time>
      </trkpt>
      <trkpt lat="43.22042" lon="5.46226">
        <ele>523.09</ele>
        <time>2020-03-15T14:38:45Z</time>
      </trkpt>
      <trkpt lat="43.22039" lon="5.46241">
        <ele>523.09</ele>
        <time>2020-03-15T14:38:56Z</time>
      </trkpt>
      <trkpt lat="43.22036" lon="5.46252">
        <ele>523.09</ele>
        <time>2020-03-15T14:39:05Z</time>
      </trkpt>
      <trkpt lat="43.22037" lon="5.46261">
        <ele>523.09</ele>
        <time>2020-03-15T14:39:12Z</time>
      </trkpt>
      <trkpt lat="43.22036" lon="5.46275">
        <ele>524.06</ele>
        <time>2020-03-15T14:39:25Z</time>
      </trkpt>
      <trkpt lat="43.22034" lon="5.4628">
        <ele>524.54</ele>
        <time>2020-03-15T14:39:30Z</time>
      </trkpt>
      <trkpt lat="43.22033" lon="5.46291">
        <ele>523.58</ele>
        <time>2020-03-15T14:39:39Z</time>
      </trkpt>
      <trkpt lat="43.22031" lon="5.46304">
        <ele>522.13</ele>
        <time>2020-03-15T14:39:51Z</time>
      </trkpt>
      <trkpt lat="43.22028" lon="5.46315">
        <ele>520.69</ele>
        <time>2020-03-15T14:40:00Z</time>
      </trkpt>
      <trkpt lat="43.22026" lon="5.4633">
        <ele>521.17</ele>
        <time>2020-03-15T14:40:12Z</time>
      </trkpt>
      <trkpt lat="43.22025" lon="5.46343">
        <ele>522.13</ele>
        <time>2020-03-15T14:40:24Z</time>
      </trkpt>
      <trkpt lat="43.22021" lon="5.46359">
        <ele>523.58</ele>
        <time>2020-03-15T14:40:39Z</time>
      </trkpt>
      <trkpt lat="43.22018" lon="5.46372">
        <ele>525.5</ele>
        <time>2020-03-15T14:40:54Z</time>
      </trkpt>
      <trkpt lat="43.22019" lon="5.46388">
        <ele>526.46</ele>
        <time>2020-03-15T14:41:07Z</time>
      </trkpt>
      <trkpt lat="43.22019" lon="5.46389">
        <ele>526.46</ele>
        <time>2020-03-15T14:41:08Z</time>
      </trkpt>
      <trkpt lat="43.2202" lon="5.46406">
        <ele>525.5</ele>
        <time>2020-03-15T14:41:22Z</time>
      </trkpt>
      <trkpt lat="43.22028" lon="5.46424">
        <ele>525.02</ele>
        <time>2020-03-15T14:41:37Z</time>
      </trkpt>
      <trkpt lat="43.22033" lon="5.46434">
        <ele>523.58</ele>
        <time>2020-03-15T14:41:47Z</time>
      </trkpt>
      <trkpt lat="43.22036" lon="5.4644">
        <ele>524.06</ele>
        <time>2020-03-15T14:41:53Z</time>
      </trkpt>
      <trkpt lat="43.22049" lon="5.46451">
        <ele>522.13</ele>
        <time>2020-03-15T14:42:08Z</time>
      </trkpt>
      <trkpt lat="43.22049" lon="5.46451">
        <ele>522.13</ele>
        <time>2020-03-15T14:42:09Z</time>
      </trkpt>
      <trkpt lat="43.22056" lon="5.46451">
        <ele>521.17</ele>
        <time>2020-03-15T14:42:21Z</time>
      </trkpt>
      <trkpt lat="43.2206" lon="5.4645">
        <ele>519.73</ele>
        <time>2020-03-15T14:42:31Z</time>
      </trkpt>
      <trkpt lat="43.22067" lon="5.4645">
        <ele>516.85</ele>
        <time>2020-03-15T14:42:44Z</time>
      </trkpt>
      <trkpt lat="43.22074" lon="5.4645">
        <ele>514.92</ele>
        <time>2020-03-15T14:42:56Z</time>
      </trkpt>
      <trkpt lat="43.22079" lon="5.46454">
        <ele>511.56</ele>
        <time>2020-03-15T14:43:07Z</time>
      </trkpt>
      <trkpt lat="43.22087" lon="5.46461">
        <ele>508.19</ele>
        <time>2020-03-15T14:43:21Z</time>
      </trkpt>
      <trkpt lat="43.22095" lon="5.46468">
        <ele>506.27</ele>
        <time>2020-03-15T14:43:34Z</time>
      </trkpt>
      <trkpt lat="43.22104" lon="5.46473">
        <ele>503.87</ele>
        <time>2020-03-15T14:43:46Z</time>
      </trkpt>
      <trkpt lat="43.22112" lon="5.46481">
        <ele>501.95</ele>
        <time>2020-03-15T14:43:58Z</time>
      </trkpt>
      <trkpt lat="43.2212" lon="5.4649">
        <ele>499.06</ele>
        <time>2020-03-15T14:44:11Z</time>
      </trkpt>
      <trkpt lat="43.22129" lon="5.46493">
        <ele>496.66</ele>
        <time>2020-03-15T14:44:22Z</time>
      </trkpt>
      <trkpt lat="43.22139" lon="5.46497">
        <ele>494.74</ele>
        <time>2020-03-15T14:44:35Z</time>
      </trkpt>
      <trkpt lat="43.22147" lon="5.46499">
        <ele>493.77</ele>
        <time>2020-03-15T14:44:45Z</time>
      </trkpt>
      <trkpt lat="43.22156" lon="5.46503">
        <ele>491.85</ele>
        <time>2020-03-15T14:44:58Z</time>
      </trkpt>
      <trkpt lat="43.22166" lon="5.4651">
        <ele>489.93</ele>
        <time>2020-03-15T14:45:12Z</time>
      </trkpt>
      <trkpt lat="43.22177" lon="5.46518">
        <ele>490.89</ele>
        <time>2020-03-15T14:45:23Z</time>
      </trkpt>
      <trkpt lat="43.22185" lon="5.46526">
        <ele>490.41</ele>
        <time>2020-03-15T14:45:36Z</time>
      </trkpt>
      <trkpt lat="43.22195" lon="5.46534">
        <ele>490.41</ele>
        <time>2020-03-15T14:45:47Z</time>
      </trkpt>
      <trkpt lat="43.22201" lon="5.46534">
        <ele>491.37</ele>
        <time>2020-03-15T14:46:00Z</time>
      </trkpt>
      <trkpt lat="43.22207" lon="5.46539">
        <ele>492.33</ele>
        <time>2020-03-15T14:46:20Z</time>
      </trkpt>
      <trkpt lat="43.22214" lon="5.46546">
        <ele>489.93</ele>
        <time>2020-03-15T14:46:31Z</time>
      </trkpt>
      <trkpt lat="43.22222" lon="5.46553">
        <ele>488.01</ele>
        <time>2020-03-15T14:46:43Z</time>
      </trkpt>
      <trkpt lat="43.2223" lon="5.46561">
        <ele>484.16</ele>
        <time>2020-03-15T14:46:56Z</time>
      </trkpt>
      <trkpt lat="43.22238" lon="5.46572">
        <ele>481.28</ele>
        <time>2020-03-15T14:47:08Z</time>
      </trkpt>
      <trkpt lat="43.22244" lon="5.4658">
        <ele>478.39</ele>
        <time>2020-03-15T14:47:18Z</time>
      </trkpt>
      <trkpt lat="43.22253" lon="5.46588">
        <ele>476.95</ele>
        <time>2020-03-15T14:47:31Z</time>
      </trkpt>
      <trkpt lat="43.22259" lon="5.46594">
        <ele>475.03</ele>
        <time>2020-03-15T14:47:39Z</time>
      </trkpt>
      <trkpt lat="43.22269" lon="5.46601">
        <ele>473.59</ele>
        <time>2020-03-15T14:47:52Z</time>
      </trkpt>
      <trkpt lat="43.22277" lon="5.46612">
        <ele>471.66</ele>
        <time>2020-03-15T14:48:05Z</time>
      </trkpt>
      <trkpt lat="43.22284" lon="5.46623">
        <ele>470.7</ele>
        <time>2020-03-15T14:48:18Z</time>
      </trkpt>
      <trkpt lat="43.22292" lon="5.46634">
        <ele>469.74</ele>
        <time>2020-03-15T14:48:30Z</time>
      </trkpt>
      <trkpt lat="43.22292" lon="5.46635">
        <ele>469.26</ele>
        <time>2020-03-15T14:48:31Z</time>
      </trkpt>
      <trkpt lat="43.22302" lon="5.46649">
        <ele>468.78</ele>
        <time>2020-03-15T14:48:45Z</time>
      </trkpt>
      <trkpt lat="43.22309" lon="5.46662">
        <ele>467.34</ele>
        <time>2020-03-15T14:48:59Z</time>
      </trkpt>
      <trkpt lat="43.22313" lon="5.46675">
        <ele>466.38</ele>
        <time>2020-03-15T14:49:10Z</time>
      </trkpt>
      <trkpt lat="43.22313" lon="5.46676">
        <ele>466.38</ele>
        <time>2020-03-15T14:49:11Z</time>
      </trkpt>
      <trkpt lat="43.2232" lon="5.46688">
        <ele>463.97</ele>
        <time>2020-03-15T14:49:24Z</time>
      </trkpt>
      <trkpt lat="43.22327" lon="5.46701">
        <ele>462.53</ele>
        <time>2020-03-15T14:49:39Z</time>
      </trkpt>
      <trkpt lat="43.22334" lon="5.46713">
        <ele>460.61</ele>
        <time>2020-03-15T14:49:52Z</time>
      </trkpt>
      <trkpt lat="43.22339" lon="5.46718">
        <ele>462.05</ele>
        <time>2020-03-15T14:50:17Z</time>
      </trkpt>
      <trkpt lat="43.22342" lon="5.46716">
        <ele>463.01</ele>
        <time>2020-03-15T14:50:41Z</time>
      </trkpt>
      <trkpt lat="43.22343" lon="5.46725">
        <ele>459.65</ele>
        <time>2020-03-15T14:50:51Z</time>
      </trkpt>
      <trkpt lat="43.22351" lon="5.46739">
        <ele>456.28</ele>
        <time>2020-03-15T14:51:08Z</time>
      </trkpt>
      <trkpt lat="43.22354" lon="5.46744">
        <ele>455.8</ele>
        <time>2020-03-15T14:51:14Z</time>
      </trkpt>
      <trkpt lat="43.22354" lon="5.46747">
        <ele>455.32</ele>
        <time>2020-03-15T14:51:17Z</time>
      </trkpt>
      <trkpt lat="43.22352" lon="5.46762">
        <ele>452.44</ele>
        <time>2020-03-15T14:51:30Z</time>
      </trkpt>
      <trkpt lat="43.22353" lon="5.46772">
        <ele>450.52</ele>
        <time>2020-03-15T14:51:42Z</time>
      </trkpt>
      <trkpt lat="43.2235" lon="5.46787">
        <ele>448.59</ele>
        <time>2020-03-15T14:51:54Z</time>
      </trkpt>
      <trkpt lat="43.22343" lon="5.46804">
        <ele>447.15</ele>
        <time>2020-03-15T14:52:10Z</time>
      </trkpt>
      <trkpt lat="43.22338" lon="5.4681">
        <ele>445.71</ele>
        <time>2020-03-15T14:52:18Z</time>
      </trkpt>
      <trkpt lat="43.22333" lon="5.46814">
        <ele>443.79</ele>
        <time>2020-03-15T14:52:27Z</time>
      </trkpt>
      <trkpt lat="43.22331" lon="5.46815">
        <ele>443.79</ele>
        <time>2020-03-15T14:52:30Z</time>
      </trkpt>
      <trkpt lat="43.22321" lon="5.46814">
        <ele>442.82</ele>
        <time>2020-03-15T14:52:43Z</time>
      </trkpt>
      <trkpt lat="43.22312" lon="5.46815">
        <ele>440.9</ele>
        <time>2020-03-15T14:52:53Z</time>
      </trkpt>
      <trkpt lat="43.22303" lon="5.46819">
        <ele>437.54</ele>
        <time>2020-03-15T14:53:05Z</time>
      </trkpt>
      <trkpt lat="43.22293" lon="5.46819">
        <ele>436.1</ele>
        <time>2020-03-15T14:53:15Z</time>
      </trkpt>
      <trkpt lat="43.22282" lon="5.46818">
        <ele>436.58</ele>
        <time>2020-03-15T14:53:26Z</time>
      </trkpt>
      <trkpt lat="43.22273" lon="5.46817">
        <ele>436.58</ele>
        <time>2020-03-15T14:53:40Z</time>
      </trkpt>
      <trkpt lat="43.22256" lon="5.46822">
        <ele>433.69</ele>
        <time>2020-03-15T14:53:55Z</time>
      </trkpt>
      <trkpt lat="43.22253" lon="5.46823">
        <ele>433.21</ele>
        <time>2020-03-15T14:53:57Z</time>
      </trkpt>
      <trkpt lat="43.22249" lon="5.46832">
        <ele>430.33</ele>
        <time>2020-03-15T14:54:07Z</time>
      </trkpt>
      <trkpt lat="43.2225" lon="5.46843">
        <ele>427.44</ele>
        <time>2020-03-15T14:54:18Z</time>
      </trkpt>
      <trkpt lat="43.22248" lon="5.46857">
        <ele>423.6</ele>
        <time>2020-03-15T14:54:31Z</time>
      </trkpt>
      <trkpt lat="43.22248" lon="5.46862">
        <ele>423.12</ele>
        <time>2020-03-15T14:54:35Z</time>
      </trkpt>
      <trkpt lat="43.22247" lon="5.4688">
        <ele>421.68</ele>
        <time>2020-03-15T14:54:47Z</time>
      </trkpt>
      <trkpt lat="43.22247" lon="5.46893">
        <ele>420.23</ele>
        <time>2020-03-15T14:55:00Z</time>
      </trkpt>
      <trkpt lat="43.22247" lon="5.46905">
        <ele>417.83</ele>
        <time>2020-03-15T14:55:11Z</time>
      </trkpt>
      <trkpt lat="43.22253" lon="5.46919">
        <ele>414.47</ele>
        <time>2020-03-15T14:55:27Z</time>
      </trkpt>
      <trkpt lat="43.22264" lon="5.46924">
        <ele>411.1</ele>
        <time>2020-03-15T14:55:39Z</time>
      </trkpt>
      <trkpt lat="43.22263" lon="5.46923">
        <ele>411.1</ele>
        <time>2020-03-15T14:56:08Z</time>
      </trkpt>
      <trkpt lat="43.22264" lon="5.46924">
        <ele>409.66</ele>
        <time>2020-03-15T14:56:44Z</time>
      </trkpt>
      <trkpt lat="43.22263" lon="5.46925">
        <ele>405.81</ele>
        <time>2020-03-15T14:57:13Z</time>
      </trkpt>
      <trkpt lat="43.22271" lon="5.46925">
        <ele>405.33</ele>
        <time>2020-03-15T14:57:22Z</time>
      </trkpt>
      <trkpt lat="43.22282" lon="5.46922">
        <ele>402.45</ele>
        <time>2020-03-15T14:57:37Z</time>
      </trkpt>
      <trkpt lat="43.22287" lon="5.46927">
        <ele>400.53</ele>
        <time>2020-03-15T14:57:48Z</time>
      </trkpt>
      <trkpt lat="43.22295" lon="5.46936">
        <ele>398.6</ele>
        <time>2020-03-15T14:57:59Z</time>
      </trkpt>
      <trkpt lat="43.22299" lon="5.4694">
        <ele>398.12</ele>
        <time>2020-03-15T14:58:03Z</time>
      </trkpt>
      <trkpt lat="43.22301" lon="5.46942">
        <ele>398.12</ele>
        <time>2020-03-15T14:58:05Z</time>
      </trkpt>
      <trkpt lat="43.22313" lon="5.46948">
        <ele>398.12</ele>
        <time>2020-03-15T14:58:17Z</time>
      </trkpt>
      <trkpt lat="43.22325" lon="5.46954">
        <ele>396.2</ele>
        <time>2020-03-15T14:58:31Z</time>
      </trkpt>
      <trkpt lat="43.22338" lon="5.46958">
        <ele>394.28</ele>
        <time>2020-03-15T14:58:43Z</time>
      </trkpt>
      <trkpt lat="43.22351" lon="5.46959">
        <ele>393.8</ele>
        <time>2020-03-15T14:58:55Z</time>
      </trkpt>
      <trkpt lat="43.22363" lon="5.4696">
        <ele>389.95</ele>
        <time>2020-03-15T14:59:09Z</time>
      </trkpt>
      <trkpt lat="43.22372" lon="5.46961">
        <ele>386.59</ele>
        <time>2020-03-15T14:59:21Z</time>
      </trkpt>
      <trkpt lat="43.2238" lon="5.46963">
        <ele>383.7</ele>
        <time>2020-03-15T14:59:32Z</time>
      </trkpt>
      <trkpt lat="43.22392" lon="5.46968">
        <ele>379.86</ele>
        <time>2020-03-15T14:59:46Z</time>
      </trkpt>
      <trkpt lat="43.22399" lon="5.4697">
        <ele>378.9</ele>
        <time>2020-03-15T14:59:55Z</time>
      </trkpt>
      <trkpt lat="43.22406" lon="5.46977">
        <ele>382.74</ele>
        <time>2020-03-15T15:00:06Z</time>
      </trkpt>
      <trkpt lat="43.2242" lon="5.46979">
        <ele>388.51</ele>
        <time>2020-03-15T15:00:21Z</time>
      </trkpt>
      <trkpt lat="43.22432" lon="5.46976">
        <ele>391.39</ele>
        <time>2020-03-15T15:00:44Z</time>
      </trkpt>
      <trkpt lat="43.22444" lon="5.46978">
        <ele>393.32</ele>
        <time>2020-03-15T15:00:55Z</time>
      </trkpt>
      <trkpt lat="43.22446" lon="5.46978">
        <ele>393.32</ele>
        <time>2020-03-15T15:00:57Z</time>
      </trkpt>
      <trkpt lat="43.22452" lon="5.46978">
        <ele>394.28</ele>
        <time>2020-03-15T15:01:01Z</time>
      </trkpt>
      <trkpt lat="43.22454" lon="5.46978">
        <ele>394.76</ele>
        <time>2020-03-15T15:01:02Z</time>
      </trkpt>
      <trkpt lat="43.22463" lon="5.46976">
        <ele>396.2</ele>
        <time>2020-03-15T15:01:12Z</time>
      </trkpt>
      <trkpt lat="43.22465" lon="5.46979">
        <ele>397.16</ele>
        <time>2020-03-15T15:01:15Z</time>
      </trkpt>
      <trkpt lat="43.22466" lon="5.4698">
        <ele>397.16</ele>
        <time>2020-03-15T15:01:16Z</time>
      </trkpt>
      <trkpt lat="43.22478" lon="5.4698">
        <ele>398.6</ele>
        <time>2020-03-15T15:01:30Z</time>
      </trkpt>
      <trkpt lat="43.2249" lon="5.4698">
        <ele>398.12</ele>
        <time>2020-03-15T15:01:43Z</time>
      </trkpt>
      <trkpt lat="43.22505" lon="5.46978">
        <ele>396.68</ele>
        <time>2020-03-15T15:01:56Z</time>
      </trkpt>
      <trkpt lat="43.22511" lon="5.46975">
        <ele>395.72</ele>
        <time>2020-03-15T15:02:06Z</time>
      </trkpt>
      <trkpt lat="43.22518" lon="5.4698">
        <ele>393.32</ele>
        <time>2020-03-15T15:02:16Z</time>
      </trkpt>
      <trkpt lat="43.22525" lon="5.46986">
        <ele>385.15</ele>
        <time>2020-03-15T15:02:29Z</time>
      </trkpt>
      <trkpt lat="43.22527" lon="5.46986">
        <ele>376.49</ele>
        <time>2020-03-15T15:02:38Z</time>
      </trkpt>
      <trkpt lat="43.22531" lon="5.46986">
        <ele>368.8</ele>
        <time>2020-03-15T15:02:49Z</time>
      </trkpt>
      <trkpt lat="43.22533" lon="5.46986">
        <ele>362.07</ele>
        <time>2020-03-15T15:02:59Z</time>
      </trkpt>
      <trkpt lat="43.22538" lon="5.46989">
        <ele>358.23</ele>
        <time>2020-03-15T15:03:11Z</time>
      </trkpt>
      <trkpt lat="43.22538" lon="5.46989">
        <ele>355.83</ele>
        <time>2020-03-15T15:03:29Z</time>
      </trkpt>
      <trkpt lat="43.22535" lon="5.46993">
        <ele>357.75</ele>
        <time>2020-03-15T15:03:49Z</time>
      </trkpt>
      <trkpt lat="43.22542" lon="5.46992">
        <ele>357.27</ele>
        <time>2020-03-15T15:04:02Z</time>
      </trkpt>
      <trkpt lat="43.22548" lon="5.46999">
        <ele>358.71</ele>
        <time>2020-03-15T15:04:16Z</time>
      </trkpt>
      <trkpt lat="43.22558" lon="5.46999">
        <ele>357.27</ele>
        <time>2020-03-15T15:04:27Z</time>
      </trkpt>
      <trkpt lat="43.2257" lon="5.46999">
        <ele>358.23</ele>
        <time>2020-03-15T15:04:40Z</time>
      </trkpt>
      <trkpt lat="43.22584" lon="5.46997">
        <ele>360.15</ele>
        <time>2020-03-15T15:04:52Z</time>
      </trkpt>
      <trkpt lat="43.22598" lon="5.46997">
        <ele>363.04</ele>
        <time>2020-03-15T15:05:03Z</time>
      </trkpt>
      <trkpt lat="43.22603" lon="5.46996">
        <ele>362.55</ele>
        <time>2020-03-15T15:05:12Z</time>
      </trkpt>
      <trkpt lat="43.22616" lon="5.46993">
        <ele>360.15</ele>
        <time>2020-03-15T15:05:22Z</time>
      </trkpt>
      <trkpt lat="43.22616" lon="5.4699">
        <ele>354.86</ele>
        <time>2020-03-15T15:05:31Z</time>
      </trkpt>
      <trkpt lat="43.22617" lon="5.46985">
        <ele>350.54</ele>
        <time>2020-03-15T15:05:36Z</time>
      </trkpt>
      <trkpt lat="43.22623" lon="5.46977">
        <ele>346.21</ele>
        <time>2020-03-15T15:05:46Z</time>
      </trkpt>
      <trkpt lat="43.22626" lon="5.46969">
        <ele>345.73</ele>
        <time>2020-03-15T15:05:57Z</time>
      </trkpt>
      <trkpt lat="43.2263" lon="5.46957">
        <ele>344.29</ele>
        <time>2020-03-15T15:06:11Z</time>
      </trkpt>
      <trkpt lat="43.22633" lon="5.46943">
        <ele>340.92</ele>
        <time>2020-03-15T15:06:23Z</time>
      </trkpt>
      <trkpt lat="43.22635" lon="5.46938">
        <ele>339.48</ele>
        <time>2020-03-15T15:06:29Z</time>
      </trkpt>
      <trkpt lat="43.22644" lon="5.46928">
        <ele>339</ele>
        <time>2020-03-15T15:06:41Z</time>
      </trkpt>
      <trkpt lat="43.22644" lon="5.46926">
        <ele>339</ele>
        <time>2020-03-15T15:06:42Z</time>
      </trkpt>
      <trkpt lat="43.22646" lon="5.46913">
        <ele>337.08</ele>
        <time>2020-03-15T15:06:53Z</time>
      </trkpt>
      <trkpt lat="43.22649" lon="5.46908">
        <ele>331.79</ele>
        <time>2020-03-15T15:06:58Z</time>
      </trkpt>
      <trkpt lat="43.22657" lon="5.469">
        <ele>327.47</ele>
        <time>2020-03-15T15:07:09Z</time>
      </trkpt>
      <trkpt lat="43.22666" lon="5.46891">
        <ele>326.99</ele>
        <time>2020-03-15T15:07:21Z</time>
      </trkpt>
      <trkpt lat="43.22678" lon="5.46888">
        <ele>329.39</ele>
        <time>2020-03-15T15:07:33Z</time>
      </trkpt>
      <trkpt lat="43.22686" lon="5.46888">
        <ele>330.83</ele>
        <time>2020-03-15T15:07:42Z</time>
      </trkpt>
      <trkpt lat="43.22697" lon="5.46878">
        <ele>333.23</ele>
        <time>2020-03-15T15:07:55Z</time>
      </trkpt>
      <trkpt lat="43.22709" lon="5.46864">
        <ele>330.35</ele>
        <time>2020-03-15T15:08:07Z</time>
      </trkpt>
      <trkpt lat="43.22711" lon="5.46854">
        <ele>325.54</ele>
        <time>2020-03-15T15:08:18Z</time>
      </trkpt>
      <trkpt lat="43.22712" lon="5.46853">
        <ele>324.58</ele>
        <time>2020-03-15T15:08:19Z</time>
      </trkpt>
      <trkpt lat="43.22719" lon="5.46838">
        <ele>320.26</ele>
        <time>2020-03-15T15:08:32Z</time>
      </trkpt>
      <trkpt lat="43.22725" lon="5.46828">
        <ele>318.81</ele>
        <time>2020-03-15T15:08:39Z</time>
      </trkpt>
      <trkpt lat="43.22729" lon="5.46815">
        <ele>316.89</ele>
        <time>2020-03-15T15:08:49Z</time>
      </trkpt>
      <trkpt lat="43.22726" lon="5.46804">
        <ele>314.49</ele>
        <time>2020-03-15T15:09:02Z</time>
      </trkpt>
      <trkpt lat="43.22711" lon="5.46797">
        <ele>313.53</ele>
        <time>2020-03-15T15:09:22Z</time>
      </trkpt>
      <trkpt lat="43.22713" lon="5.46799">
        <ele>312.57</ele>
        <time>2020-03-15T15:09:57Z</time>
      </trkpt>
      <trkpt lat="43.22711" lon="5.46795">
        <ele>311.12</ele>
        <time>2020-03-15T15:10:20Z</time>
      </trkpt>
      <trkpt lat="43.22709" lon="5.46799">
        <ele>313.05</ele>
        <time>2020-03-15T15:10:36Z</time>
      </trkpt>
      <trkpt lat="43.2271" lon="5.46801">
        <ele>313.05</ele>
        <time>2020-03-15T15:10:57Z</time>
      </trkpt>
      <trkpt lat="43.22709" lon="5.46803">
        <ele>312.57</ele>
        <time>2020-03-15T15:11:21Z</time>
      </trkpt>
      <trkpt lat="43.22709" lon="5.46801">
        <ele>311.6</ele>
        <time>2020-03-15T15:11:39Z</time>
      </trkpt>
      <trkpt lat="43.2271" lon="5.46798">
        <ele>313.53</ele>
        <time>2020-03-15T15:12:02Z</time>
      </trkpt>
      <trkpt lat="43.22711" lon="5.46799">
        <ele>308.24</ele>
        <time>2020-03-15T15:12:40Z</time>
      </trkpt>
      <trkpt lat="43.2271" lon="5.46798">
        <ele>309.2</ele>
        <time>2020-03-15T15:13:14Z</time>
      </trkpt>
      <trkpt lat="43.22711" lon="5.468">
        <ele>306.32</ele>
        <time>2020-03-15T15:13:43Z</time>
      </trkpt>
      <trkpt lat="43.22708" lon="5.46801">
        <ele>308.72</ele>
        <time>2020-03-15T15:14:02Z</time>
      </trkpt>
      <trkpt lat="43.22707" lon="5.46802">
        <ele>309.68</ele>
        <time>2020-03-15T15:14:24Z</time>
      </trkpt>
      <trkpt lat="43.2271" lon="5.46798">
        <ele>308.72</ele>
        <time>2020-03-15T15:14:46Z</time>
      </trkpt>
      <trkpt lat="43.22709" lon="5.46798">
        <ele>310.16</ele>
        <time>2020-03-15T15:14:57Z</time>
      </trkpt>
      <trkpt lat="43.22717" lon="5.468">
        <ele>312.57</ele>
        <time>2020-03-15T15:15:10Z</time>
      </trkpt>
      <trkpt lat="43.22724" lon="5.46794">
        <ele>313.53</ele>
        <time>2020-03-15T15:15:23Z</time>
      </trkpt>
      <trkpt lat="43.22729" lon="5.46781">
        <ele>315.93</ele>
        <time>2020-03-15T15:15:37Z</time>
      </trkpt>
      <trkpt lat="43.22747" lon="5.46766">
        <ele>314.01</ele>
        <time>2020-03-15T15:15:50Z</time>
      </trkpt>
      <trkpt lat="43.22758" lon="5.46763">
        <ele>311.6</ele>
        <time>2020-03-15T15:16:03Z</time>
      </trkpt>
      <trkpt lat="43.2277" lon="5.46761">
        <ele>312.57</ele>
        <time>2020-03-15T15:16:14Z</time>
      </trkpt>
      <trkpt lat="43.22778" lon="5.46759">
        <ele>314.97</ele>
        <time>2020-03-15T15:16:22Z</time>
      </trkpt>
      <trkpt lat="43.22789" lon="5.46741">
        <ele>316.89</ele>
        <time>2020-03-15T15:16:37Z</time>
      </trkpt>
      <trkpt lat="43.22792" lon="5.46736">
        <ele>318.33</ele>
        <time>2020-03-15T15:16:42Z</time>
      </trkpt>
      <trkpt lat="43.228" lon="5.46717">
        <ele>317.85</ele>
        <time>2020-03-15T15:16:56Z</time>
      </trkpt>
      <trkpt lat="43.22806" lon="5.46696">
        <ele>310.16</ele>
        <time>2020-03-15T15:17:10Z</time>
      </trkpt>
      <trkpt lat="43.22812" lon="5.46679">
        <ele>307.28</ele>
        <time>2020-03-15T15:17:23Z</time>
      </trkpt>
      <trkpt lat="43.22815" lon="5.46663">
        <ele>305.36</ele>
        <time>2020-03-15T15:17:32Z</time>
      </trkpt>
      <trkpt lat="43.22816" lon="5.46645">
        <ele>304.39</ele>
        <time>2020-03-15T15:17:43Z</time>
      </trkpt>
      <trkpt lat="43.22816" lon="5.4663">
        <ele>302.95</ele>
        <time>2020-03-15T15:17:54Z</time>
      </trkpt>
      <trkpt lat="43.22816" lon="5.46625">
        <ele>302.47</ele>
        <time>2020-03-15T15:17:57Z</time>
      </trkpt>
      <trkpt lat="43.22818" lon="5.46607">
        <ele>300.55</ele>
        <time>2020-03-15T15:18:09Z</time>
      </trkpt>
      <trkpt lat="43.22823" lon="5.46594">
        <ele>301.51</ele>
        <time>2020-03-15T15:18:23Z</time>
      </trkpt>
      <trkpt lat="43.22823" lon="5.46593">
        <ele>301.99</ele>
        <time>2020-03-15T15:18:24Z</time>
      </trkpt>
      <trkpt lat="43.22827" lon="5.46581">
        <ele>303.91</ele>
        <time>2020-03-15T15:18:37Z</time>
      </trkpt>
      <trkpt lat="43.22832" lon="5.46565">
        <ele>304.39</ele>
        <time>2020-03-15T15:18:52Z</time>
      </trkpt>
      <trkpt lat="43.22836" lon="5.46555">
        <ele>304.88</ele>
        <time>2020-03-15T15:19:05Z</time>
      </trkpt>
      <trkpt lat="43.22837" lon="5.46555">
        <ele>304.88</ele>
        <time>2020-03-15T15:19:06Z</time>
      </trkpt>
      <trkpt lat="43.22842" lon="5.46543">
        <ele>307.28</ele>
        <time>2020-03-15T15:19:20Z</time>
      </trkpt>
      <trkpt lat="43.22845" lon="5.46538">
        <ele>309.68</ele>
        <time>2020-03-15T15:19:40Z</time>
      </trkpt>
      <trkpt lat="43.22848" lon="5.46536">
        <ele>312.57</ele>
        <time>2020-03-15T15:19:59Z</time>
      </trkpt>
      <trkpt lat="43.22851" lon="5.46527">
        <ele>313.05</ele>
        <time>2020-03-15T15:20:11Z</time>
      </trkpt>
      <trkpt lat="43.22856" lon="5.46518">
        <ele>314.01</ele>
        <time>2020-03-15T15:20:23Z</time>
      </trkpt>
      <trkpt lat="43.22861" lon="5.46507">
        <ele>314.97</ele>
        <time>2020-03-15T15:20:37Z</time>
      </trkpt>
      <trkpt lat="43.22867" lon="5.46497">
        <ele>316.41</ele>
        <time>2020-03-15T15:20:52Z</time>
      </trkpt>
      <trkpt lat="43.22874" lon="5.4649">
        <ele>319.3</ele>
        <time>2020-03-15T15:21:06Z</time>
      </trkpt>
      <trkpt lat="43.22882" lon="5.46482">
        <ele>323.14</ele>
        <time>2020-03-15T15:21:20Z</time>
      </trkpt>
      <trkpt lat="43.22887" lon="5.46473">
        <ele>324.1</ele>
        <time>2020-03-15T15:21:31Z</time>
      </trkpt>
      <trkpt lat="43.22892" lon="5.46466">
        <ele>324.1</ele>
        <time>2020-03-15T15:21:42Z</time>
      </trkpt>
      <trkpt lat="43.22899" lon="5.46461">
        <ele>325.54</ele>
        <time>2020-03-15T15:21:55Z</time>
      </trkpt>
      <trkpt lat="43.22905" lon="5.46457">
        <ele>326.5</ele>
        <time>2020-03-15T15:22:03Z</time>
      </trkpt>
      <trkpt lat="43.22908" lon="5.46455">
        <ele>326.99</ele>
        <time>2020-03-15T15:22:08Z</time>
      </trkpt>
      <trkpt lat="43.22918" lon="5.46447">
        <ele>328.91</ele>
        <time>2020-03-15T15:22:23Z</time>
      </trkpt>
      <trkpt lat="43.22926" lon="5.46438">
        <ele>331.79</ele>
        <time>2020-03-15T15:22:37Z</time>
      </trkpt>
      <trkpt lat="43.22932" lon="5.46437">
        <ele>334.68</ele>
        <time>2020-03-15T15:22:48Z</time>
      </trkpt>
      <trkpt lat="43.22934" lon="5.46433">
        <ele>335.64</ele>
        <time>2020-03-15T15:23:03Z</time>
      </trkpt>
      <trkpt lat="43.22932" lon="5.46431">
        <ele>336.6</ele>
        <time>2020-03-15T15:23:15Z</time>
      </trkpt>
      <trkpt lat="43.22931" lon="5.46432">
        <ele>336.6</ele>
        <time>2020-03-15T15:23:16Z</time>
      </trkpt>
      <trkpt lat="43.22928" lon="5.46434">
        <ele>336.12</ele>
        <time>2020-03-15T15:23:28Z</time>
      </trkpt>
      <trkpt lat="43.22927" lon="5.46429">
        <ele>338.52</ele>
        <time>2020-03-15T15:23:49Z</time>
      </trkpt>
      <trkpt lat="43.22932" lon="5.4643">
        <ele>337.56</ele>
        <time>2020-03-15T15:24:23Z</time>
      </trkpt>
      <trkpt lat="43.22932" lon="5.46429">
        <ele>338.52</ele>
        <time>2020-03-15T15:24:39Z</time>
      </trkpt>
      <trkpt lat="43.22938" lon="5.46427">
        <ele>339</ele>
        <time>2020-03-15T15:24:57Z</time>
      </trkpt>
      <trkpt lat="43.22948" lon="5.46422">
        <ele>341.41</ele>
        <time>2020-03-15T15:25:11Z</time>
      </trkpt>
      <trkpt lat="43.22958" lon="5.46413">
        <ele>342.37</ele>
        <time>2020-03-15T15:25:26Z</time>
      </trkpt>
      <trkpt lat="43.22961" lon="5.46412">
        <ele>342.37</ele>
        <time>2020-03-15T15:25:30Z</time>
      </trkpt>
      <trkpt lat="43.22969" lon="5.46402">
        <ele>342.37</ele>
        <time>2020-03-15T15:25:44Z</time>
      </trkpt>
      <trkpt lat="43.22977" lon="5.46393">
        <ele>342.37</ele>
        <time>2020-03-15T15:25:58Z</time>
      </trkpt>
      <trkpt lat="43.22986" lon="5.4638">
        <ele>343.33</ele>
        <time>2020-03-15T15:26:14Z</time>
      </trkpt>
      <trkpt lat="43.22997" lon="5.46368">
        <ele>344.29</ele>
        <time>2020-03-15T15:26:30Z</time>
      </trkpt>
      <trkpt lat="43.23005" lon="5.4636">
        <ele>346.21</ele>
        <time>2020-03-15T15:26:44Z</time>
      </trkpt>
      <trkpt lat="43.23008" lon="5.46356">
        <ele>345.25</ele>
        <time>2020-03-15T15:27:05Z</time>
      </trkpt>
      <trkpt lat="43.2301" lon="5.46355">
        <ele>345.25</ele>
        <time>2020-03-15T15:27:07Z</time>
      </trkpt>
      <trkpt lat="43.23016" lon="5.46348">
        <ele>344.29</ele>
        <time>2020-03-15T15:27:15Z</time>
      </trkpt>
      <trkpt lat="43.23017" lon="5.46347">
        <ele>344.29</ele>
        <time>2020-03-15T15:27:16Z</time>
      </trkpt>
      <trkpt lat="43.23023" lon="5.46342">
        <ele>343.33</ele>
        <time>2020-03-15T15:27:23Z</time>
      </trkpt>
      <trkpt lat="43.23024" lon="5.46341">
        <ele>343.33</ele>
        <time>2020-03-15T15:27:25Z</time>
      </trkpt>
      <trkpt lat="43.23027" lon="5.4634">
        <ele>342.85</ele>
        <time>2020-03-15T15:27:28Z</time>
      </trkpt>
      <trkpt lat="43.23036" lon="5.46334">
        <ele>342.37</ele>
        <time>2020-03-15T15:27:38Z</time>
      </trkpt>
      <trkpt lat="43.23037" lon="5.46333">
        <ele>342.37</ele>
        <time>2020-03-15T15:27:39Z</time>
      </trkpt>
      <trkpt lat="43.23038" lon="5.46332">
        <ele>342.37</ele>
        <time>2020-03-15T15:27:40Z</time>
      </trkpt>
      <trkpt lat="43.23045" lon="5.46325">
        <ele>341.89</ele>
        <time>2020-03-15T15:27:50Z</time>
      </trkpt>
      <trkpt lat="43.2305" lon="5.46321">
        <ele>341.89</ele>
        <time>2020-03-15T15:27:56Z</time>
      </trkpt>
      <trkpt lat="43.23058" lon="5.46318">
        <ele>340.92</ele>
        <time>2020-03-15T15:28:08Z</time>
      </trkpt>
      <trkpt lat="43.2307" lon="5.4631">
        <ele>339.48</ele>
        <time>2020-03-15T15:28:22Z</time>
      </trkpt>
      <trkpt lat="43.23074" lon="5.46309">
        <ele>339.48</ele>
        <time>2020-03-15T15:28:27Z</time>
      </trkpt>
      <trkpt lat="43.23078" lon="5.46309">
        <ele>339.48</ele>
        <time>2020-03-15T15:28:31Z</time>
      </trkpt>
      <trkpt lat="43.23079" lon="5.46309">
        <ele>339.48</ele>
        <time>2020-03-15T15:28:32Z</time>
      </trkpt>
      <trkpt lat="43.2309" lon="5.46312">
        <ele>340.92</ele>
        <time>2020-03-15T15:28:44Z</time>
      </trkpt>
      <trkpt lat="43.23099" lon="5.46314">
        <ele>344.29</ele>
        <time>2020-03-15T15:28:57Z</time>
      </trkpt>
      <trkpt lat="43.23102" lon="5.46316">
        <ele>346.21</ele>
        <time>2020-03-15T15:29:02Z</time>
      </trkpt>
      <trkpt lat="43.2311" lon="5.46315">
        <ele>349.1</ele>
        <time>2020-03-15T15:29:15Z</time>
      </trkpt>
      <trkpt lat="43.23116" lon="5.46313">
        <ele>351.5</ele>
        <time>2020-03-15T15:29:26Z</time>
      </trkpt>
      <trkpt lat="43.23117" lon="5.46308">
        <ele>352.46</ele>
        <time>2020-03-15T15:29:38Z</time>
      </trkpt>
      <trkpt lat="43.23123" lon="5.46314">
        <ele>352.46</ele>
        <time>2020-03-15T15:29:54Z</time>
      </trkpt>
      <trkpt lat="43.2313" lon="5.46321">
        <ele>354.86</ele>
        <time>2020-03-15T15:30:07Z</time>
      </trkpt>
      <trkpt lat="43.23135" lon="5.46324">
        <ele>355.83</ele>
        <time>2020-03-15T15:30:23Z</time>
      </trkpt>
      <trkpt lat="43.23134" lon="5.46336">
        <ele>356.31</ele>
        <time>2020-03-15T15:30:38Z</time>
      </trkpt>
      <trkpt lat="43.23134" lon="5.46348">
        <ele>357.27</ele>
        <time>2020-03-15T15:30:52Z</time>
      </trkpt>
      <trkpt lat="43.23135" lon="5.4635">
        <ele>357.75</ele>
        <time>2020-03-15T15:31:03Z</time>
      </trkpt>
      <trkpt lat="43.23135" lon="5.4635">
        <ele>358.71</ele>
        <time>2020-03-15T15:31:25Z</time>
      </trkpt>
      <trkpt lat="43.23136" lon="5.46354">
        <ele>357.75</ele>
        <time>2020-03-15T15:31:47Z</time>
      </trkpt>
      <trkpt lat="43.23136" lon="5.46364">
        <ele>358.23</ele>
        <time>2020-03-15T15:32:00Z</time>
      </trkpt>
      <trkpt lat="43.23136" lon="5.46377">
        <ele>358.71</ele>
        <time>2020-03-15T15:32:13Z</time>
      </trkpt>
      <trkpt lat="43.23138" lon="5.4639">
        <ele>359.67</ele>
        <time>2020-03-15T15:32:27Z</time>
      </trkpt>
      <trkpt lat="43.23139" lon="5.46398">
        <ele>360.15</ele>
        <time>2020-03-15T15:32:34Z</time>
      </trkpt>
      <trkpt lat="43.23139" lon="5.46409">
        <ele>360.15</ele>
        <time>2020-03-15T15:32:45Z</time>
      </trkpt>
      <trkpt lat="43.2314" lon="5.46421">
        <ele>363.04</ele>
        <time>2020-03-15T15:32:59Z</time>
      </trkpt>
      <trkpt lat="43.23144" lon="5.46425">
        <ele>364.96</ele>
        <time>2020-03-15T15:33:13Z</time>
      </trkpt>
      <trkpt lat="43.23149" lon="5.46422">
        <ele>369.28</ele>
        <time>2020-03-15T15:33:28Z</time>
      </trkpt>
      <trkpt lat="43.23149" lon="5.46429">
        <ele>369.76</ele>
        <time>2020-03-15T15:33:43Z</time>
      </trkpt>
      <trkpt lat="43.23152" lon="5.46437">
        <ele>371.21</ele>
        <time>2020-03-15T15:33:56Z</time>
      </trkpt>
      <trkpt lat="43.23155" lon="5.46446">
        <ele>372.65</ele>
        <time>2020-03-15T15:34:09Z</time>
      </trkpt>
      <trkpt lat="43.23161" lon="5.46447">
        <ele>376.01</ele>
        <time>2020-03-15T15:34:21Z</time>
      </trkpt>
      <trkpt lat="43.23167" lon="5.46451">
        <ele>378.42</ele>
        <time>2020-03-15T15:34:34Z</time>
      </trkpt>
      <trkpt lat="43.23173" lon="5.46449">
        <ele>378.9</ele>
        <time>2020-03-15T15:34:48Z</time>
      </trkpt>
      <trkpt lat="43.23173" lon="5.46447">
        <ele>379.86</ele>
        <time>2020-03-15T15:35:05Z</time>
      </trkpt>
      <trkpt lat="43.2318" lon="5.46449">
        <ele>377.45</ele>
        <time>2020-03-15T15:35:27Z</time>
      </trkpt>
      <trkpt lat="43.23178" lon="5.46446">
        <ele>375.05</ele>
        <time>2020-03-15T15:35:50Z</time>
      </trkpt>
      <trkpt lat="43.23185" lon="5.46448">
        <ele>376.01</ele>
        <time>2020-03-15T15:36:04Z</time>
      </trkpt>
      <trkpt lat="43.23194" lon="5.46447">
        <ele>374.57</ele>
        <time>2020-03-15T15:36:16Z</time>
      </trkpt>
      <trkpt lat="43.23195" lon="5.46447">
        <ele>375.05</ele>
        <time>2020-03-15T15:36:18Z</time>
      </trkpt>
      <trkpt lat="43.23201" lon="5.46445">
        <ele>375.53</ele>
        <time>2020-03-15T15:36:25Z</time>
      </trkpt>
      <trkpt lat="43.23211" lon="5.4644">
        <ele>376.97</ele>
        <time>2020-03-15T15:36:36Z</time>
      </trkpt>
      <trkpt lat="43.2322" lon="5.46433">
        <ele>377.45</ele>
        <time>2020-03-15T15:36:50Z</time>
      </trkpt>
      <trkpt lat="43.2323" lon="5.4643">
        <ele>379.38</ele>
        <time>2020-03-15T15:37:04Z</time>
      </trkpt>
      <trkpt lat="43.23235" lon="5.46431">
        <ele>380.34</ele>
        <time>2020-03-15T15:37:10Z</time>
      </trkpt>
      <trkpt lat="43.23236" lon="5.46432">
        <ele>380.34</ele>
        <time>2020-03-15T15:37:11Z</time>
      </trkpt>
      <trkpt lat="43.23247" lon="5.46432">
        <ele>379.86</ele>
        <time>2020-03-15T15:37:24Z</time>
      </trkpt>
      <trkpt lat="43.23258" lon="5.46431">
        <ele>381.3</ele>
        <time>2020-03-15T15:37:39Z</time>
      </trkpt>
      <trkpt lat="43.23268" lon="5.46435">
        <ele>381.3</ele>
        <time>2020-03-15T15:37:52Z</time>
      </trkpt>
      <trkpt lat="43.23279" lon="5.46433">
        <ele>383.7</ele>
        <time>2020-03-15T15:38:06Z</time>
      </trkpt>
      <trkpt lat="43.23285" lon="5.46429">
        <ele>384.18</ele>
        <time>2020-03-15T15:38:14Z</time>
      </trkpt>
      <trkpt lat="43.23294" lon="5.46426">
        <ele>385.63</ele>
        <time>2020-03-15T15:38:25Z</time>
      </trkpt>
      <trkpt lat="43.23299" lon="5.46426">
        <ele>386.11</ele>
        <time>2020-03-15T15:38:36Z</time>
      </trkpt>
      <trkpt lat="43.23298" lon="5.46425">
        <ele>385.15</ele>
        <time>2020-03-15T15:39:02Z</time>
      </trkpt>
      <trkpt lat="43.23298" lon="5.46426">
        <ele>385.15</ele>
        <time>2020-03-15T15:39:22Z</time>
      </trkpt>
      <trkpt lat="43.233" lon="5.46427">
        <ele>385.15</ele>
        <time>2020-03-15T15:39:40Z</time>
      </trkpt>
      <trkpt lat="43.23303" lon="5.46428">
        <ele>384.66</ele>
        <time>2020-03-15T15:39:52Z</time>
      </trkpt>
      <trkpt lat="43.23311" lon="5.46427">
        <ele>384.18</ele>
        <time>2020-03-15T15:40:04Z</time>
      </trkpt>
      <trkpt lat="43.23317" lon="5.46429">
        <ele>385.15</ele>
        <time>2020-03-15T15:40:15Z</time>
      </trkpt>
      <trkpt lat="43.23327" lon="5.46425">
        <ele>384.66</ele>
        <time>2020-03-15T15:40:29Z</time>
      </trkpt>
      <trkpt lat="43.23334" lon="5.46417">
        <ele>384.18</ele>
        <time>2020-03-15T15:40:41Z</time>
      </trkpt>
      <trkpt lat="43.23344" lon="5.46409">
        <ele>383.7</ele>
        <time>2020-03-15T15:40:54Z</time>
      </trkpt>
      <trkpt lat="43.23351" lon="5.46402">
        <ele>383.22</ele>
        <time>2020-03-15T15:41:12Z</time>
      </trkpt>
      <trkpt lat="43.23358" lon="5.46396">
        <ele>383.7</ele>
        <time>2020-03-15T15:41:25Z</time>
      </trkpt>
      <trkpt lat="43.23369" lon="5.46387">
        <ele>385.15</ele>
        <time>2020-03-15T15:41:40Z</time>
      </trkpt>
      <trkpt lat="43.23379" lon="5.46379">
        <ele>384.66</ele>
        <time>2020-03-15T15:41:55Z</time>
      </trkpt>
      <trkpt lat="43.23382" lon="5.46372">
        <ele>385.15</ele>
        <time>2020-03-15T15:42:02Z</time>
      </trkpt>
      <trkpt lat="43.23389" lon="5.46364">
        <ele>385.15</ele>
        <time>2020-03-15T15:42:15Z</time>
      </trkpt>
      <trkpt lat="43.2339" lon="5.46362">
        <ele>385.15</ele>
        <time>2020-03-15T15:42:17Z</time>
      </trkpt>
      <trkpt lat="43.23402" lon="5.46347">
        <ele>383.7</ele>
        <time>2020-03-15T15:42:31Z</time>
      </trkpt>
      <trkpt lat="43.23407" lon="5.4634">
        <ele>383.22</ele>
        <time>2020-03-15T15:42:39Z</time>
      </trkpt>
      <trkpt lat="43.23406" lon="5.46337">
        <ele>383.22</ele>
        <time>2020-03-15T15:42:41Z</time>
      </trkpt>
      <trkpt lat="43.23406" lon="5.46335">
        <ele>382.74</ele>
        <time>2020-03-15T15:42:42Z</time>
      </trkpt>
      <trkpt lat="43.23404" lon="5.46331">
        <ele>382.74</ele>
        <time>2020-03-15T15:42:45Z</time>
      </trkpt>
      <trkpt lat="43.234" lon="5.4633">
        <ele>382.74</ele>
        <time>2020-03-15T15:42:52Z</time>
      </trkpt>
      <trkpt lat="43.23399" lon="5.46329">
        <ele>382.26</ele>
        <time>2020-03-15T15:43:02Z</time>
      </trkpt>
      <trkpt lat="43.23397" lon="5.4633">
        <ele>383.22</ele>
        <time>2020-03-15T15:43:22Z</time>
      </trkpt>
      <trkpt lat="43.23399" lon="5.46333">
        <ele>383.7</ele>
        <time>2020-03-15T15:43:38Z</time>
      </trkpt>
      <trkpt lat="43.23401" lon="5.46333">
        <ele>383.22</ele>
        <time>2020-03-15T15:43:40Z</time>
      </trkpt>
      <trkpt lat="43.23402" lon="5.46333">
        <ele>383.22</ele>
        <time>2020-03-15T15:43:41Z</time>
      </trkpt>
      <trkpt lat="43.23403" lon="5.46333">
        <ele>383.22</ele>
        <time>2020-03-15T15:43:42Z</time>
      </trkpt>
      <trkpt lat="43.23404" lon="5.46332">
        <ele>383.22</ele>
        <time>2020-03-15T15:43:43Z</time>
      </trkpt>
      <trkpt lat="43.23407" lon="5.46334">
        <ele>383.22</ele>
        <time>2020-03-15T15:43:46Z</time>
      </trkpt>
      <trkpt lat="43.23408" lon="5.46334">
        <ele>383.22</ele>
        <time>2020-03-15T15:43:47Z</time>
      </trkpt>
      <trkpt lat="43.23409" lon="5.46334">
        <ele>383.22</ele>
        <time>2020-03-15T15:43:48Z</time>
      </trkpt>
      <trkpt lat="43.23411" lon="5.46333">
        <ele>383.22</ele>
        <time>2020-03-15T15:43:49Z</time>
      </trkpt>
      <trkpt lat="43.23412" lon="5.46332">
        <ele>383.22</ele>
        <time>2020-03-15T15:43:50Z</time>
      </trkpt>
      <trkpt lat="43.23412" lon="5.46331">
        <ele>383.22</ele>
        <time>2020-03-15T15:43:51Z</time>
      </trkpt>
      <trkpt lat="43.23423" lon="5.46316">
        <ele>382.26</ele>
        <time>2020-03-15T15:44:03Z</time>
      </trkpt>
      <trkpt lat="43.23425" lon="5.46314">
        <ele>382.26</ele>
        <time>2020-03-15T15:44:05Z</time>
      </trkpt>
      <trkpt lat="43.23434" lon="5.46299">
        <ele>383.22</ele>
        <time>2020-03-15T15:44:18Z</time>
      </trkpt>
      <trkpt lat="43.23445" lon="5.46286">
        <ele>384.18</ele>
        <time>2020-03-15T15:44:30Z</time>
      </trkpt>
      <trkpt lat="43.23452" lon="5.46273">
        <ele>386.11</ele>
        <time>2020-03-15T15:44:46Z</time>
      </trkpt>
      <trkpt lat="43.23458" lon="5.46263">
        <ele>387.07</ele>
        <time>2020-03-15T15:45:04Z</time>
      </trkpt>
      <trkpt lat="43.23469" lon="5.46247">
        <ele>388.99</ele>
        <time>2020-03-15T15:45:20Z</time>
      </trkpt>
      <trkpt lat="43.23477" lon="5.46236">
        <ele>390.43</ele>
        <time>2020-03-15T15:45:32Z</time>
      </trkpt>
      <trkpt lat="43.23487" lon="5.46223">
        <ele>392.36</ele>
        <time>2020-03-15T15:45:44Z</time>
      </trkpt>
      <trkpt lat="43.23488" lon="5.46223">
        <ele>392.84</ele>
        <time>2020-03-15T15:45:45Z</time>
      </trkpt>
      <trkpt lat="43.23491" lon="5.46221">
        <ele>392.84</ele>
        <time>2020-03-15T15:45:49Z</time>
      </trkpt>
      <trkpt lat="43.23496" lon="5.46212">
        <ele>393.8</ele>
        <time>2020-03-15T15:45:59Z</time>
      </trkpt>
      <trkpt lat="43.23499" lon="5.46209">
        <ele>394.28</ele>
        <time>2020-03-15T15:46:02Z</time>
      </trkpt>
      <trkpt lat="43.23511" lon="5.46202">
        <ele>394.28</ele>
        <time>2020-03-15T15:46:15Z</time>
      </trkpt>
      <trkpt lat="43.23517" lon="5.46199">
        <ele>394.28</ele>
        <time>2020-03-15T15:46:26Z</time>
      </trkpt>
      <trkpt lat="43.23526" lon="5.4619">
        <ele>395.24</ele>
        <time>2020-03-15T15:46:41Z</time>
      </trkpt>
      <trkpt lat="43.23535" lon="5.46186">
        <ele>395.24</ele>
        <time>2020-03-15T15:46:56Z</time>
      </trkpt>
      <trkpt lat="43.23545" lon="5.46185">
        <ele>396.68</ele>
        <time>2020-03-15T15:47:12Z</time>
      </trkpt>
      <trkpt lat="43.23554" lon="5.46178">
        <ele>396.2</ele>
        <time>2020-03-15T15:47:25Z</time>
      </trkpt>
      <trkpt lat="43.23562" lon="5.46178">
        <ele>397.16</ele>
        <time>2020-03-15T15:47:40Z</time>
      </trkpt>
      <trkpt lat="43.23564" lon="5.4618">
        <ele>397.16</ele>
        <time>2020-03-15T15:47:44Z</time>
      </trkpt>
      <trkpt lat="43.2357" lon="5.46175">
        <ele>398.12</ele>
        <time>2020-03-15T15:47:56Z</time>
      </trkpt>
      <trkpt lat="43.23576" lon="5.46166">
        <ele>398.12</ele>
        <time>2020-03-15T15:48:08Z</time>
      </trkpt>
      <trkpt lat="43.23576" lon="5.46164">
        <ele>398.6</ele>
        <time>2020-03-15T15:48:36Z</time>
      </trkpt>
      <trkpt lat="43.23577" lon="5.46165">
        <ele>399.57</ele>
        <time>2020-03-15T15:48:52Z</time>
      </trkpt>
      <trkpt lat="43.23578" lon="5.46161">
        <ele>399.08</ele>
        <time>2020-03-15T15:49:13Z</time>
      </trkpt>
      <trkpt lat="43.23579" lon="5.46159">
        <ele>398.6</ele>
        <time>2020-03-15T15:49:15Z</time>
      </trkpt>
      <trkpt lat="43.23579" lon="5.46147">
        <ele>396.2</ele>
        <time>2020-03-15T15:49:27Z</time>
      </trkpt>
      <trkpt lat="43.23581" lon="5.46137">
        <ele>395.72</ele>
        <time>2020-03-15T15:49:41Z</time>
      </trkpt>
      <trkpt lat="43.23582" lon="5.46126">
        <ele>394.76</ele>
        <time>2020-03-15T15:49:54Z</time>
      </trkpt>
      <trkpt lat="43.23582" lon="5.46116">
        <ele>393.8</ele>
        <time>2020-03-15T15:50:07Z</time>
      </trkpt>
      <trkpt lat="43.23584" lon="5.46105">
        <ele>392.36</ele>
        <time>2020-03-15T15:50:20Z</time>
      </trkpt>
      <trkpt lat="43.23584" lon="5.46094">
        <ele>390.43</ele>
        <time>2020-03-15T15:50:32Z</time>
      </trkpt>
      <trkpt lat="43.23583" lon="5.46082">
        <ele>388.99</ele>
        <time>2020-03-15T15:50:45Z</time>
      </trkpt>
      <trkpt lat="43.23582" lon="5.46072">
        <ele>387.55</ele>
        <time>2020-03-15T15:50:57Z</time>
      </trkpt>
      <trkpt lat="43.2358" lon="5.46062">
        <ele>384.66</ele>
        <time>2020-03-15T15:51:10Z</time>
      </trkpt>
      <trkpt lat="43.23578" lon="5.46051">
        <ele>382.74</ele>
        <time>2020-03-15T15:51:22Z</time>
      </trkpt>
      <trkpt lat="43.23576" lon="5.46041">
        <ele>381.78</ele>
        <time>2020-03-15T15:51:35Z</time>
      </trkpt>
      <trkpt lat="43.23575" lon="5.46031">
        <ele>379.86</ele>
        <time>2020-03-15T15:51:48Z</time>
      </trkpt>
      <trkpt lat="43.23575" lon="5.46023">
        <ele>379.38</ele>
        <time>2020-03-15T15:52:00Z</time>
      </trkpt>
      <trkpt lat="43.23571" lon="5.46013">
        <ele>377.45</ele>
        <time>2020-03-15T15:52:12Z</time>
      </trkpt>
      <trkpt lat="43.23568" lon="5.46007">
        <ele>376.49</ele>
        <time>2020-03-15T15:52:19Z</time>
      </trkpt>
      <trkpt lat="43.23565" lon="5.45999">
        <ele>375.05</ele>
        <time>2020-03-15T15:52:31Z</time>
      </trkpt>
      <trkpt lat="43.23565" lon="5.45992">
        <ele>372.65</ele>
        <time>2020-03-15T15:52:46Z</time>
      </trkpt>
      <trkpt lat="43.23567" lon="5.45987">
        <ele>370.24</ele>
        <time>2020-03-15T15:53:01Z</time>
      </trkpt>
      <trkpt lat="43.2357" lon="5.4598">
        <ele>369.76</ele>
        <time>2020-03-15T15:53:15Z</time>
      </trkpt>
      <trkpt lat="43.23572" lon="5.4597">
        <ele>368.32</ele>
        <time>2020-03-15T15:53:28Z</time>
      </trkpt>
      <trkpt lat="43.23572" lon="5.45961">
        <ele>366.88</ele>
        <time>2020-03-15T15:53:41Z</time>
      </trkpt>
      <trkpt lat="43.23573" lon="5.45957">
        <ele>365.92</ele>
        <time>2020-03-15T15:53:59Z</time>
      </trkpt>
      <trkpt lat="43.23571" lon="5.45947">
        <ele>364.48</ele>
        <time>2020-03-15T15:54:12Z</time>
      </trkpt>
      <trkpt lat="43.23574" lon="5.45939">
        <ele>362.55</ele>
        <time>2020-03-15T15:54:25Z</time>
      </trkpt>
      <trkpt lat="43.23575" lon="5.45929">
        <ele>361.11</ele>
        <time>2020-03-15T15:54:37Z</time>
      </trkpt>
      <trkpt lat="43.23575" lon="5.45928">
        <ele>360.63</ele>
        <time>2020-03-15T15:54:38Z</time>
      </trkpt>
      <trkpt lat="43.23575" lon="5.45925">
        <ele>360.63</ele>
        <time>2020-03-15T15:54:40Z</time>
      </trkpt>
      <trkpt lat="43.23577" lon="5.45916">
        <ele>359.19</ele>
        <time>2020-03-15T15:54:54Z</time>
      </trkpt>
      <trkpt lat="43.23581" lon="5.45905">
        <ele>357.75</ele>
        <time>2020-03-15T15:55:07Z</time>
      </trkpt>
      <trkpt lat="43.23587" lon="5.45896">
        <ele>356.31</ele>
        <time>2020-03-15T15:55:21Z</time>
      </trkpt>
      <trkpt lat="43.23592" lon="5.45885">
        <ele>353.42</ele>
        <time>2020-03-15T15:55:34Z</time>
      </trkpt>
      <trkpt lat="43.23594" lon="5.45881">
        <ele>352.94</ele>
        <time>2020-03-15T15:55:39Z</time>
      </trkpt>
      <trkpt lat="43.23594" lon="5.45879">
        <ele>352.46</ele>
        <time>2020-03-15T15:55:41Z</time>
      </trkpt>
      <trkpt lat="43.23597" lon="5.45868">
        <ele>351.5</ele>
        <time>2020-03-15T15:55:54Z</time>
      </trkpt>
      <trkpt lat="43.23601" lon="5.45857">
        <ele>350.54</ele>
        <time>2020-03-15T15:56:06Z</time>
      </trkpt>
      <trkpt lat="43.23605" lon="5.4585">
        <ele>349.1</ele>
        <time>2020-03-15T15:56:15Z</time>
      </trkpt>
      <trkpt lat="43.23614" lon="5.4584">
        <ele>347.17</ele>
        <time>2020-03-15T15:56:27Z</time>
      </trkpt>
      <trkpt lat="43.23617" lon="5.45837">
        <ele>346.21</ele>
        <time>2020-03-15T15:56:32Z</time>
      </trkpt>
      <trkpt lat="43.23621" lon="5.45832">
        <ele>345.73</ele>
        <time>2020-03-15T15:56:38Z</time>
      </trkpt>
      <trkpt lat="43.23622" lon="5.45829">
        <ele>345.73</ele>
        <time>2020-03-15T15:56:41Z</time>
      </trkpt>
      <trkpt lat="43.23625" lon="5.45822">
        <ele>344.77</ele>
        <time>2020-03-15T15:56:48Z</time>
      </trkpt>
      <trkpt lat="43.23633" lon="5.45815">
        <ele>343.33</ele>
        <time>2020-03-15T15:56:57Z</time>
      </trkpt>
      <trkpt lat="43.23636" lon="5.45811">
        <ele>342.85</ele>
        <time>2020-03-15T15:57:02Z</time>
      </trkpt>
      <trkpt lat="43.23644" lon="5.45806">
        <ele>341.89</ele>
        <time>2020-03-15T15:57:13Z</time>
      </trkpt>
      <trkpt lat="43.23655" lon="5.45804">
        <ele>339.96</ele>
        <time>2020-03-15T15:57:26Z</time>
      </trkpt>
      <trkpt lat="43.23665" lon="5.45803">
        <ele>338.04</ele>
        <time>2020-03-15T15:57:40Z</time>
      </trkpt>
      <trkpt lat="43.23672" lon="5.45803">
        <ele>337.08</ele>
        <time>2020-03-15T15:57:48Z</time>
      </trkpt>
      <trkpt lat="43.2368" lon="5.45798">
        <ele>336.6</ele>
        <time>2020-03-15T15:57:58Z</time>
      </trkpt>
      <trkpt lat="43.23683" lon="5.45798">
        <ele>335.64</ele>
        <time>2020-03-15T15:58:01Z</time>
      </trkpt>
      <trkpt lat="43.23686" lon="5.45799">
        <ele>335.16</ele>
        <time>2020-03-15T15:58:04Z</time>
      </trkpt>
      <trkpt lat="43.23691" lon="5.45796">
        <ele>333.71</ele>
        <time>2020-03-15T15:58:09Z</time>
      </trkpt>
      <trkpt lat="43.23693" lon="5.45796">
        <ele>333.71</ele>
        <time>2020-03-15T15:58:10Z</time>
      </trkpt>
      <trkpt lat="43.23699" lon="5.45795">
        <ele>332.27</ele>
        <time>2020-03-15T15:58:16Z</time>
      </trkpt>
      <trkpt lat="43.23716" lon="5.45793">
        <ele>332.75</ele>
        <time>2020-03-15T15:58:32Z</time>
      </trkpt>
      <trkpt lat="43.23727" lon="5.45792">
        <ele>332.27</ele>
        <time>2020-03-15T15:58:43Z</time>
      </trkpt>
      <trkpt lat="43.23728" lon="5.45792">
        <ele>331.79</ele>
        <time>2020-03-15T15:58:44Z</time>
      </trkpt>
      <trkpt lat="43.23742" lon="5.45794">
        <ele>330.83</ele>
        <time>2020-03-15T15:58:58Z</time>
      </trkpt>
      <trkpt lat="43.23745" lon="5.45794">
        <ele>330.35</ele>
        <time>2020-03-15T15:59:01Z</time>
      </trkpt>
      <trkpt lat="43.23753" lon="5.45797">
        <ele>329.87</ele>
        <time>2020-03-15T15:59:08Z</time>
      </trkpt>
      <trkpt lat="43.23765" lon="5.458">
        <ele>329.39</ele>
        <time>2020-03-15T15:59:20Z</time>
      </trkpt>
      <trkpt lat="43.23769" lon="5.458">
        <ele>328.91</ele>
        <time>2020-03-15T15:59:24Z</time>
      </trkpt>
      <trkpt lat="43.2377" lon="5.45801">
        <ele>328.43</ele>
        <time>2020-03-15T15:59:25Z</time>
      </trkpt>
      <trkpt lat="43.23771" lon="5.45801">
        <ele>328.43</ele>
        <time>2020-03-15T15:59:26Z</time>
      </trkpt>
      <trkpt lat="43.23779" lon="5.45802">
        <ele>328.91</ele>
        <time>2020-03-15T15:59:39Z</time>
      </trkpt>
      <trkpt lat="43.23786" lon="5.45802">
        <ele>329.39</ele>
        <time>2020-03-15T15:59:49Z</time>
      </trkpt>
      <trkpt lat="43.23787" lon="5.45802">
        <ele>329.39</ele>
        <time>2020-03-15T15:59:50Z</time>
      </trkpt>
      <trkpt lat="43.23788" lon="5.45802">
        <ele>329.39</ele>
        <time>2020-03-15T15:59:51Z</time>
      </trkpt>
      <trkpt lat="43.23789" lon="5.45801">
        <ele>329.39</ele>
        <time>2020-03-15T15:59:52Z</time>
      </trkpt>
      <trkpt lat="43.2379" lon="5.458">
        <ele>329.39</ele>
        <time>2020-03-15T15:59:53Z</time>
      </trkpt>
      <trkpt lat="43.23798" lon="5.45794">
        <ele>328.43</ele>
        <time>2020-03-15T16:00:02Z</time>
      </trkpt>
      <trkpt lat="43.23799" lon="5.45792">
        <ele>327.95</ele>
        <time>2020-03-15T16:00:03Z</time>
      </trkpt>
      <trkpt lat="43.23804" lon="5.45787">
        <ele>327.47</ele>
        <time>2020-03-15T16:00:09Z</time>
      </trkpt>
      <trkpt lat="43.23805" lon="5.45786">
        <ele>327.95</ele>
        <time>2020-03-15T16:00:10Z</time>
      </trkpt>
      <trkpt lat="43.23812" lon="5.45783">
        <ele>327.95</ele>
        <time>2020-03-15T16:00:17Z</time>
      </trkpt>
      <trkpt lat="43.23813" lon="5.45782">
        <ele>327.95</ele>
        <time>2020-03-15T16:00:18Z</time>
      </trkpt>
      <trkpt lat="43.23827" lon="5.45775">
        <ele>328.91</ele>
        <time>2020-03-15T16:00:32Z</time>
      </trkpt>
      <trkpt lat="43.23829" lon="5.45774">
        <ele>328.91</ele>
        <time>2020-03-15T16:00:34Z</time>
      </trkpt>
      <trkpt lat="43.23831" lon="5.45774">
        <ele>328.91</ele>
        <time>2020-03-15T16:00:35Z</time>
      </trkpt>
      <trkpt lat="43.23832" lon="5.45774">
        <ele>328.91</ele>
        <time>2020-03-15T16:00:37Z</time>
      </trkpt>
      <trkpt lat="43.23835" lon="5.45773">
        <ele>328.91</ele>
        <time>2020-03-15T16:00:39Z</time>
      </trkpt>
      <trkpt lat="43.23838" lon="5.45772">
        <ele>329.39</ele>
        <time>2020-03-15T16:00:42Z</time>
      </trkpt>
      <trkpt lat="43.23841" lon="5.45771">
        <ele>329.87</ele>
        <time>2020-03-15T16:00:45Z</time>
      </trkpt>
      <trkpt lat="43.23848" lon="5.45768">
        <ele>329.87</ele>
        <time>2020-03-15T16:00:52Z</time>
      </trkpt>
      <trkpt lat="43.2385" lon="5.45766">
        <ele>329.87</ele>
        <time>2020-03-15T16:00:54Z</time>
      </trkpt>
      <trkpt lat="43.23853" lon="5.45764">
        <ele>329.87</ele>
        <time>2020-03-15T16:00:57Z</time>
      </trkpt>
      <trkpt lat="43.23855" lon="5.45762">
        <ele>329.87</ele>
        <time>2020-03-15T16:00:59Z</time>
      </trkpt>
      <trkpt lat="43.23867" lon="5.45754">
        <ele>330.83</ele>
        <time>2020-03-15T16:01:12Z</time>
      </trkpt>
      <trkpt lat="43.23868" lon="5.45753">
        <ele>330.83</ele>
        <time>2020-03-15T16:01:13Z</time>
      </trkpt>
      <trkpt lat="43.23869" lon="5.45752">
        <ele>330.83</ele>
        <time>2020-03-15T16:01:14Z</time>
      </trkpt>
      <trkpt lat="43.2387" lon="5.45751">
        <ele>331.31</ele>
        <time>2020-03-15T16:01:15Z</time>
      </trkpt>
      <trkpt lat="43.23876" lon="5.45741">
        <ele>330.83</ele>
        <time>2020-03-15T16:01:26Z</time>
      </trkpt>
      <trkpt lat="43.23881" lon="5.45737">
        <ele>330.35</ele>
        <time>2020-03-15T16:01:32Z</time>
      </trkpt>
      <trkpt lat="43.23888" lon="5.45724">
        <ele>330.83</ele>
        <time>2020-03-15T16:01:44Z</time>
      </trkpt>
      <trkpt lat="43.23892" lon="5.45719">
        <ele>330.83</ele>
        <time>2020-03-15T16:01:49Z</time>
      </trkpt>
      <trkpt lat="43.23902" lon="5.45703">
        <ele>329.39</ele>
        <time>2020-03-15T16:02:02Z</time>
      </trkpt>
      <trkpt lat="43.23907" lon="5.45694">
        <ele>328.43</ele>
        <time>2020-03-15T16:02:10Z</time>
      </trkpt>
      <trkpt lat="43.23921" lon="5.45689">
        <ele>327.47</ele>
        <time>2020-03-15T16:02:24Z</time>
      </trkpt>
      <trkpt lat="43.23922" lon="5.4569">
        <ele>327.47</ele>
        <time>2020-03-15T16:02:25Z</time>
      </trkpt>
      <trkpt lat="43.23923" lon="5.4569">
        <ele>327.47</ele>
        <time>2020-03-15T16:02:26Z</time>
      </trkpt>
      <trkpt lat="43.23924" lon="5.4569">
        <ele>327.47</ele>
        <time>2020-03-15T16:02:27Z</time>
      </trkpt>
      <trkpt lat="43.23925" lon="5.4569">
        <ele>327.47</ele>
        <time>2020-03-15T16:02:28Z</time>
      </trkpt>
      <trkpt lat="43.23926" lon="5.4569">
        <ele>327.47</ele>
        <time>2020-03-15T16:02:29Z</time>
      </trkpt>
      <trkpt lat="43.23942" lon="5.4569">
        <ele>326.02</ele>
        <time>2020-03-15T16:02:44Z</time>
      </trkpt>
      <trkpt lat="43.23945" lon="5.4569">
        <ele>325.54</ele>
        <time>2020-03-15T16:02:47Z</time>
      </trkpt>
      <trkpt lat="43.23946" lon="5.45688">
        <ele>326.02</ele>
        <time>2020-03-15T16:03:00Z</time>
      </trkpt>
      <trkpt lat="43.23947" lon="5.4569">
        <ele>327.47</ele>
        <time>2020-03-15T16:03:22Z</time>
      </trkpt>
      <trkpt lat="43.2395" lon="5.45695">
        <ele>327.47</ele>
        <time>2020-03-15T16:03:33Z</time>
      </trkpt>
      <trkpt lat="43.23957" lon="5.457">
        <ele>326.02</ele>
        <time>2020-03-15T16:03:45Z</time>
      </trkpt>
      <trkpt lat="43.23969" lon="5.45705">
        <ele>325.06</ele>
        <time>2020-03-15T16:04:00Z</time>
      </trkpt>
      <trkpt lat="43.2397" lon="5.45705">
        <ele>325.06</ele>
        <time>2020-03-15T16:04:01Z</time>
      </trkpt>
      <trkpt lat="43.23971" lon="5.45706">
        <ele>325.06</ele>
        <time>2020-03-15T16:04:02Z</time>
      </trkpt>
      <trkpt lat="43.23983" lon="5.45711">
        <ele>324.58</ele>
        <time>2020-03-15T16:04:15Z</time>
      </trkpt>
      <trkpt lat="43.2399" lon="5.45717">
        <ele>325.06</ele>
        <time>2020-03-15T16:04:26Z</time>
      </trkpt>
      <trkpt lat="43.23992" lon="5.45714">
        <ele>324.58</ele>
        <time>2020-03-15T16:04:37Z</time>
      </trkpt>
      <trkpt lat="43.23996" lon="5.4572">
        <ele>323.62</ele>
        <time>2020-03-15T16:04:51Z</time>
      </trkpt>
      <trkpt lat="43.23998" lon="5.45721">
        <ele>324.1</ele>
        <time>2020-03-15T16:04:53Z</time>
      </trkpt>
      <trkpt lat="43.24" lon="5.45723">
        <ele>324.1</ele>
        <time>2020-03-15T16:04:55Z</time>
      </trkpt>
      <trkpt lat="43.24003" lon="5.45733">
        <ele>323.14</ele>
        <time>2020-03-15T16:05:07Z</time>
      </trkpt>
      <trkpt lat="43.24002" lon="5.45737">
        <ele>323.14</ele>
        <time>2020-03-15T16:05:22Z</time>
      </trkpt>
    </trkseg>
  </trk>
</gpx>